Darstellungsparameter: Aktuell verwendete Einstellungen:
Skalierung der Graphiken ... ?
xyx+y,   Skalierungsfaktor:      Skalierung: Modus: x, Faktor: 1
Darstellungszeitraum ... ?
Vom - - bis: - -   Zeitraum: 30.04.2015 - 29.04.2020
Min/Max/Avg-Anzeige ... ?
Zeige MMA aktuell
Zeige MMA Monat
Zeige MMA alles
Zeige --A aktuell
Zeige --A Monat
Zeige --A alles
Keine MMA-Anzeige
MMA:
Average (ber die Originaldaten)
MMA-Basis: 30.04.2015 - 29.04.2020
Quicknavigation für Darstellung... ?
Tage:      1T, 2T, 3T, 5T -1T -2T -3T -5T +1T +2T +3T +5T
Wochen: 1W, 2W, 3W -1W -2W -3W +1W +2W +3W
Monate: 1M, 3M, 6M -1M -3M -6M +1M +3M +6M
Jahre:    1J, 3J, 5J, 10J -1J -3J -5J -10J +1J +3J +5J +10J
Nutze für die Darstellung ... ?
Originaldaten oder ...
Mittelwerte Minima Maxima auf...
Stundenbasis Tagesbasis Wochenbasis
Monatsbasis Jahresbasis      Datenbasis: Mittelwerte auf Tagesbasis
Darstellen als:
Statistik (Auto) Statistik J:M      Darstellung:
Zur Graphik,    zurück zur Übersicht aller Sensoren.
 
Tabellarische Datenbersicht: ?
 
Sensor: Nr:Datum:Temp:Feuchte:
Aussen-T/F 1 30-04-2015 00:00:00 9.585 C 68.6333 %
2 01-05-2015 00:00:00 8.0975 C 73.7083 %
3 02-05-2015 00:00:00 9.81083 C 66.7417 %
4 03-05-2015 00:00:00 13.81833 C 78.0667 %
5 04-05-2015 00:00:00 16.06417 C 72.1250 %
6 05-05-2015 00:00:00 18.12917 C 62.4750 %
7 06-05-2015 00:00:00 13.25833 C 57.6083 %
8 07-05-2015 00:00:00 13.39 C 52.4500 %
9 08-05-2015 00:00:00 14.455 C 53.7000 %
10 09-05-2015 00:00:00 15.36583 C 62.0667 %
11 10-05-2015 00:00:00 14.795 C 62.0917 %
12 11-05-2015 00:00:00 17.42583 C 57.7500 %
13 12-05-2015 00:00:00 17.955 C 59.3167 %
14 13-05-2015 00:00:00 14.00083 C 55.4667 %
15 14-05-2015 00:00:00 13.93833 C 58.5750 %
16 15-05-2015 00:00:00 15.25583 C 63.9333 %
17 16-05-2015 00:00:00 12.21167 C 62.2833 %
18 17-05-2015 00:00:00 14.40083 C 55.0333 %
19 18-05-2015 00:00:00 15.42833 C 52.3583 %
20 19-05-2015 00:00:00 13.43277 C 49.9160 %
21 20-05-2015 00:00:00 11.94083 C 55.4083 %
22 21-05-2015 00:00:00 11.78 C 56.4083 %
23 22-05-2015 00:00:00 15.78583 C 47.5667 %
24 23-05-2015 00:00:00 16.27917 C 52.1083 %
25 24-05-2015 00:00:00 17.4275 C 57.6750 %
Sensor: Nr:Datum:Temp:Feuchte:
Aussen-T/F 26 25-05-2015 00:00:00 13.7775 C 75.4667 %
27 26-05-2015 00:00:00 11.96333 C 58.6000 %
28 27-05-2015 00:00:00 12.29333 C 53.7917 %
29 28-05-2015 00:00:00 14.33917 C 53.4000 %
30 29-05-2015 00:00:00 13.34417 C 59.1167 %
31 30-05-2015 00:00:00 12.57583 C 59.2667 %
32 31-05-2015 00:00:00 14.7625 C 58.4500 %
33 01-06-2015 00:00:00 15.34667 C 64.0000 %
34 02-06-2015 00:00:00 17.45167 C 60.0000 %
35 03-06-2015 00:00:00 18.26417 C 53.1417 %
36 04-06-2015 00:00:00 19.22 C 49.2167 %
37 05-06-2015 00:00:00 23.11167 C 51.2333 %
38 06-06-2015 00:00:00 20.8725 C 60.6750 %
39 07-06-2015 00:00:00 18.5075 C 45.7667 %
40 08-06-2015 00:00:00 16.31333 C 46.7083 %
41 09-06-2015 00:00:00 15.34083 C 43.8833 %
42 10-06-2015 00:00:00 17.59417 C 47.5417 %
43 11-06-2015 00:00:00 20.22167 C 43.8250 %
44 12-06-2015 00:00:00 19.73167 C 62.0667 %
45 13-06-2015 00:00:00 19.42333 C 70.8167 %
46 14-06-2015 00:00:00 19.36333 C 56.1083 %
47 15-06-2015 00:00:00 18.30667 C 55.0333 %
48 16-06-2015 00:00:00 16.365 C 45.2083 %
49 17-06-2015 00:00:00 16.1175 C 49.9583 %
50 18-06-2015 00:00:00 17.6175 C 59.4333 %
Sensor: Nr:Datum:Temp:Feuchte:
Aussen-T/F 51 19-06-2015 00:00:00 12.8725 C 67.0250 %
52 20-06-2015 00:00:00 13.48333 C 66.2250 %
53 21-06-2015 00:00:00 15.8562 C 67.7025 %
54 22-06-2015 00:00:00 12.87 C 76.3000 %
55 23-06-2015 00:00:00 11.54917 C 84.2667 %
56 24-06-2015 00:00:00 15.69333 C 64.0667 %
57 25-06-2015 00:00:00 18.91333 C 58.4917 %
58 26-06-2015 00:00:00 19.88167 C 59.7083 %
59 27-06-2015 00:00:00 20.10862 C 61.3448 %
60 28-06-2015 00:00:00 18.18333 C 57.8250 %
61 29-06-2015 00:00:00 22.07 C 49.5167 %
62 30-06-2015 00:00:00 22.66333 C 50.9083 %
63 01-07-2015 00:00:00 25.10083 C 48.9333 %
64 02-07-2015 00:00:00 27.395 C 48.2250 %
65 03-07-2015 00:00:00 27.8825 C 47.1750 %
66 04-07-2015 00:00:00 28.28667 C 49.8167 %
67 05-07-2015 00:00:00 27.28 C 47.5083 %
68 06-07-2015 00:00:00 22.0075 C 56.0833 %
69 07-07-2015 00:00:00 22.37583 C 51.2500 %
70 08-07-2015 00:00:00 17.825 C 55.9333 %
71 09-07-2015 00:00:00 17.09917 C 50.3417 %
72 10-07-2015 00:00:00 17.43417 C 47.0417 %
73 11-07-2015 00:00:00 21.45167 C 42.0333 %
74 12-07-2015 00:00:00 18.76167 C 56.9083 %
75 13-07-2015 00:00:00 17.3875 C 71.7500 %
Sensor: Nr:Datum:Temp:Feuchte:
Aussen-T/F 76 14-07-2015 00:00:00 20.77083 C 57.6583 %
77 15-07-2015 00:00:00 21.76333 C 57.2167 %
78 16-07-2015 00:00:00 24.265 C 54.6750 %
79 17-07-2015 00:00:00 28.4475 C 37.8417 %
80 18-07-2015 00:00:00 24.14833 C 42.5417 %
81 19-07-2015 00:00:00 20.34667 C 63.1167 %
82 20-07-2015 00:00:00 21.0825 C 72.4167 %
83 21-07-2015 00:00:00 24.695 C 58.8083 %
84 22-07-2015 00:00:00 23.58083 C 55.3333 %
85 23-07-2015 00:00:00 20.82917 C 45.8417 %
86 24-07-2015 00:00:00 21.54 C 51.6667 %
87 25-07-2015 00:00:00 17.33667 C 64.7667 %
88 26-07-2015 00:00:00 15.33782 C 62.9412 %
89 27-07-2015 00:00:00 17.56583 C 67.1833 %
90 28-07-2015 00:00:00 17.15417 C 47.7833 %
91 29-07-2015 00:00:00 16.69 C 46.4167 %
92 30-07-2015 00:00:00 13.83583 C 60.6417 %
93 31-07-2015 00:00:00 16.04333 C 56.5167 %
94 01-08-2015 00:00:00 19.1175 C 44.3917 %
95 02-08-2015 00:00:00 20.51583 C 47.2333 %
96 03-08-2015 00:00:00 23.50333 C 44.3083 %
97 04-08-2015 00:00:00 19.1575 C 64.7917 %
98 05-08-2015 00:00:00 20.32667 C 60.8500 %
99 06-08-2015 00:00:00 24.22667 C 51.2917 %
100 07-08-2015 00:00:00 26.84583 C 43.1000 %
Sensor: Nr:Datum:Temp:Feuchte:
Aussen-T/F 101 08-08-2015 00:00:00 23.22583 C 56.8250 %
102 09-08-2015 00:00:00 22.54 C 54.8750 %
103 10-08-2015 00:00:00 20.13583 C 63.9667 %
104 11-08-2015 00:00:00 22.12917 C 54.1167 %
105 12-08-2015 00:00:00 23.5925 C 55.8667 %
106 13-08-2015 00:00:00 25.41083 C 52.2583 %
107 14-08-2015 00:00:00 24.8725 C 48.6583 %
108 15-08-2015 00:00:00 21.19667 C 51.7000 %
109 16-08-2015 00:00:00 15.85333 C 76.6667 %
110 17-08-2015 00:00:00 14.77917 C 76.5750 %
111 18-08-2015 00:00:00 15.985 C 67.1167 %
112 19-08-2015 00:00:00 15.55667 C 62.6583 %
113 20-08-2015 00:00:00 17.8975 C 56.5500 %
114 21-08-2015 00:00:00 18.76 C 55.2583 %
115 22-08-2015 00:00:00 18.9875 C 50.1583 %
116 23-08-2015 00:00:00 19.48417 C 48.7167 %
117 24-08-2015 00:00:00 19.7175 C 67.7583 %
118 25-08-2015 00:00:00 17.94583 C 48.2417 %
119 26-08-2015 00:00:00 19.86833 C 48.8500 %
120 27-08-2015 00:00:00 18.44167 C 67.6167 %
121 28-08-2015 00:00:00 17.17167 C 72.7583 %
122 29-08-2015 00:00:00 20.18333 C 69.6583 %
123 30-08-2015 00:00:00 23.21917 C 66.6083 %
124 31-08-2015 00:00:00 24.31417 C 55.9917 %
125 01-09-2015 00:00:00 17.54 C 77.1833 %
Sensor: Nr:Datum:Temp:Feuchte:
Aussen-T/F 126 02-09-2015 00:00:00 15.07917 C 71.6750 %
127 03-09-2015 00:00:00 14.1425 C 71.6833 %
128 04-09-2015 00:00:00 13.65917 C 64.6833 %
129 05-09-2015 00:00:00 13.05583 C 69.7417 %
130 06-09-2015 00:00:00 13.10917 C 56.4833 %
131 07-09-2015 00:00:00 13.455 C 71.1750 %
132 08-09-2015 00:00:00 15.4175 C 67.9250 %
133 09-09-2015 00:00:00 15.76167 C 57.9417 %
134 10-09-2015 00:00:00 12.94833 C 61.4583 %
135 11-09-2015 00:00:00 13.1675 C 62.5833 %
136 12-09-2015 00:00:00 15.18667 C 66.6583 %
137 13-09-2015 00:00:00 16.93167 C 79.4833 %
138 14-09-2015 00:00:00 15.35833 C 80.5417 %
139 15-09-2015 00:00:00 13.065 C 73.8583 %
140 16-09-2015 00:00:00 14.7 C 83.4250 %
141 17-09-2015 00:00:00 14.20833 C 80.5000 %
142 18-09-2015 00:00:00 14.38667 C 73.0167 %
143 19-09-2015 00:00:00 14.08917 C 73.5250 %
144 20-09-2015 00:00:00 13.44417 C 70.9167 %
145 21-09-2015 00:00:00 12.42583 C 74.5917 %
146 22-09-2015 00:00:00 12.75833 C 80.1333 %
147 23-09-2015 00:00:00 11.50667 C 85.6250 %
148 24-09-2015 00:00:00 13.10833 C 79.6333 %
149 25-09-2015 00:00:00 13.78333 C 71.6917 %
150 26-09-2015 00:00:00 12.60917 C 72.9083 %
Sensor: Nr:Datum:Temp:Feuchte:
Aussen-T/F 151 27-09-2015 00:00:00 11.13167 C 71.3417 %
152 28-09-2015 00:00:00 10.20667 C 70.9417 %
153 29-09-2015 00:00:00 10.215 C 70.4167 %
154 30-09-2015 00:00:00 10.06583 C 66.1000 %
155 01-10-2015 00:00:00 9.29917 C 61.2667 %
156 02-10-2015 00:00:00 8.59917 C 74.0083 %
157 03-10-2015 00:00:00 10.44917 C 75.1833 %
158 04-10-2015 00:00:00 12.28417 C 78.5750 %
159 05-10-2015 00:00:00 11.84583 C 79.5750 %
160 06-10-2015 00:00:00 15.80167 C 83.4417 %
161 07-10-2015 00:00:00 14.7 C 74.2167 %
162 08-10-2015 00:00:00 13.32333 C 68.8000 %
163 09-10-2015 00:00:00 12.07083 C 80.7417 %
164 10-10-2015 00:00:00 12.105 C 72.4833 %
165 11-10-2015 00:00:00 7.89833 C 59.4083 %
166 12-10-2015 00:00:00 4.42167 C 68.4750 %
167 13-10-2015 00:00:00 3.95167 C 78.6917 %
168 14-10-2015 00:00:00 3.28417 C 89.8583 %
169 15-10-2015 00:00:00 3.80417 C 90.4250 %
170 16-10-2015 00:00:00 6.35 C 81.6917 %
171 17-10-2015 00:00:00 6.735 C 73.5833 %
172 18-10-2015 00:00:00 7.18 C 77.1667 %
173 19-10-2015 00:00:00 8.16667 C 76.7333 %
174 20-10-2015 00:00:00 9.0175 C 82.7417 %
175 21-10-2015 00:00:00 9.47 C 80.4667 %
Sensor: Nr:Datum:Temp:Feuchte:
Aussen-T/F 176 22-10-2015 00:00:00 10.8575 C 70.3000 %
177 23-10-2015 00:00:00 9.86917 C 85.9750 %
178 24-10-2015 00:00:00 10.69583 C 72.8083 %
179 25-10-2015 00:00:00 11.2568 C 79.4000 %
180 26-10-2015 00:00:00 8.69667 C 85.5250 %
181 27-10-2015 00:00:00 8.0525 C 82.0167 %
182 28-10-2015 00:00:00 9.38917 C 72.9917 %
183 29-10-2015 00:00:00 9.7475 C 80.2750 %
184 30-10-2015 00:00:00 7.32333 C 86.3250 %
185 31-10-2015 00:00:00 6.77583 C 83.6250 %
186 01-11-2015 00:00:00 6.29 C 87.0333 %
187 02-11-2015 00:00:00 4.25083 C 91.1250 %
188 03-11-2015 00:00:00 4.7125 C 84.8500 %
189 04-11-2015 00:00:00 7.2225 C 83.8667 %
190 05-11-2015 00:00:00 9.55417 C 87.5250 %
191 06-11-2015 00:00:00 12.8575 C 78.4333 %
192 07-11-2015 00:00:00 15.96833 C 79.7667 %
193 08-11-2015 00:00:00 12.09333 C 87.1417 %
194 09-11-2015 00:00:00 14.4975 C 61.9250 %
195 10-11-2015 00:00:00 12.95167 C 58.9500 %
196 11-11-2015 00:00:00 11.47167 C 60.8250 %
197 12-11-2015 00:00:00 11.10833 C 67.1417 %
198 13-11-2015 00:00:00 10.18 C 68.2667 %
199 14-11-2015 00:00:00 8.45667 C 58.9833 %
200 15-11-2015 00:00:00 12.26417 C 57.5667 %
Sensor: Nr:Datum:Temp:Feuchte:
Aussen-T/F 201 16-11-2015 00:00:00 11.36917 C 57.1750 %
202 17-11-2015 00:00:00 13.67167 C 66.9000 %
203 18-11-2015 00:00:00 13.59083 C 45.0667 %
204 19-11-2015 00:00:00 11.8225 C 65.8333 %
205 20-11-2015 00:00:00 7.22083 C 84.0833 %
206 21-11-2015 00:00:00 3.41917 C 75.5000 %
207 22-11-2015 00:00:00 2.13833 C 82.4667 %
208 23-11-2015 00:00:00 1.88 C 76.4500 %
209 24-11-2015 00:00:00 1.28583 C 77.3333 %
210 25-11-2015 00:00:00 4.00833 C 74.3167 %
211 26-11-2015 00:00:00 4.22333 C 78.5917 %
212 27-11-2015 00:00:00 1.90417 C 82.8750 %
213 28-11-2015 00:00:00 3.72167 C 64.4917 %
214 29-11-2015 00:00:00 8.60917 C 59.6500 %
215 30-11-2015 00:00:00 9.42083 C 70.1917 %
216 01-12-2015 00:00:00 10.81583 C 72.9000 %
217 02-12-2015 00:00:00 9.32917 C 63.8917 %
218 03-12-2015 00:00:00 6.91 C 65.0667 %
219 04-12-2015 00:00:00 6.15833 C 77.1333 %
220 05-12-2015 00:00:00 5.30417 C 71.3500 %
221 06-12-2015 00:00:00 7.65083 C 65.3750 %
222 07-12-2015 00:00:00 7.24333 C 79.5333 %
223 08-12-2015 00:00:00 3.85333 C 92.6417 %
224 09-12-2015 00:00:00 5.81417 C 86.4083 %
225 10-12-2015 00:00:00 2.24167 C 82.4000 %
Sensor: Nr:Datum:Temp:Feuchte:
Aussen-T/F 226 11-12-2015 00:00:00 4.06583 C 76.6167 %
227 12-12-2015 00:00:00 7.5325 C 83.2833 %
228 13-12-2015 00:00:00 8.14 C 69.1250 %
229 14-12-2015 00:00:00 5.15417 C 90.8417 %
230 15-12-2015 00:00:00 4.89833 C 89.1833 %
231 16-12-2015 00:00:00 9.15083 C 89.9750 %
232 17-12-2015 00:00:00 11.63417 C 75.1167 %
233 18-12-2015 00:00:00 10.56667 C 76.0500 %
234 19-12-2015 00:00:00 10.50417 C 68.5583 %
235 20-12-2015 00:00:00 7.115 C 88.6750 %
236 21-12-2015 00:00:00 9.43583 C 63.8417 %
237 22-12-2015 00:00:00 11.1725 C 48.5000 %
238 23-12-2015 00:00:00 9.01167 C 57.9417 %
239 24-12-2015 00:00:00 8.45833 C 72.2833 %
240 25-12-2015 00:00:00 10.48417 C 60.2500 %
241 26-12-2015 00:00:00 9.345 C 61.1667 %
242 27-12-2015 00:00:00 6.45333 C 76.4917 %
243 28-12-2015 00:00:00 2.05083 C 89.9000 %
244 29-12-2015 00:00:00 2.285 C 91.8750 %
245 30-12-2015 00:00:00 3.93417 C 81.2500 %
246 31-12-2015 00:00:00 4.05417 C 73.4333 %
247 01-01-2016 00:00:00 3.65167 C 83.7833 %
248 02-01-2016 00:00:00 3.92083 C 70.8833 %
249 03-01-2016 00:00:00 4.92917 C 64.7583 %
250 04-01-2016 00:00:00 4.6675 C 74.2000 %
Sensor: Nr:Datum:Temp:Feuchte:
Aussen-T/F 251 05-01-2016 00:00:00 5.86833 C 64.5917 %
252 06-01-2016 00:00:00 5.34667 C 76.1417 %
253 07-01-2016 00:00:00 4.32417 C 76.2500 %
254 08-01-2016 00:00:00 2.07833 C 65.9667 %
255 09-01-2016 00:00:00 0.6125 C 88.5167 %
256 10-01-2016 00:00:00 5.36218 C 74.0840 %
257 11-01-2016 00:00:00 4.41333 C 78.4417 %
258 12-01-2016 00:00:00 4.76167 C 54.9417 %
259 13-01-2016 00:00:00 4.1675 C 55.5500 %
260 14-01-2016 00:00:00 2.565 C 55.8250 %
261 15-01-2016 00:00:00 2.09667 C 60.7500 %
262 16-01-2016 00:00:00 1.19 C 66.6250 %
263 17-01-2016 00:00:00 -0.53083 C 48.5583 %
264 18-01-2016 00:00:00 -5.885 C 57.7333 %
265 19-01-2016 00:00:00 -6.08333 C 53.1500 %
266 20-01-2016 00:00:00 -2.2525 C 57.0583 %
267 21-01-2016 00:00:00 -0.195 C 66.5583 %
268 22-01-2016 00:00:00 -3.03833 C 60.6333 %
269 23-01-2016 00:00:00 3.43583 C 67.1417 %
270 24-01-2016 00:00:00 4.5925 C 67.4167 %
271 25-01-2016 00:00:00 6.55917 C 65.2583 %
272 26-01-2016 00:00:00 8.70083 C 45.6583 %
273 27-01-2016 00:00:00 10.98917 C 31.4833 %
274 28-01-2016 00:00:00 6.53417 C 55.1333 %
275 29-01-2016 00:00:00 4.86917 C 53.8667 %
Sensor: Nr:Datum:Temp:Feuchte:
Aussen-T/F 276 30-01-2016 00:00:00 6.82167 C 49.3750 %
277 31-01-2016 00:00:00 5.65333 C 53.5417 %
278 01-02-2016 00:00:00 11.48583 C 43.6167 %
279 02-02-2016 00:00:00 10.0775 C 46.2083 %
280 03-02-2016 00:00:00 4.48833 C 46.5167 %
281 04-02-2016 00:00:00 3.8175 C 58.8833 %
282 05-02-2016 00:00:00 6.95917 C 59.9667 %
283 06-02-2016 00:00:00 7.20083 C 56.1333 %
284 07-02-2016 00:00:00 8.2525 C 37.4667 %
285 08-02-2016 00:00:00 7.405 C 40.7250 %
286 09-02-2016 00:00:00 6.3125 C 48.5500 %
287 10-02-2016 00:00:00 4.2375 C 44.8083 %
288 11-02-2016 00:00:00 4.22833 C 49.3500 %
289 12-02-2016 00:00:00 2.40917 C 49.6917 %
290 13-02-2016 00:00:00 0.93917 C 68.9833 %
291 14-02-2016 00:00:00 4.075 C 74.4500 %
292 15-02-2016 00:00:00 1.52083 C 58.3750 %
293 16-02-2016 00:00:00 -0.7275 C 42.6083 %
294 17-02-2016 00:00:00 -0.33333 C 53.4250 %
295 18-02-2016 00:00:00 1.44583 C 49.3833 %
296 19-02-2016 00:00:00 0.79417 C 58.8333 %
297 20-02-2016 00:00:00 5.52417 C 63.4000 %
298 21-02-2016 00:00:00 11.48417 C 44.6750 %
299 22-02-2016 00:00:00 9.25167 C 42.6667 %
300 23-02-2016 00:00:00 1.70083 C 74.3167 %
Sensor: Nr:Datum:Temp:Feuchte:
Aussen-T/F 301 24-02-2016 00:00:00 1.25 C 67.2667 %
302 25-02-2016 00:00:00 0.10917 C 60.8667 %
303 26-02-2016 00:00:00 1.8675 C 47.5667 %
304 27-02-2016 00:00:00 1.35083 C 40.6333 %
305 28-02-2016 00:00:00 1.14833 C 40.8167 %
306 29-02-2016 00:00:00 2.51 C 31.5917 %
307 01-03-2016 00:00:00 0.29417 C 46.5000 %
308 02-03-2016 00:00:00 5.84 C 42.0250 %
309 03-03-2016 00:00:00 3.0875 C 47.3000 %
310 04-03-2016 00:00:00 1.0725 C 69.0667 %
311 05-03-2016 00:00:00 4.1 C 62.7917 %
312 06-03-2016 00:00:00 2.515 C 59.7833 %
313 07-03-2016 00:00:00 1.795 C 65.8667 %
314 08-03-2016 00:00:00 1.35667 C 59.3500 %
315 09-03-2016 00:00:00 1.89667 C 45.6500 %
316 10-03-2016 00:00:00 2.14917 C 47.1250 %
317 11-03-2016 00:00:00 3.7425 C 45.0833 %
318 12-03-2016 00:00:00 3.90583 C 30.9667 %
319 13-03-2016 00:00:00 4.57167 C 31.1833 %
320 14-03-2016 00:00:00 3.825 C 30.8417 %
321 15-03-2016 00:00:00 2.91833 C 38.5833 %
322 16-03-2016 00:00:00 4.03667 C 32.4833 %
323 17-03-2016 00:00:00 3.92083 C 39.7500 %
324 18-03-2016 00:00:00 4.26833 C 40.0000 %
325 19-03-2016 00:00:00 5.375 C 40.8000 %
Sensor: Nr:Datum:Temp:Feuchte:
Aussen-T/F 326 20-03-2016 00:00:00 5.61917 C 31.5500 %
327 21-03-2016 00:00:00 6.80333 C 40.1750 %
328 22-03-2016 00:00:00 7.90167 C 33.8500 %
329 23-03-2016 00:00:00 7.75 C 36.0500 %
330 24-03-2016 00:00:00 6.74417 C 40.9500 %
331 25-03-2016 00:00:00 6.3375 C 53.9250 %
332 26-03-2016 00:00:00 8.95333 C 46.6167 %
333 27-03-2016 00:00:00 9.04783 C 40.2957 %
334 28-03-2016 00:00:00 7.90667 C 40.1750 %
335 29-03-2016 00:00:00 9.055 C 31.4333 %
336 30-03-2016 00:00:00 9.75 C 41.6917 %
337 31-03-2016 00:00:00 6.63583 C 56.8333 %
338 01-04-2016 00:00:00 6.93083 C 50.1417 %
339 02-04-2016 00:00:00 8.0475 C 51.6750 %
340 03-04-2016 00:00:00 13.42583 C 38.0667 %
341 04-04-2016 00:00:00 13.64583 C 46.2083 %
342 05-04-2016 00:00:00 10.9925 C 55.3417 %
343 06-04-2016 00:00:00 10.6875 C 44.1083 %
344 07-04-2016 00:00:00 8.1575 C 34.2667 %
345 08-04-2016 00:00:00 5.99083 C 43.5583 %
346 09-04-2016 00:00:00 7.77083 C 41.4333 %
347 10-04-2016 00:00:00 11.51583 C 29.2333 %
348 11-04-2016 00:00:00 11.9225 C 31.8917 %
349 12-04-2016 00:00:00 10.91917 C 41.5500 %
350 13-04-2016 00:00:00 8.84833 C 59.7333 %
Sensor: Nr:Datum:Temp:Feuchte:
Aussen-T/F 351 14-04-2016 00:00:00 11.13 C 45.5583 %
352 15-04-2016 00:00:00 13.36 C 32.9000 %
353 16-04-2016 00:00:00 11.87917 C 35.3083 %
354 17-04-2016 00:00:00 9.01167 C 40.1167 %
355 18-04-2016 00:00:00 7.2325 C 38.2167 %
356 19-04-2016 00:00:00 8.9975 C 25.7167 %
357 20-04-2016 00:00:00 9.22 C 32.0333 %
358 21-04-2016 00:00:00 11.33083 C 29.5500 %
359 22-04-2016 00:00:00 13.95583 C 21.0667 %
360 23-04-2016 00:00:00 8.31083 C 30.3000 %
361 24-04-2016 00:00:00 5.44 C 28.0917 %
362 25-04-2016 00:00:00 4.0775 C 43.0917 %
363 26-04-2016 00:00:00 4.38 C 39.0417 %
364 27-04-2016 00:00:00 5.32667 C 23.8250 %
365 28-04-2016 00:00:00 6.70333 C 30.5583 %
366 29-04-2016 00:00:00 7.80583 C 30.1000 %
367 30-04-2016 00:00:00 7.91583 C 30.9333 %
368 01-05-2016 00:00:00 10.01083 C 35.3833 %
369 02-05-2016 00:00:00 10.51083 C 42.4750 %
370 03-05-2016 00:00:00 11.25917 C 31.6333 %
371 04-05-2016 00:00:00 9.2375 C 32.9917 %
372 05-05-2016 00:00:00 11.535 C 29.8083 %
373 06-05-2016 00:00:00 15.30667 C 31.8167 %
374 07-05-2016 00:00:00 17.3 C 30.4750 %
375 08-05-2016 00:00:00 18.64833 C 20.2833 %
Sensor: Nr:Datum:Temp:Feuchte:
Aussen-T/F 376 09-05-2016 00:00:00 18.325 C 21.9833 %
377 10-05-2016 00:00:00 17.15833 C 26.3000 %
378 11-05-2016 00:00:00 17.9975 C 38.7333 %
379 12-05-2016 00:00:00 18.35667 C 21.6500 %
380 13-05-2016 00:00:00 14.43917 C 42.0583 %
381 14-05-2016 00:00:00 10.66167 C 30.2500 %
382 15-05-2016 00:00:00 9.19333 C 21.1750 %
383 16-05-2016 00:00:00 10.65167 C 22.1667 %
384 17-05-2016 00:00:00 13.08417 C 23.7167 %
385 18-05-2016 00:00:00 15.07 C 26.4167 %
386 19-05-2016 00:00:00 14.705 C 31.9083 %
387 20-05-2016 00:00:00 14.36917 C 27.7333 %
388 21-05-2016 00:00:00 18.82083 C 30.1667 %
389 22-05-2016 00:00:00 19.6125 C 26.3750 %
390 23-05-2016 00:00:00 14.36417 C 28.3667 %
391 24-05-2016 00:00:00 11.07083 C 39.1667 %
392 25-05-2016 00:00:00 13.16083 C 39.4917 %
393 26-05-2016 00:00:00 15.82333 C 37.5500 %
394 27-05-2016 00:00:00 17.00333 C 47.2000 %
395 28-05-2016 00:00:00 17.40167 C 48.0833 %
396 29-05-2016 00:00:00 18.06417 C 41.2500 %
397 30-05-2016 00:00:00 17.56333 C 48.6833 %
398 31-05-2016 00:00:00 16.76452 C 37.3387 %
399 01-06-2016 00:00:00 15.94792 C 43.6458 %
400 02-06-2016 00:00:00 17.97014 C 45.8819 %
Sensor: Nr:Datum:Temp:Feuchte:
Aussen-T/F 401 03-06-2016 00:00:00 16.98542 C 47.4514 %
402 04-06-2016 00:00:00 18.03125 C 41.6979 %
403 05-06-2016 00:00:00 19.83507 C 41.0556 %
404 06-06-2016 00:00:00 19.82222 C 34.2014 %
405 07-06-2016 00:00:00 21.12847 C 28.7604 %
406 08-06-2016 00:00:00 20.43993 C 25.7188 %
407 09-06-2016 00:00:00 18.36771 C 23.1875 %
408 10-06-2016 00:00:00 18.63125 C 23.3715 %
409 11-06-2016 00:00:00 18.52465 C 22.4410 %
410 12-06-2016 00:00:00 17.77604 C 31.9792 %
411 13-06-2016 00:00:00 15.89306 C 47.6493 %
412 14-06-2016 00:00:00 16.98229 C 36.8542 %
413 15-06-2016 00:00:00 15.80937 C 33.7951 %
414 16-06-2016 00:00:00 14.31493 C 43.6597 %
415 17-06-2016 00:00:00 14.91493 C 39.4757 %
416 18-06-2016 00:00:00 15.14896 C 40.0104 %
417 19-06-2016 00:00:00 16.51979 C 24.7535 %
418 20-06-2016 00:00:00 11.56903 C 28.5044 %
419 21-06-2016 00:00:00 18.65833 C 35.7667 %
420 22-06-2016 00:00:00 21.28833 C 37.0667 %
421 23-06-2016 00:00:00 24.72417 C 30.6083 %
422 24-06-2016 00:00:00 22.49417 C 33.0667 %
423 25-06-2016 00:00:00 16.69 C 56.2917 %
424 26-06-2016 00:00:00 15.84 C 41.2917 %
425 27-06-2016 00:00:00 16.38083 C 29.8417 %
Sensor: Nr:Datum:Temp:Feuchte:
Aussen-T/F 426 28-06-2016 00:00:00 18.94333 C 36.5667 %
427 29-06-2016 00:00:00 19.7075 C 23.8250 %
428 30-06-2016 00:00:00 19.33333 C 24.7167 %
429 01-07-2016 00:00:00 20.47833 C 25.5250 %
430 02-07-2016 00:00:00 17.3875 C 25.1167 %
431 03-07-2016 00:00:00 15.7475 C 25.1667 %
432 04-07-2016 00:00:00 18.435 C 26.2833 %
433 05-07-2016 00:00:00 19.94667 C 23.7917 %
434 06-07-2016 00:00:00 17.5575 C 24.4167 %
435 07-07-2016 00:00:00 17.9175 C 26.9333 %
436 08-07-2016 00:00:00 19.34833 C 26.2250 %
437 09-07-2016 00:00:00 21.7525 C 22.1750 %
438 10-07-2016 00:00:00 22.6725 C 26.1833 %
439 11-07-2016 00:00:00 22.19583 C 23.5083 %
440 12-07-2016 00:00:00 19.9525 C 24.3500 %
441 13-07-2016 00:00:00 15.24 C 37.0917 %
442 14-07-2016 00:00:00 15.65 C 34.8167 %
443 15-07-2016 00:00:00 16.855 C 23.0750 %
444 16-07-2016 00:00:00 17.50333 C 26.4917 %
445 17-07-2016 00:00:00 21.88917 C 26.5250 %
446 18-07-2016 00:00:00 22.8375 C 27.4083 %
447 19-07-2016 00:00:00 22.66917 C 25.7000 %
448 20-07-2016 00:00:00 24.1625 C 25.4250 %
449 21-07-2016 00:00:00 21.46167 C 33.7500 %
450 22-07-2016 00:00:00 21.44167 C 39.8500 %
Sensor: Nr:Datum:Temp:Feuchte:
Aussen-T/F 451 23-07-2016 00:00:00 20.57167 C 37.5917 %
452 24-07-2016 00:00:00 22.89083 C 37.5500 %
453 25-07-2016 00:00:00 22.56417 C 25.9000 %
454 26-07-2016 00:00:00 20.86333 C 26.3667 %
455 27-07-2016 00:00:00 20.36667 C 26.3583 %
456 28-07-2016 00:00:00 21.32 C 23.3917 %
457 29-07-2016 00:00:00 20.3725 C 27.6167 %
458 30-07-2016 00:00:00 21.31667 C 25.1000 %
459 31-07-2016 00:00:00 19.395 C 24.8500 %
460 01-08-2016 00:00:00 17.6775 C 27.5167 %
461 02-08-2016 00:00:00 16.10333 C 37.3833 %
462 03-08-2016 00:00:00 18.46667 C 38.4083 %
463 04-08-2016 00:00:00 17.91417 C 46.6333 %
464 05-08-2016 00:00:00 16.71833 C 33.8500 %
465 06-08-2016 00:00:00 18.14583 C 31.5833 %
466 07-08-2016 00:00:00 19.73 C 30.8917 %
467 08-08-2016 00:00:00 19.59083 C 23.6917 %
468 09-08-2016 00:00:00 17.05833 C 22.3000 %
469 10-08-2016 00:00:00 13.89917 C 26.0167 %
470 11-08-2016 00:00:00 12.59832 C 32.7059 %
471 12-08-2016 00:00:00 17.455 C 33.2250 %
472 13-08-2016 00:00:00 21.15833 C 31.2167 %
473 14-08-2016 00:00:00 19.95 C 30.1750 %
474 15-08-2016 00:00:00 19.69667 C 27.2250 %
475 16-08-2016 00:00:00 18.98167 C 26.7333 %
Sensor: Nr:Datum:Temp:Feuchte:
Aussen-T/F 476 17-08-2016 00:00:00 18.93333 C 25.7417 %
477 18-08-2016 00:00:00 17.52 C 26.5500 %
478 19-08-2016 00:00:00 19.7325 C 28.2667 %
479 20-08-2016 00:00:00 19.64167 C 27.2333 %
480 21-08-2016 00:00:00 17.60333 C 26.8583 %
481 22-08-2016 00:00:00 17.8025 C 27.1750 %
482 23-08-2016 00:00:00 19.51 C 30.9333 %
483 24-08-2016 00:00:00 20.755 C 28.3583 %
484 25-08-2016 00:00:00 21.70333 C 28.8500 %
485 26-08-2016 00:00:00 22.62333 C 27.2417 %
486 27-08-2016 00:00:00 24.03 C 28.2583 %
487 28-08-2016 00:00:00 23.51417 C 25.0417 %
488 29-08-2016 00:00:00 19.5725 C 24.0250 %
489 30-08-2016 00:00:00 18.9625 C 29.8667 %
490 31-08-2016 00:00:00 18.09833 C 24.6000 %
491 01-09-2016 00:00:00 19.885 C 25.6167 %
492 02-09-2016 00:00:00 18.95833 C 28.4750 %
493 03-09-2016 00:00:00 21.2725 C 24.6250 %
494 04-09-2016 00:00:00 18.2375 C 25.8750 %
495 05-09-2016 00:00:00 18.54917 C 25.8167 %
496 06-09-2016 00:00:00 16.93333 C 34.4917 %
497 07-09-2016 00:00:00 17.405 C 33.5750 %
498 08-09-2016 00:00:00 19.405 C 32.5083 %
499 09-09-2016 00:00:00 20.46333 C 21.3833 %
500 10-09-2016 00:00:00 19.22583 C 28.1083 %
Sensor: Nr:Datum:Temp:Feuchte:
Aussen-T/F 501 11-09-2016 00:00:00 19.21667 C 26.7417 %
502 12-09-2016 00:00:00 19.5625 C 29.1333 %
503 13-09-2016 00:00:00 21.00833 C 29.4083 %
504 14-09-2016 00:00:00 20.675 C 27.7083 %
505 15-09-2016 00:00:00 19.8875 C 25.4083 %
506 16-09-2016 00:00:00 17.43917 C 39.9167 %
507 17-09-2016 00:00:00 15.91333 C 35.6083 %
508 18-09-2016 00:00:00 17.29167 C 42.7083 %
509 19-09-2016 00:00:00 15.64833 C 27.5250 %
510 20-09-2016 00:00:00 15.07833 C 30.5000 %
511 21-09-2016 00:00:00 13.86667 C 27.4167 %
512 22-09-2016 00:00:00 11.25083 C 34.2583 %
513 23-09-2016 00:00:00 13.09417 C 32.6000 %
514 24-09-2016 00:00:00 13.36667 C 40.9167 %
515 25-09-2016 00:00:00 13.76917 C 38.9417 %
516 26-09-2016 00:00:00 14.44333 C 39.0333 %
517 27-09-2016 00:00:00 13.11333 C 52.0083 %
518 28-09-2016 00:00:00 15.245 C 38.0583 %
519 29-09-2016 00:00:00 18.65167 C 25.3417 %
520 30-09-2016 00:00:00 15.06167 C 29.6500 %
521 01-10-2016 00:00:00 13.58917 C 51.5333 %
522 02-10-2016 00:00:00 12.33333 C 43.2667 %
523 03-10-2016 00:00:00 12.23083 C 37.2000 %
524 04-10-2016 00:00:00 11.06833 C 47.8083 %
525 05-10-2016 00:00:00 8.02083 C 40.7917 %
Sensor: Nr:Datum:Temp:Feuchte:
Aussen-T/F 526 06-10-2016 00:00:00 7.89917 C 32.8250 %
527 07-10-2016 00:00:00 10.76917 C 41.6833 %
528 08-10-2016 00:00:00 9.0625 C 53.2250 %
529 09-10-2016 00:00:00 8.21917 C 43.8417 %
530 10-10-2016 00:00:00 6.4375 C 44.8333 %
531 11-10-2016 00:00:00 7.66667 C 44.1250 %
532 12-10-2016 00:00:00 8.5225 C 34.6417 %
533 13-10-2016 00:00:00 7.0825 C 42.1917 %
534 14-10-2016 00:00:00 9.04333 C 34.3583 %
535 15-10-2016 00:00:00 10.78083 C 44.4417 %
536 16-10-2016 00:00:00 8.045 C 54.9250 %
537 17-10-2016 00:00:00 10.0225 C 63.0667 %
538 18-10-2016 00:00:00 10.67917 C 47.8917 %
539 19-10-2016 00:00:00 8.77083 C 33.0917 %
540 20-10-2016 00:00:00 7.5975 C 52.8000 %
541 21-10-2016 00:00:00 7.21667 C 51.6083 %
542 22-10-2016 00:00:00 7.28167 C 49.5250 %
543 23-10-2016 00:00:00 6.66083 C 50.6500 %
544 24-10-2016 00:00:00 8.92167 C 63.3000 %
545 25-10-2016 00:00:00 11.005 C 51.3333 %
546 26-10-2016 00:00:00 8.985 C 42.9167 %
547 27-10-2016 00:00:00 8.2675 C 50.5250 %
548 28-10-2016 00:00:00 11.03667 C 37.9750 %
549 29-10-2016 00:00:00 11.12583 C 38.1417 %
550 30-10-2016 00:00:00 7.1712 C 54.7680 %
Sensor: Nr:Datum:Temp:Feuchte:
Aussen-T/F 551 31-10-2016 00:00:00 6.11333 C 61.1167 %
552 01-11-2016 00:00:00 6.55083 C 60.1167 %
553 02-11-2016 00:00:00 6.48667 C 37.7417 %
554 03-11-2016 00:00:00 5.62917 C 36.2750 %
555 04-11-2016 00:00:00 4.18583 C 57.1667 %
556 05-11-2016 00:00:00 6.1875 C 59.2417 %
557 06-11-2016 00:00:00 4.91833 C 30.0917 %
558 07-11-2016 00:00:00 3.88333 C 40.0667 %
559 08-11-2016 00:00:00 2.37583 C 46.3750 %
560 09-11-2016 00:00:00 2.99583 C 53.2667 %
561 10-11-2016 00:00:00 4.55333 C 50.0000 %
562 11-11-2016 00:00:00 4.3825 C 59.9250 %
563 12-11-2016 00:00:00 1.26417 C 47.5333 %
564 13-11-2016 00:00:00 1.32333 C 37.8333 %
565 14-11-2016 00:00:00 -1.67833 C 46.0917 %
566 15-11-2016 00:00:00 3.8725 C 39.5000 %
567 16-11-2016 00:00:00 9.1725 C 50.0750 %
568 17-11-2016 00:00:00 10.28167 C 32.9917 %
569 18-11-2016 00:00:00 8.59583 C 26.5250 %
570 19-11-2016 00:00:00 4.45417 C 39.7333 %
571 20-11-2016 00:00:00 8.31583 C 26.6583 %
572 21-11-2016 00:00:00 9.31917 C 45.5333 %
573 22-11-2016 00:00:00 9.50167 C 52.0583 %
574 23-11-2016 00:00:00 7.95417 C 67.0083 %
575 24-11-2016 00:00:00 7.5675 C 53.7583 %
Sensor: Nr:Datum:Temp:Feuchte:
Aussen-T/F 576 25-11-2016 00:00:00 7.12917 C 22.5167 %
577 26-11-2016 00:00:00 6.3675 C 25.9417 %
578 27-11-2016 00:00:00 4.2 C 40.8667 %
579 28-11-2016 00:00:00 -1.0125 C 46.3583 %
580 29-11-2016 00:00:00 -4.42 C 35.8000 %
581 30-11-2016 00:00:00 -4.23833 C 36.9833 %
582 01-12-2016 00:00:00 2.62667 C 21.5583 %
583 02-12-2016 00:00:00 4.245 C 43.0250 %
584 03-12-2016 00:00:00 -0.60083 C 60.1250 %
585 04-12-2016 00:00:00 -3.84417 C 47.8167 %
586 05-12-2016 00:00:00 -5.46833 C 44.0333 %
587 06-12-2016 00:00:00 -4.63417 C 45.9417 %
588 07-12-2016 00:00:00 -1.23 C 55.7333 %
589 08-12-2016 00:00:00 -0.39583 C 54.6667 %
590 09-12-2016 00:00:00 5.92583 C 21.0417 %
591 10-12-2016 00:00:00 3.77833 C 40.4750 %
592 11-12-2016 00:00:00 7.3925 C 25.0750 %
593 12-12-2016 00:00:00 5.93583 C 39.9833 %
594 13-12-2016 00:00:00 3.34583 C 65.2250 %
595 14-12-2016 00:00:00 5.935 C 48.1167 %
596 15-12-2016 00:00:00 6.37417 C 39.5917 %
597 16-12-2016 00:00:00 4.1375 C 22.6833 %
598 17-12-2016 00:00:00 3.35083 C 34.1750 %
599 18-12-2016 00:00:00 4.61167 C 41.6167 %
600 19-12-2016 00:00:00 3.69083 C 40.5917 %
Sensor: Nr:Datum:Temp:Feuchte:
Aussen-T/F 601 20-12-2016 00:00:00 -0.2625 C 40.4500 %
602 21-12-2016 00:00:00 1.50833 C 37.0917 %
603 22-12-2016 00:00:00 3.135 C 42.5833 %
604 23-12-2016 00:00:00 3.4975 C 50.4417 %
605 24-12-2016 00:00:00 6.43833 C 23.7750 %
606 25-12-2016 00:00:00 7.98083 C 27.9917 %
607 26-12-2016 00:00:00 6.85083 C 28.5167 %
608 27-12-2016 00:00:00 3.36083 C 31.3417 %
609 28-12-2016 00:00:00 2.765 C 32.3750 %
610 29-12-2016 00:00:00 -2.31583 C 49.4333 %
611 30-12-2016 00:00:00 -2.7975 C 45.7583 %
612 31-12-2016 00:00:00 -4.97167 C 40.1167 %
613 01-01-2017 00:00:00 -2.645 C 37.8583 %
614 02-01-2017 00:00:00 -0.26417 C 43.1250 %
615 03-01-2017 00:00:00 0.27717 C 59.5652 %
616 04-01-2017 00:00:00 2.4725 C 33.8417 %
617 05-01-2017 00:00:00 -1.62667 C 32.9833 %
618 06-01-2017 00:00:00 -8.04417 C 33.4250 %
619 07-01-2017 00:00:00 -5.00833 C 28.8833 %
620 08-01-2017 00:00:00 -0.27333 C 48.8667 %
621 09-01-2017 00:00:00 1.305 C 49.9167 %
622 10-01-2017 00:00:00 0.33833 C 54.5917 %
623 11-01-2017 00:00:00 2.7675 C 49.3083 %
624 12-01-2017 00:00:00 3.39 C 26.6583 %
625 13-01-2017 00:00:00 1.16833 C 32.4417 %
Sensor: Nr:Datum:Temp:Feuchte:
Aussen-T/F 626 14-01-2017 00:00:00 1.5625 C 26.2083 %
627 15-01-2017 00:00:00 -0.2875 C 38.9417 %
628 16-01-2017 00:00:00 -2.95333 C 40.8917 %
629 17-01-2017 00:00:00 -5.14333 C 33.6917 %
630 18-01-2017 00:00:00 -7.12917 C 33.7333 %
631 19-01-2017 00:00:00 -8.02917 C 34.5500 %
632 20-01-2017 00:00:00 -8.47167 C 31.5833 %
633 21-01-2017 00:00:00 -7.91167 C 34.8083 %
634 22-01-2017 00:00:00 -9.46417 C 33.6583 %
635 23-01-2017 00:00:00 -6.45667 C 35.5667 %
636 24-01-2017 00:00:00 -1.59917 C 36.1417 %
637 25-01-2017 00:00:00 -2.06134 C 21.1008 %
638 26-01-2017 00:00:00 -3.27167 C 23.9917 %
639 27-01-2017 00:00:00 -4.87833 C 33.7583 %
640 28-01-2017 00:00:00 -3.13417 C 35.4000 %
641 29-01-2017 00:00:00 1.74917 C 38.4417 %
642 30-01-2017 00:00:00 3.64583 C 50.8083 %
643 31-01-2017 00:00:00 2.45083 C 33.8167 %
644 01-02-2017 00:00:00 2.82417 C 29.1583 %
645 02-02-2017 00:00:00 3.84417 C 50.3250 %
646 03-02-2017 00:00:00 4.79833 C 53.5417 %
647 04-02-2017 00:00:00 4.85833 C 34.5500 %
648 05-02-2017 00:00:00 3.81333 C 37.2333 %
649 06-02-2017 00:00:00 2.905 C 39.3000 %
650 07-02-2017 00:00:00 3.68333 C 32.7000 %
Sensor: Nr:Datum:Temp:Feuchte:
Aussen-T/F 651 08-02-2017 00:00:00 2.47583 C 26.7500 %
652 09-02-2017 00:00:00 -0.87083 C 28.4083 %
653 10-02-2017 00:00:00 0.07583 C 21.2250 %
654 11-02-2017 00:00:00 1.1675 C 39.9583 %
655 12-02-2017 00:00:00 1.77167 C 49.6917 %
656 13-02-2017 00:00:00 2.44917 C 24.7083 %
657 14-02-2017 00:00:00 0.02083 C 31.7250 %
658 15-02-2017 00:00:00 0.65333 C 38.4083 %
659 16-02-2017 00:00:00 2.98583 C 54.9000 %
660 17-02-2017 00:00:00 5.05167 C 53.0917 %
661 18-02-2017 00:00:00 5.56917 C 38.1000 %
662 19-02-2017 00:00:00 2.74417 C 39.9417 %
663 20-02-2017 00:00:00 7.83667 C 30.5667 %
664 21-02-2017 00:00:00 9.77417 C 33.2917 %
665 22-02-2017 00:00:00 10.86167 C 22.7083 %
666 23-02-2017 00:00:00 8.95167 C 22.1250 %
667 24-02-2017 00:00:00 4.4525 C 26.0917 %
668 25-02-2017 00:00:00 3.06333 C 34.4667 %
669 26-02-2017 00:00:00 8.2025 C 22.5667 %
670 27-02-2017 00:00:00 10.56417 C 22.7417 %
671 28-02-2017 00:00:00 5.03667 C 25.5167 %
672 01-03-2017 00:00:00 6.07333 C 27.2250 %
673 02-03-2017 00:00:00 7.615 C 21.8417 %
674 03-03-2017 00:00:00 5.64417 C 27.7417 %
675 04-03-2017 00:00:00 10.41667 C 24.1750 %
Sensor: Nr:Datum:Temp:Feuchte:
Aussen-T/F 676 05-03-2017 00:00:00 6.48667 C 29.1917 %
677 06-03-2017 00:00:00 5.80083 C 30.7583 %
678 07-03-2017 00:00:00 5.375 C 37.1500 %
679 08-03-2017 00:00:00 4.1425 C 57.5333 %
680 09-03-2017 00:00:00 10.71 C 40.6917 %
681 10-03-2017 00:00:00 7.1775 C 21.1917 %
682 11-03-2017 00:00:00 5.8775 C 29.0333 %
683 12-03-2017 00:00:00 5.82167 C 27.9833 %
684 13-03-2017 00:00:00 5.775 C 26.7667 %
685 14-03-2017 00:00:00 8.80333 C 26.7000 %
686 15-03-2017 00:00:00 10.8 C 22.7333 %
687 16-03-2017 00:00:00 7.71667 C 32.6833 %
688 17-03-2017 00:00:00 8.33917 C 22.4167 %
689 18-03-2017 00:00:00 8.97583 C 28.3167 %
690 19-03-2017 00:00:00 12.0025 C 29.0167 %
691 20-03-2017 00:00:00 11.53917 C 20.0000 %
692 21-03-2017 00:00:00 8.86 C 25.1667 %
693 22-03-2017 00:00:00 5.1675 C 32.8583 %
694 23-03-2017 00:00:00 8.915 C 31.3000 %
695 24-03-2017 00:00:00 9.54583 C 23.0250 %
696 25-03-2017 00:00:00 9.54417 C 26.8417 %
697 26-03-2017 00:00:00 9.08696 C 20.0000 %
698 27-03-2017 00:00:00 8.34583 C 26.6083 %
699 28-03-2017 00:00:00 9.97417 C 22.6583 %
700 29-03-2017 00:00:00 12.77833 C 22.9417 %
Sensor: Nr:Datum:Temp:Feuchte:
Aussen-T/F 701 30-03-2017 00:00:00 14.22417 C 22.9833 %
702 31-03-2017 00:00:00 13.35333 C 29.3000 %
703 01-04-2017 00:00:00 13.83417 C 20.9000 %
704 02-04-2017 00:00:00 11.94167 C 24.9167 %
705 03-04-2017 00:00:00 10.62 C 26.7750 %
706 04-04-2017 00:00:00 9.20333 C 28.3417 %
707 05-04-2017 00:00:00 8.82333 C 22.4667 %
708 06-04-2017 00:00:00 9.21083 C 20.3667 %
709 07-04-2017 00:00:00 10.40583 C 23.0667 %
710 08-04-2017 00:00:00 13.42167 C 20.0917 %
711 09-04-2017 00:00:00 12.59 C 28.2250 %
712 10-04-2017 00:00:00 10.98833 C 23.4333 %
713 11-04-2017 00:00:00 10.6675 C 20.0000 %
714 12-04-2017 00:00:00 11.54667 C 20.0083 %
715 13-04-2017 00:00:00 12.27417 C 20.7667 %
716 14-04-2017 00:00:00 10.30417 C 22.3083 %
717 15-04-2017 00:00:00 8.6675 C 21.4500 %
718 16-04-2017 00:00:00 7.34417 C 23.7417 %
719 17-04-2017 00:00:00 6.805 C 28.0667 %
720 18-04-2017 00:00:00 5.69667 C 20.6333 %
721 19-04-2017 00:00:00 4.65667 C 28.3500 %
722 20-04-2017 00:00:00 6.6825 C 23.4667 %
723 21-04-2017 00:00:00 8.16917 C 22.1500 %
724 22-04-2017 00:00:00 9.88 C 20.0000 %
725 23-04-2017 00:00:00 7.65 C 20.5333 %
Sensor: Nr:Datum:Temp:Feuchte:
Aussen-T/F 726 24-04-2017 00:00:00 6.5875 C 27.3250 %
727 25-04-2017 00:00:00 7.13193 C 20.0000 %
728 26-04-2017 00:00:00 7.62583 C 20.1500 %
729 27-04-2017 00:00:00 7.74917 C 23.9083 %
730 28-04-2017 00:00:00 6.26083 C 27.3167 %
731 29-04-2017 00:00:00 9.68667 C 30.5750 %
732 30-04-2017 00:00:00 11.3975 C 20.0000 %
733 01-05-2017 00:00:00 9.75083 C 27.4250 %
734 02-05-2017 00:00:00 8.5825 C 45.3500 %
735 03-05-2017 00:00:00 10.7175 C 39.5000 %
736 04-05-2017 00:00:00 11.94833 C 30.7750 %
737 05-05-2017 00:00:00 12.685 C 23.2667 %
738 06-05-2017 00:00:00 13.30333 C 33.1667 %
739 07-05-2017 00:00:00 12.8375 C 37.3083 %
740 08-05-2017 00:00:00 9.69083 C 26.5500 %
741 09-05-2017 00:00:00 11.87667 C 24.9000 %
742 10-05-2017 00:00:00 11.33833 C 26.9167 %
743 11-05-2017 00:00:00 14.63833 C 25.1750 %
744 12-05-2017 00:00:00 16.395 C 30.7500 %
745 13-05-2017 00:00:00 18.05917 C 28.5167 %
746 14-05-2017 00:00:00 16.575 C 24.9333 %
747 15-05-2017 00:00:00 16.65 C 33.9583 %
748 16-05-2017 00:00:00 20.58167 C 20.0000 %
749 17-05-2017 00:00:00 21.33 C 20.8417 %
750 18-05-2017 00:00:00 18.02917 C 26.7583 %
Sensor: Nr:Datum:Temp:Feuchte:
Aussen-T/F 751 19-05-2017 00:00:00 13.17667 C 46.5833 %
752 20-05-2017 00:00:00 12.655 C 37.4083 %
753 21-05-2017 00:00:00 14.64917 C 29.2750 %
754 22-05-2017 00:00:00 17.3675 C 27.8667 %
755 23-05-2017 00:00:00 19.65167 C 23.7417 %
756 24-05-2017 00:00:00 17.405 C 20.4000 %
757 25-05-2017 00:00:00 20.29 C 21.8917 %
758 26-05-2017 00:00:00 19.73833 C 24.5250 %
759 27-05-2017 00:00:00 22.6075 C 24.8667 %
760 28-05-2017 00:00:00 21.81583 C 24.8250 %
761 29-05-2017 00:00:00 24.57833 C 34.4500 %
762 30-05-2017 00:00:00 22.94833 C 21.0500 %
763 31-05-2017 00:00:00 20.15917 C 21.0333 %
764 01-06-2017 00:00:00 20.24833 C 23.6500 %
765 02-06-2017 00:00:00 19.48083 C 25.5083 %
766 03-06-2017 00:00:00 19.46417 C 36.0000 %
767 04-06-2017 00:00:00 16.96583 C 37.9333 %
768 05-06-2017 00:00:00 17.975 C 34.7083 %
769 06-06-2017 00:00:00 16.04667 C 23.7250 %
770 07-06-2017 00:00:00 14.48333 C 20.5500 %
771 08-06-2017 00:00:00 19.25 C 21.2917 %
772 09-06-2017 00:00:00 18.0925 C 23.5250 %
773 10-06-2017 00:00:00 19.44 C 25.5417 %
774 11-06-2017 00:00:00 21.575 C 23.5750 %
775 12-06-2017 00:00:00 22.1675 C 20.1333 %
Sensor: Nr:Datum:Temp:Feuchte:
Aussen-T/F 776 13-06-2017 00:00:00 19.81833 C 20.2667 %
777 14-06-2017 00:00:00 20.985 C 24.1917 %
778 15-06-2017 00:00:00 22.28333 C 21.9500 %
779 16-06-2017 00:00:00 20.18667 C 20.0000 %
780 17-06-2017 00:00:00 18.07917 C 20.4667 %
781 18-06-2017 00:00:00 23.58667 C 21.1333 %
782 19-06-2017 00:00:00 24.0825 C 23.3000 %
783 20-06-2017 00:00:00 25.57083 C 21.0333 %
784 21-06-2017 00:00:00 27.36167 C 20.0000 %
785 22-06-2017 00:00:00 24.04083 C 25.6833 %
786 23-06-2017 00:00:00 23.645 C 21.6583 %
787 24-06-2017 00:00:00 21.56417 C 21.1667 %
788 25-06-2017 00:00:00 20.95 C 20.0000 %
789 26-06-2017 00:00:00 23.18333 C 20.0000 %
790 27-06-2017 00:00:00 19.20417 C 25.8000 %
791 28-06-2017 00:00:00 20.19167 C 37.8250 %
792 29-06-2017 00:00:00 18.5125 C 27.5083 %
793 30-06-2017 00:00:00 18.34833 C 22.5167 %
794 01-07-2017 00:00:00 16.22083 C 30.4250 %
795 02-07-2017 00:00:00 16.92 C 32.0250 %
796 03-07-2017 00:00:00 18.83333 C 27.3833 %
797 04-07-2017 00:00:00 21.9375 C 21.4833 %
798 05-07-2017 00:00:00 23.425 C 23.6833 %
799 06-07-2017 00:00:00 22.78417 C 24.7917 %
800 07-07-2017 00:00:00 24.54667 C 34.9667 %
Sensor: Nr:Datum:Temp:Feuchte:
Aussen-T/F 801 08-07-2017 00:00:00 24.04167 C 22.1750 %
802 09-07-2017 00:00:00 23.87667 C 21.6750 %
803 10-07-2017 00:00:00 19.995 C 36.4250 %
804 11-07-2017 00:00:00 19.97417 C 25.9167 %
805 12-07-2017 00:00:00 17.8025 C 27.7583 %
806 13-07-2017 00:00:00 17.10583 C 27.2083 %
807 14-07-2017 00:00:00 16.94333 C 24.9917 %
808 15-07-2017 00:00:00 17.56583 C 24.2833 %
809 16-07-2017 00:00:00 19.83833 C 21.7500 %
810 17-07-2017 00:00:00 22.11583 C 25.7917 %
811 18-07-2017 00:00:00 23.18917 C 26.1500 %
812 19-07-2017 00:00:00 24.29083 C 22.7083 %
813 20-07-2017 00:00:00 22.56083 C 28.0583 %
814 21-07-2017 00:00:00 21.25917 C 21.7417 %
815 22-07-2017 00:00:00 22.86083 C 31.7667 %
816 23-07-2017 00:00:00 19.16417 C 32.9917 %
817 24-07-2017 00:00:00 15.17 C 34.9083 %
818 25-07-2017 00:00:00 14.17917 C 53.8250 %
819 26-07-2017 00:00:00 17.7925 C 34.8833 %
820 27-07-2017 00:00:00 19.165 C 34.9917 %
821 28-07-2017 00:00:00 17.4625 C 30.7500 %
822 29-07-2017 00:00:00 20.93333 C 25.8500 %
823 30-07-2017 00:00:00 23.44917 C 24.9833 %
824 31-07-2017 00:00:00 21.3325 C 25.8250 %
825 01-08-2017 00:00:00 20.18333 C 47.5000 %
Sensor: Nr:Datum:Temp:Feuchte:
Aussen-T/F 826 02-08-2017 00:00:00 22.01833 C 35.3417 %
827 03-08-2017 00:00:00 21.82833 C 28.1250 %
828 04-08-2017 00:00:00 21.0775 C 24.1917 %
829 05-08-2017 00:00:00 19.94833 C 23.8417 %
830 06-08-2017 00:00:00 18.32583 C 25.1000 %
831 07-08-2017 00:00:00 17.93417 C 26.7083 %
832 08-08-2017 00:00:00 17.9375 C 27.5583 %
833 09-08-2017 00:00:00 18.1525 C 23.5583 %
834 10-08-2017 00:00:00 15.35 C 47.5833 %
835 11-08-2017 00:00:00 14.705 C 51.5167 %
836 12-08-2017 00:00:00 15.305 C 40.2750 %
837 13-08-2017 00:00:00 18.60917 C 28.7333 %
838 14-08-2017 00:00:00 18.56167 C 33.7917 %
839 15-08-2017 00:00:00 18.83833 C 38.5333 %
840 16-08-2017 00:00:00 19.97167 C 37.3917 %
841 17-08-2017 00:00:00 19.57167 C 33.3667 %
842 18-08-2017 00:00:00 18.17417 C 43.5167 %
843 19-08-2017 00:00:00 14.47417 C 43.3667 %
844 20-08-2017 00:00:00 14.925 C 30.8417 %
845 21-08-2017 00:00:00 16.3575 C 28.8917 %
846 22-08-2017 00:00:00 16.08833 C 31.8500 %
847 23-08-2017 00:00:00 17.92583 C 30.8917 %
848 24-08-2017 00:00:00 19.9075 C 26.1917 %
849 25-08-2017 00:00:00 18.30833 C 37.3750 %
850 26-08-2017 00:00:00 20.88833 C 44.3167 %
Sensor: Nr:Datum:Temp:Feuchte:
Aussen-T/F 851 27-08-2017 00:00:00 19.63083 C 34.5250 %
852 28-08-2017 00:00:00 19.4775 C 30.1667 %
853 29-08-2017 00:00:00 20.03667 C 34.9500 %
854 30-08-2017 00:00:00 20.91167 C 31.6750 %
855 31-08-2017 00:00:00 17.32857 C 27.5210 %
856 01-09-2017 00:00:00 14.1 C 34.5083 %
857 02-09-2017 00:00:00 14.51417 C 34.0667 %
858 03-09-2017 00:00:00 12.90417 C 31.6750 %
859 04-09-2017 00:00:00 13.94167 C 34.8750 %
860 05-09-2017 00:00:00 17.87 C 36.6833 %
861 06-09-2017 00:00:00 17.47083 C 25.8083 %
862 07-09-2017 00:00:00 15.90083 C 21.1083 %
863 08-09-2017 00:00:00 15.99583 C 20.6583 %
864 09-09-2017 00:00:00 14.54 C 39.9417 %
865 10-09-2017 00:00:00 13.27583 C 43.1833 %
866 11-09-2017 00:00:00 14.27083 C 26.4083 %
867 12-09-2017 00:00:00 14.32583 C 26.1417 %
868 13-09-2017 00:00:00 13.965 C 38.8333 %
869 14-09-2017 00:00:00 11.75417 C 39.2750 %
870 15-09-2017 00:00:00 12.5175 C 33.8750 %
871 16-09-2017 00:00:00 10.11333 C 40.9500 %
872 17-09-2017 00:00:00 9.67 C 51.4833 %
873 18-09-2017 00:00:00 10.46 C 46.2417 %
874 19-09-2017 00:00:00 11.76 C 32.8500 %
875 20-09-2017 00:00:00 11.29583 C 42.5167 %
Sensor: Nr:Datum:Temp:Feuchte:
Aussen-T/F 876 21-09-2017 00:00:00 10.49 C 44.7417 %
877 22-09-2017 00:00:00 11.12417 C 43.8917 %
878 23-09-2017 00:00:00 13.495 C 40.1917 %
879 24-09-2017 00:00:00 12.475 C 44.1417 %
880 25-09-2017 00:00:00 12.56583 C 44.0250 %
881 26-09-2017 00:00:00 13.27167 C 41.8333 %
882 27-09-2017 00:00:00 13.05083 C 43.9333 %
883 28-09-2017 00:00:00 14.64667 C 44.6000 %
884 29-09-2017 00:00:00 17.38667 C 38.5083 %
885 30-09-2017 00:00:00 14.205 C 48.5667 %
886 01-10-2017 00:00:00 10.23667 C 56.3000 %
887 02-10-2017 00:00:00 13.38833 C 43.6167 %
888 03-10-2017 00:00:00 12.20667 C 42.3667 %
889 04-10-2017 00:00:00 11.05583 C 31.0333 %
890 05-10-2017 00:00:00 12.92833 C 21.9667 %
891 06-10-2017 00:00:00 9.4 C 33.6250 %
892 07-10-2017 00:00:00 9.55083 C 31.6583 %
893 08-10-2017 00:00:00 11.81833 C 41.5417 %
894 09-10-2017 00:00:00 10.9925 C 47.1583 %
895 10-10-2017 00:00:00 12.88917 C 31.8167 %
896 11-10-2017 00:00:00 13.19167 C 31.2083 %
897 12-10-2017 00:00:00 13.13667 C 36.6500 %
898 13-10-2017 00:00:00 13.9275 C 38.7583 %
899 14-10-2017 00:00:00 12.47167 C 50.0167 %
900 15-10-2017 00:00:00 11.94833 C 54.6750 %
Sensor: Nr:Datum:Temp:Feuchte:
Aussen-T/F 901 16-10-2017 00:00:00 12.63333 C 51.4833 %
902 17-10-2017 00:00:00 12.20667 C 52.4250 %
903 18-10-2017 00:00:00 11.85333 C 50.4167 %
904 19-10-2017 00:00:00 11.0025 C 50.7750 %
905 20-10-2017 00:00:00 11.63697 C 37.7479 %
906 21-10-2017 00:00:00 11.28083 C 38.1917 %
907 22-10-2017 00:00:00 10.28417 C 24.4167 %
908 23-10-2017 00:00:00 10.42417 C 23.7667 %
909 24-10-2017 00:00:00 12.76333 C 33.7917 %
910 25-10-2017 00:00:00 15.1425 C 27.6500 %
911 26-10-2017 00:00:00 13.17917 C 29.2667 %
912 27-10-2017 00:00:00 10.80833 C 33.6167 %
913 28-10-2017 00:00:00 10.09833 C 24.5250 %
914 29-10-2017 00:00:00 10.1184 C 26.6160 %
915 30-10-2017 00:00:00 6.43917 C 30.2667 %
916 31-10-2017 00:00:00 7.06917 C 27.1250 %
917 01-11-2017 00:00:00 7.99917 C 24.8000 %
918 02-11-2017 00:00:00 7.76917 C 32.9583 %
919 03-11-2017 00:00:00 6.735 C 45.5833 %
920 04-11-2017 00:00:00 7.89167 C 53.2917 %
921 05-11-2017 00:00:00 8.26167 C 46.6500 %
922 06-11-2017 00:00:00 5.14 C 33.5917 %
923 07-11-2017 00:00:00 4.24333 C 45.0833 %
924 08-11-2017 00:00:00 6.0575 C 55.0333 %
925 09-11-2017 00:00:00 7.38917 C 46.1583 %
Sensor: Nr:Datum:Temp:Feuchte:
Aussen-T/F 926 10-11-2017 00:00:00 6.65917 C 26.9667 %
927 11-11-2017 00:00:00 5.63583 C 40.7000 %
928 12-11-2017 00:00:00 3.91583 C 58.4500 %
929 13-11-2017 00:00:00 4.73833 C 41.6917 %
930 14-11-2017 00:00:00 3.73417 C 47.8500 %
931 15-11-2017 00:00:00 6.5375 C 27.1083 %
932 16-11-2017 00:00:00 4.27833 C 39.8500 %
933 17-11-2017 00:00:00 5.2975 C 48.8250 %
934 18-11-2017 00:00:00 2.87083 C 39.8833 %
935 19-11-2017 00:00:00 4.78583 C 32.4167 %
936 20-11-2017 00:00:00 4.46917 C 31.8667 %
937 21-11-2017 00:00:00 8.65667 C 28.5833 %
938 22-11-2017 00:00:00 7.285 C 30.5250 %
939 23-11-2017 00:00:00 8.5175 C 46.0583 %
940 24-11-2017 00:00:00 9.68 C 41.3083 %
941 25-11-2017 00:00:00 4.5475 C 53.6583 %
942 26-11-2017 00:00:00 2.92583 C 28.8917 %
943 27-11-2017 00:00:00 4.8625 C 21.2917 %
944 28-11-2017 00:00:00 3.22667 C 51.1000 %
945 29-11-2017 00:00:00 2.265 C 55.6667 %
946 30-11-2017 00:00:00 1.60417 C 52.1417 %
947 01-12-2017 00:00:00 -0.2175 C 65.1167 %
948 02-12-2017 00:00:00 0.44833 C 41.3833 %
949 03-12-2017 00:00:00 -0.00667 C 31.2250 %
950 04-12-2017 00:00:00 2.29 C 46.3167 %
Sensor: Nr:Datum:Temp:Feuchte:
Aussen-T/F 951 05-12-2017 00:00:00 3.6025 C 38.3333 %
952 06-12-2017 00:00:00 5.19833 C 24.6583 %
953 07-12-2017 00:00:00 4.21333 C 22.9083 %
954 08-12-2017 00:00:00 2.61083 C 31.9250 %
955 09-12-2017 00:00:00 0.24417 C 20.0083 %
956 10-12-2017 00:00:00 1.39167 C 28.5667 %
957 11-12-2017 00:00:00 4.91083 C 48.9333 %
958 12-12-2017 00:00:00 2.8125 C 21.0417 %
959 13-12-2017 00:00:00 2.70083 C 32.0833 %
960 14-12-2017 00:00:00 3.58417 C 33.7083 %
961 15-12-2017 00:00:00 2.05167 C 59.1500 %
962 16-12-2017 00:00:00 2.14667 C 54.8167 %
963 17-12-2017 00:00:00 2.22583 C 28.7000 %
964 18-12-2017 00:00:00 0.71333 C 56.1333 %
965 19-12-2017 00:00:00 2.67 C 67.9667 %
966 20-12-2017 00:00:00 4.95083 C 67.4833 %
967 21-12-2017 00:00:00 6.82667 C 61.0083 %
968 22-12-2017 00:00:00 8.10417 C 67.4917 %
969 23-12-2017 00:00:00 8.1975 C 39.8417 %
970 24-12-2017 00:00:00 8.37583 C 20.1083 %
971 25-12-2017 00:00:00 6.34167 C 20.0583 %
972 26-12-2017 00:00:00 3.55917 C 38.0083 %
973 27-12-2017 00:00:00 4.2 C 40.9333 %
974 28-12-2017 00:00:00 2.28083 C 30.6667 %
975 29-12-2017 00:00:00 1.6 C 29.8333 %
Sensor: Nr:Datum:Temp:Feuchte:
Aussen-T/F 976 30-12-2017 00:00:00 6.22583 C 44.3250 %
977 31-12-2017 00:00:00 12.09667 C 23.3583 %
978 01-01-2018 00:00:00 7.035 C 28.9500 %
979 02-01-2018 00:00:00 5.395 C 28.4083 %
980 03-01-2018 00:00:00 7.40667 C 26.8250 %
981 04-01-2018 00:00:00 7.375 C 35.2167 %
982 05-01-2018 00:00:00 7.45583 C 34.5250 %
983 06-01-2018 00:00:00 5.4075 C 71.1333 %
984 07-01-2018 00:00:00 4.365 C 39.4167 %
985 08-01-2018 00:00:00 3.86417 C 21.1167 %
986 09-01-2018 00:00:00 4.01083 C 35.8167 %
987 10-01-2018 00:00:00 5.88833 C 39.9000 %
988 11-01-2018 00:00:00 6.29167 C 52.8750 %
989 12-01-2018 00:00:00 5.70083 C 50.0167 %
990 13-01-2018 00:00:00 4.70917 C 38.6750 %
991 14-01-2018 00:00:00 2.06917 C 25.5583 %
992 15-01-2018 00:00:00 2.675 C 35.7000 %
993 16-01-2018 00:00:00 5.00167 C 27.7500 %
994 17-01-2018 00:00:00 2.35 C 27.4500 %
995 18-01-2018 00:00:00 4.8775 C 25.4667 %
996 19-01-2018 00:00:00 2.92583 C 27.3750 %
997 20-01-2018 00:00:00 2.10833 C 38.1000 %
998 21-01-2018 00:00:00 1.73917 C 43.8167 %
999 22-01-2018 00:00:00 4.38583 C 45.1083 %
1000 23-01-2018 00:00:00 6.65593 C 27.4831 %
Sensor: Nr:Datum:Temp:Feuchte:
Aussen-T/F 1001 24-01-2018 00:00:00 10.79316 C 24.5470 %
1002 25-01-2018 00:00:00 9.13917 C 43.9750 %
1003 26-01-2018 00:00:00 5.89167 C 56.7333 %
1004 27-01-2018 00:00:00 4.26583 C 45.6667 %
1005 28-01-2018 00:00:00 6.63917 C 22.5333 %
1006 29-01-2018 00:00:00 9.275 C 22.7417 %
1007 30-01-2018 00:00:00 4.25333 C 35.1167 %
1008 31-01-2018 00:00:00 6.62917 C 32.6500 %
1009 01-02-2018 00:00:00 2.0675 C 36.1083 %
1010 02-02-2018 00:00:00 2.36417 C 31.6667 %
1011 03-02-2018 00:00:00 2.65042 C 30.2269 %
1012 04-02-2018 00:00:00 0.38667 C 29.6333 %
1013 05-02-2018 00:00:00 -0.98583 C 20.2500 %
1014 06-02-2018 00:00:00 -1.55167 C 25.9583 %
1015 07-02-2018 00:00:00 -0.79667 C 32.3833 %
1016 08-02-2018 00:00:00 -3.34333 C 28.9667 %
1017 09-02-2018 00:00:00 -2.8975 C 36.1833 %
1018 10-02-2018 00:00:00 1.41833 C 24.0167 %
1019 11-02-2018 00:00:00 2.22 C 26.3667 %
1020 12-02-2018 00:00:00 1.25083 C 34.8917 %
1021 13-02-2018 00:00:00 -1.44 C 29.8417 %
1022 14-02-2018 00:00:00 -3.14333 C 28.8667 %
1023 15-02-2018 00:00:00 0.80417 C 40.6583 %
1024 16-02-2018 00:00:00 0.98667 C 60.1667 %
1025 17-02-2018 00:00:00 -0.55 C 48.8833 %
Sensor: Nr:Datum:Temp:Feuchte:
Aussen-T/F 1026 18-02-2018 00:00:00 -2.16917 C 38.4250 %
1027 19-02-2018 00:00:00 0.37083 C 35.6500 %
1028 20-02-2018 00:00:00 -0.54083 C 33.3417 %
1029 21-02-2018 00:00:00 -0.04917 C 22.5333 %
1030 22-02-2018 00:00:00 -1.265 C 21.2167 %
1031 23-02-2018 00:00:00 -2.0175 C 20.0000 %
1032 24-02-2018 00:00:00 -2.72667 C 20.0000 %
1033 25-02-2018 00:00:00 -3.74417 C 20.0000 %
1034 26-02-2018 00:00:00 -5.06167 C 20.0000 %
1035 27-02-2018 00:00:00 -7.2225 C 20.3500 %
1036 28-02-2018 00:00:00 -7.98333 C 20.0000 %
1037 01-03-2018 00:00:00 -3.74917 C 20.0000 %
1038 02-03-2018 00:00:00 -2.59083 C 20.0917 %
1039 03-03-2018 00:00:00 -0.72083 C 28.3583 %
1040 04-03-2018 00:00:00 3.2 C 37.8833 %
1041 05-03-2018 00:00:00 5.22833 C 42.3583 %
1042 06-03-2018 00:00:00 4.25 C 40.7750 %
1043 07-03-2018 00:00:00 4.89167 C 43.0333 %
1044 08-03-2018 00:00:00 5.66417 C 23.5833 %
1045 09-03-2018 00:00:00 4.83667 C 41.9500 %
1046 10-03-2018 00:00:00 9.51333 C 45.7833 %
1047 11-03-2018 00:00:00 9.60833 C 40.1667 %
1048 12-03-2018 00:00:00 9.04083 C 37.0250 %
1049 13-03-2018 00:00:00 6.84083 C 24.1083 %
1050 14-03-2018 00:00:00 6.32917 C 26.1667 %
Sensor: Nr:Datum:Temp:Feuchte:
Aussen-T/F 1051 15-03-2018 00:00:00 5.73833 C 33.0750 %
1052 16-03-2018 00:00:00 7.00917 C 47.9667 %
1053 17-03-2018 00:00:00 -0.93917 C 20.2583 %
1054 18-03-2018 00:00:00 -2.1675 C 20.0000 %
1055 19-03-2018 00:00:00 -0.63417 C 20.0000 %
1056 20-03-2018 00:00:00 -0.4175 C 20.0167 %
1057 21-03-2018 00:00:00 0.5225 C 24.8500 %
1058 22-03-2018 00:00:00 2.45417 C 30.2000 %
1059 23-03-2018 00:00:00 5.83583 C 38.3250 %
1060 24-03-2018 00:00:00 4.74917 C 35.3167 %
1061 25-03-2018 00:00:00 4.60522 C 30.4870 %
1062 26-03-2018 00:00:00 7.34167 C 20.0250 %
1063 27-03-2018 00:00:00 5.52083 C 29.7083 %
1064 28-03-2018 00:00:00 8.02667 C 36.4167 %
1065 29-03-2018 00:00:00 6.93667 C 20.9833 %
1066 30-03-2018 00:00:00 6.38833 C 34.0000 %
1067 31-03-2018 00:00:00 7.84583 C 39.4917 %
1068 01-04-2018 00:00:00 7.26083 C 20.4250 %
1069 02-04-2018 00:00:00 8.7875 C 27.6500 %
1070 03-04-2018 00:00:00 13.26583 C 20.0000 %
1071 04-04-2018 00:00:00 10.6625 C 24.3500 %
1072 05-04-2018 00:00:00 7.485 C 30.3417 %
1073 06-04-2018 00:00:00 6.66833 C 35.5583 %
1074 07-04-2018 00:00:00 12.16083 C 22.7583 %
1075 08-04-2018 00:00:00 14.75333 C 22.3333 %
Sensor: Nr:Datum:Temp:Feuchte:
Aussen-T/F 1076 09-04-2018 00:00:00 13.84583 C 24.6917 %
1077 10-04-2018 00:00:00 12.68 C 28.0833 %
1078 11-04-2018 00:00:00 11.99333 C 34.9833 %
1079 12-04-2018 00:00:00 13.34833 C 37.0500 %
1080 13-04-2018 00:00:00 9.9075 C 32.0833 %
1081 14-04-2018 00:00:00 12.74 C 36.2167 %
1082 15-04-2018 00:00:00 14.41667 C 27.2750 %
1083 16-04-2018 00:00:00 13.76083 C 31.1917 %
1084 17-04-2018 00:00:00 14.02167 C 29.2083 %
1085 18-04-2018 00:00:00 15.74583 C 26.0333 %
1086 19-04-2018 00:00:00 17.22083 C 26.6000 %
1087 20-04-2018 00:00:00 17.00083 C 24.1667 %
1088 21-04-2018 00:00:00 18.43667 C 23.5750 %
1089 22-04-2018 00:00:00 18.55417 C 25.1083 %
1090 23-04-2018 00:00:00 18.66417 C 20.2833 %
1091 24-04-2018 00:00:00 14.27333 C 24.2167 %
1092 25-04-2018 00:00:00 13.4125 C 21.6750 %
1093 26-04-2018 00:00:00 11.21 C 20.0000 %
1094 27-04-2018 00:00:00 12.55083 C 22.6167 %
1095 28-04-2018 00:00:00 12.6075 C 23.1000 %
1096 29-04-2018 00:00:00 14.48167 C 29.9583 %
1097 30-04-2018 00:00:00 13.82167 C 24.6083 %
1098 01-05-2018 00:00:00 9.82667 C 20.0500 %
1099 02-05-2018 00:00:00 9.81083 C 27.0250 %
1100 03-05-2018 00:00:00 12.9575 C 23.3250 %
Sensor: Nr:Datum:Temp:Feuchte:
Aussen-T/F 1101 04-05-2018 00:00:00 13.49833 C 21.9583 %
1102 05-05-2018 00:00:00 15.83583 C 20.0667 %
1103 06-05-2018 00:00:00 17.25 C 20.1167 %
1104 07-05-2018 00:00:00 17.88167 C 21.1000 %
1105 08-05-2018 00:00:00 18.43583 C 22.6667 %
1106 09-05-2018 00:00:00 17.19333 C 22.2583 %
1107 10-05-2018 00:00:00 14.13917 C 25.9500 %
1108 11-05-2018 00:00:00 14.92083 C 27.9167 %
1109 12-05-2018 00:00:00 17.0825 C 28.2750 %
1110 13-05-2018 00:00:00 14.3425 C 37.0500 %
1111 14-05-2018 00:00:00 17.16333 C 35.6750 %
1112 15-05-2018 00:00:00 16.0375 C 27.9417 %
1113 16-05-2018 00:00:00 15.7475 C 27.4000 %
1114 17-05-2018 00:00:00 14.55667 C 23.4833 %
1115 18-05-2018 00:00:00 13.17083 C 21.1083 %
1116 19-05-2018 00:00:00 13.845 C 23.5250 %
1117 20-05-2018 00:00:00 14.06917 C 31.8333 %
1118 21-05-2018 00:00:00 17.55333 C 27.4333 %
1119 22-05-2018 00:00:00 17.09833 C 29.9833 %
1120 23-05-2018 00:00:00 17.23083 C 36.1833 %
1121 24-05-2018 00:00:00 17.22083 C 27.4917 %
1122 25-05-2018 00:00:00 20.19417 C 26.8083 %
1123 26-05-2018 00:00:00 21.1325 C 26.3667 %
1124 27-05-2018 00:00:00 20.4375 C 27.6917 %
1125 28-05-2018 00:00:00 21.70917 C 33.5833 %
Sensor: Nr:Datum:Temp:Feuchte:
Aussen-T/F 1126 29-05-2018 00:00:00 20.88333 C 27.1500 %
1127 30-05-2018 00:00:00 21.6725 C 28.2333 %
1128 31-05-2018 00:00:00 23.08167 C 20.2750 %
1129 01-06-2018 00:00:00 19.3725 C 29.3667 %
1130 02-06-2018 00:00:00 19.64917 C 23.6750 %
1131 03-06-2018 00:00:00 20.04167 C 24.8250 %
1132 04-06-2018 00:00:00 21.5125 C 24.5417 %
1133 05-06-2018 00:00:00 21.2475 C 22.2500 %
1134 06-06-2018 00:00:00 21.6775 C 24.0000 %
1135 07-06-2018 00:00:00 21.58667 C 22.6167 %
1136 08-06-2018 00:00:00 21.40167 C 24.3000 %
1137 09-06-2018 00:00:00 22.3959 C 23.5984 %
1138 10-06-2018 00:00:00 21.64333 C 33.3000 %
1139 11-06-2018 00:00:00 19.07083 C 41.7083 %
1140 12-06-2018 00:00:00 16.44167 C 37.5250 %
1141 13-06-2018 00:00:00 15.1 C 22.7000 %
1142 14-06-2018 00:00:00 15.48083 C 30.2917 %
1143 15-06-2018 00:00:00 17.9025 C 35.7250 %
1144 16-06-2018 00:00:00 20.2775 C 26.1583 %
1145 17-06-2018 00:00:00 18.42583 C 22.8083 %
1146 18-06-2018 00:00:00 18.235 C 21.9750 %
1147 19-06-2018 00:00:00 19.13333 C 25.5583 %
1148 20-06-2018 00:00:00 23.4825 C 24.4667 %
1149 21-06-2018 00:00:00 18.58 C 22.6500 %
1150 22-06-2018 00:00:00 14.12167 C 20.0000 %
Sensor: Nr:Datum:Temp:Feuchte:
Aussen-T/F 1151 23-06-2018 00:00:00 14.19167 C 21.2750 %
1152 24-06-2018 00:00:00 16.46667 C 22.7833 %
1153 25-06-2018 00:00:00 17.57167 C 21.5583 %
1154 26-06-2018 00:00:00 18.34083 C 24.8583 %
1155 27-06-2018 00:00:00 19.81083 C 24.3333 %
1156 28-06-2018 00:00:00 21.28417 C 20.6000 %
1157 29-06-2018 00:00:00 24.82417 C 20.0000 %
1158 30-06-2018 00:00:00 22.8375 C 20.4583 %
1159 01-07-2018 00:00:00 21.52333 C 20.0000 %
1160 02-07-2018 00:00:00 21.06583 C 20.0000 %
1161 03-07-2018 00:00:00 21.34917 C 20.0000 %
1162 04-07-2018 00:00:00 19.00917 C 27.2667 %
1163 05-07-2018 00:00:00 19.70667 C 33.6083 %
1164 06-07-2018 00:00:00 20.57333 C 25.0417 %
1165 07-07-2018 00:00:00 21.3521 C 23.5630 %
1166 08-07-2018 00:00:00 20.38417 C 21.0583 %
1167 09-07-2018 00:00:00 20.71083 C 21.4167 %
1168 10-07-2018 00:00:00 17.5975 C 22.4000 %
1169 11-07-2018 00:00:00 16.2875 C 33.6667 %
1170 12-07-2018 00:00:00 19.71583 C 32.5000 %
1171 13-07-2018 00:00:00 20.13 C 24.9667 %
1172 14-07-2018 00:00:00 22.01333 C 24.7500 %
1173 15-07-2018 00:00:00 22.10833 C 22.6333 %
1174 16-07-2018 00:00:00 23.10667 C 21.7167 %
1175 17-07-2018 00:00:00 21.59583 C 20.3583 %
Sensor: Nr:Datum:Temp:Feuchte:
Aussen-T/F 1176 18-07-2018 00:00:00 20.9475 C 22.7500 %
1177 19-07-2018 00:00:00 21.47667 C 21.5833 %
1178 20-07-2018 00:00:00 21.81583 C 20.1917 %
1179 21-07-2018 00:00:00 20.94083 C 22.6750 %
1180 22-07-2018 00:00:00 22.115 C 25.1500 %
1181 23-07-2018 00:00:00 22.98917 C 21.2167 %
1182 24-07-2018 00:00:00 24.11417 C 22.5833 %
1183 25-07-2018 00:00:00 25.90417 C 20.1583 %
1184 26-07-2018 00:00:00 27.54333 C 20.0167 %
1185 27-07-2018 00:00:00 26.46167 C 20.0000 %
1186 28-07-2018 00:00:00 22.24 C 22.3250 %
1187 29-07-2018 00:00:00 23.87667 C 23.3500 %
1188 30-07-2018 00:00:00 24.435 C 20.3250 %
1189 31-07-2018 00:00:00 25.8025 C 21.1500 %
1190 01-08-2018 00:00:00 20.68583 C 32.5500 %
1191 02-08-2018 00:00:00 24.12 C 31.7333 %
1192 03-08-2018 00:00:00 26.79583 C 20.9083 %
1193 04-08-2018 00:00:00 26.84 C 20.0667 %
1194 05-08-2018 00:00:00 25.5025 C 20.1667 %
1195 06-08-2018 00:00:00 24.4075 C 20.1500 %
1196 07-08-2018 00:00:00 26.99333 C 20.0000 %
1197 08-08-2018 00:00:00 25.83667 C 20.0000 %
1198 09-08-2018 00:00:00 20.8725 C 26.6583 %
1199 10-08-2018 00:00:00 18.73667 C 20.8917 %
1200 11-08-2018 00:00:00 18.76667 C 20.0000 %
Sensor: Nr:Datum:Temp:Feuchte:
Aussen-T/F 1201 12-08-2018 00:00:00 18.38667 C 21.9833 %
1202 13-08-2018 00:00:00 17.82083 C 28.9750 %
1203 14-08-2018 00:00:00 18.755 C 28.1167 %
1204 15-08-2018 00:00:00 19.59583 C 29.0833 %
1205 16-08-2018 00:00:00 20.84333 C 28.0000 %
1206 17-08-2018 00:00:00 20.11583 C 22.3500 %
1207 18-08-2018 00:00:00 19.2675 C 26.3417 %
1208 19-08-2018 00:00:00 20.68667 C 23.5250 %
1209 20-08-2018 00:00:00 21.20333 C 20.6833 %
1210 21-08-2018 00:00:00 22.2425 C 24.3417 %
1211 22-08-2018 00:00:00 23.51417 C 22.7667 %
1212 23-08-2018 00:00:00 23.22 C 23.0167 %
1213 24-08-2018 00:00:00 19.31833 C 20.6583 %
1214 25-08-2018 00:00:00 14.65417 C 21.6083 %
1215 26-08-2018 00:00:00 13.95083 C 28.0000 %
1216 27-08-2018 00:00:00 18.20917 C 20.3667 %
1217 28-08-2018 00:00:00 18.39833 C 20.7167 %
1218 29-08-2018 00:00:00 17.005 C 30.8917 %
1219 30-08-2018 00:00:00 17.4125 C 25.9167 %
1220 31-08-2018 00:00:00 15.33167 C 23.6000 %
1221 01-09-2018 00:00:00 14.445 C 26.6667 %
1222 02-09-2018 00:00:00 14.24833 C 24.8000 %
1223 03-09-2018 00:00:00 18.13417 C 22.9917 %
1224 04-09-2018 00:00:00 20.0425 C 27.0167 %
1225 05-09-2018 00:00:00 20.69 C 25.3083 %
Sensor: Nr:Datum:Temp:Feuchte:
Aussen-T/F 1226 06-09-2018 00:00:00 18.0925 C 32.7583 %
1227 07-09-2018 00:00:00 15.6675 C 33.8500 %
1228 08-09-2018 00:00:00 13.5425 C 30.5333 %
1229 09-09-2018 00:00:00 16.80833 C 23.2500 %
1230 10-09-2018 00:00:00 17.5025 C 23.9000 %
1231 11-09-2018 00:00:00 18.86667 C 26.0333 %
1232 12-09-2018 00:00:00 19.03167 C 24.0083 %
1233 13-09-2018 00:00:00 16.5775 C 25.7417 %
1234 14-09-2018 00:00:00 17.1375 C 25.2000 %
1235 15-09-2018 00:00:00 15.17 C 21.0833 %
1236 16-09-2018 00:00:00 14.51 C 27.7833 %
1237 17-09-2018 00:00:00 16.24583 C 25.3583 %
1238 18-09-2018 00:00:00 18.72833 C 26.0000 %
1239 19-09-2018 00:00:00 20.545 C 25.3250 %
1240 20-09-2018 00:00:00 19.08833 C 26.8417 %
1241 21-09-2018 00:00:00 15.91167 C 24.5750 %
1242 22-09-2018 00:00:00 12.6825 C 25.6333 %
1243 23-09-2018 00:00:00 12.18083 C 47.2250 %
1244 24-09-2018 00:00:00 9.66 C 36.3583 %
1245 25-09-2018 00:00:00 8.06417 C 42.7083 %
1246 26-09-2018 00:00:00 8.5625 C 35.2583 %
1247 27-09-2018 00:00:00 10.55833 C 35.5667 %
1248 28-09-2018 00:00:00 9.67833 C 43.7167 %
1249 29-09-2018 00:00:00 7.75083 C 41.1250 %
1250 30-09-2018 00:00:00 7.2475 C 35.9250 %
Sensor: Nr:Datum:Temp:Feuchte:
Aussen-T/F 1251 01-10-2018 00:00:00 9.41583 C 29.7833 %
1252 02-10-2018 00:00:00 8.87917 C 33.7167 %
1253 03-10-2018 00:00:00 11.93917 C 34.0750 %
1254 04-10-2018 00:00:00 9.37167 C 38.3000 %
1255 05-10-2018 00:00:00 10.05917 C 42.4917 %
1256 06-10-2018 00:00:00 12.08583 C 44.5417 %
1257 07-10-2018 00:00:00 12.625 C 37.2750 %
1258 08-10-2018 00:00:00 9.9775 C 39.4833 %
1259 09-10-2018 00:00:00 11.14583 C 44.1500 %
1260 10-10-2018 00:00:00 12.71667 C 45.8500 %
1261 11-10-2018 00:00:00 13.6775 C 40.8667 %
1262 12-10-2018 00:00:00 15.05417 C 38.8667 %
1263 13-10-2018 00:00:00 14.68833 C 38.8250 %
1264 14-10-2018 00:00:00 13.92083 C 36.1000 %
1265 15-10-2018 00:00:00 12.87417 C 37.7167 %
1266 16-10-2018 00:00:00 12.0325 C 38.6083 %
1267 17-10-2018 00:00:00 12.01333 C 41.5083 %
1268 18-10-2018 00:00:00 13.73917 C 38.0333 %
1269 19-10-2018 00:00:00 11.66417 C 37.7167 %
1270 20-10-2018 00:00:00 10.57167 C 36.9583 %
1271 21-10-2018 00:00:00 6.7725 C 44.7500 %
1272 22-10-2018 00:00:00 7.16833 C 43.7083 %
1273 23-10-2018 00:00:00 8.68 C 39.8083 %
1274 24-10-2018 00:00:00 13.58167 C 33.8333 %
1275 25-10-2018 00:00:00 12.74667 C 31.1083 %
Sensor: Nr:Datum:Temp:Feuchte:
Aussen-T/F 1276 26-10-2018 00:00:00 9.95417 C 28.9917 %
1277 27-10-2018 00:00:00 5.7925 C 48.4000 %
1278 28-10-2018 00:00:00 5.2 C 33.7840 %
1279 29-10-2018 00:00:00 5.97083 C 33.6667 %
1280 30-10-2018 00:00:00 5.80583 C 46.3667 %
1281 31-10-2018 00:00:00 6.87167 C 39.3333 %
1282 01-11-2018 00:00:00 5.49083 C 58.1333 %
1283 02-11-2018 00:00:00 8.22333 C 53.4750 %
1284 03-11-2018 00:00:00 3.10583 C 60.6667 %
1285 04-11-2018 00:00:00 6.64167 C 47.4000 %
1286 05-11-2018 00:00:00 9.7725 C 45.3417 %
1287 06-11-2018 00:00:00 7.78167 C 57.6917 %
1288 07-11-2018 00:00:00 8.4 C 54.3917 %
1289 08-11-2018 00:00:00 9.7 C 41.1583 %
1290 09-11-2018 00:00:00 8.83167 C 49.0500 %
1291 10-11-2018 00:00:00 11.32 C 42.0250 %
1292 11-11-2018 00:00:00 11.46583 C 47.7500 %
1293 12-11-2018 00:00:00 13.07917 C 44.0417 %
1294 13-11-2018 00:00:00 9.75583 C 50.0167 %
1295 14-11-2018 00:00:00 5.56917 C 61.4000 %
1296 15-11-2018 00:00:00 6.72833 C 38.5000 %
1297 16-11-2018 00:00:00 5.12667 C 41.4000 %
1298 17-11-2018 00:00:00 1.785 C 48.8667 %
1299 18-11-2018 00:00:00 0.80333 C 30.7417 %
1300 19-11-2018 00:00:00 2.95833 C 26.3167 %
Sensor: Nr:Datum:Temp:Feuchte:
Aussen-T/F 1301 20-11-2018 00:00:00 2.95167 C 25.6167 %
1302 21-11-2018 00:00:00 1.93 C 37.9750 %
1303 22-11-2018 00:00:00 2.22833 C 39.2750 %
1304 23-11-2018 00:00:00 -0.8425 C 54.2583 %
1305 24-11-2018 00:00:00 4.05833 C 58.0917 %
1306 25-11-2018 00:00:00 5.29 C 56.7917 %
1307 26-11-2018 00:00:00 6.09333 C 35.8583 %
1308 27-11-2018 00:00:00 3.6075 C 30.9583 %
1309 28-11-2018 00:00:00 2.97583 C 45.6917 %
1310 29-11-2018 00:00:00 4.98333 C 47.6917 %
1311 30-11-2018 00:00:00 6.67167 C 48.6583 %
1312 01-12-2018 00:00:00 6.67417 C 47.9750 %
1313 02-12-2018 00:00:00 10.59167 C 45.4750 %
1314 03-12-2018 00:00:00 11.02333 C 51.1333 %
1315 04-12-2018 00:00:00 5.62 C 45.3833 %
1316 05-12-2018 00:00:00 3.15546 C 56.8487 %
1317 06-12-2018 00:00:00 9.21333 C 47.7750 %
1318 07-12-2018 00:00:00 10.71583 C 33.9000 %
1319 08-12-2018 00:00:00 7.28083 C 37.2333 %
1320 09-12-2018 00:00:00 7.285 C 37.6917 %
1321 10-12-2018 00:00:00 3.9825 C 44.3833 %
1322 11-12-2018 00:00:00 2.87417 C 51.3500 %
1323 12-12-2018 00:00:00 2.0375 C 58.1583 %
1324 13-12-2018 00:00:00 0.49 C 37.0417 %
1325 14-12-2018 00:00:00 0.48 C 20.9833 %
Sensor: Nr:Datum:Temp:Feuchte:
Aussen-T/F 1326 15-12-2018 00:00:00 -0.09083 C 24.2083 %
1327 16-12-2018 00:00:00 0.045 C 43.8833 %
1328 17-12-2018 00:00:00 3.4775 C 51.8333 %
1329 18-12-2018 00:00:00 4.1675 C 41.5083 %
1330 19-12-2018 00:00:00 5.75 C 37.3000 %
1331 20-12-2018 00:00:00 6.87083 C 39.0583 %
1332 21-12-2018 00:00:00 10.1725 C 34.4750 %
1333 22-12-2018 00:00:00 9.26167 C 35.0083 %
1334 23-12-2018 00:00:00 7.89333 C 46.8500 %
1335 24-12-2018 00:00:00 4.10333 C 44.5000 %
1336 25-12-2018 00:00:00 1.0625 C 49.8500 %
1337 26-12-2018 00:00:00 -1.61083 C 52.7667 %
1338 27-12-2018 00:00:00 -0.68583 C 57.2917 %
1339 28-12-2018 00:00:00 -0.61667 C 51.7667 %
1340 29-12-2018 00:00:00 2.0175 C 45.4833 %
1341 30-12-2018 00:00:00 6.73917 C 37.6417 %
1342 31-12-2018 00:00:00 6.84917 C 56.5417 %
1343 01-01-2019 00:00:00 6.345 C 45.5833 %
1344 02-01-2019 00:00:00 2.72417 C 34.2083 %
1345 03-01-2019 00:00:00 1.28167 C 47.5833 %
1346 04-01-2019 00:00:00 2.41333 C 45.7833 %
1347 05-01-2019 00:00:00 5.14417 C 47.4583 %
1348 06-01-2019 00:00:00 5.0725 C 44.3083 %
1349 07-01-2019 00:00:00 4.8875 C 41.5500 %
1350 08-01-2019 00:00:00 5.74917 C 36.7000 %
Sensor: Nr:Datum:Temp:Feuchte:
Aussen-T/F 1351 09-01-2019 00:00:00 3.05083 C 34.6917 %
1352 10-01-2019 00:00:00 1.36 C 32.5417 %
1353 11-01-2019 00:00:00 2.05417 C 54.0417 %
1354 12-01-2019 00:00:00 5.01833 C 46.3583 %
1355 13-01-2019 00:00:00 6.9225 C 47.7417 %
1356 14-01-2019 00:00:00 4.06833 C 43.5667 %
1357 15-01-2019 00:00:00 4.06833 C 40.0333 %
1358 16-01-2019 00:00:00 4.52583 C 35.3417 %
1359 17-01-2019 00:00:00 4.27167 C 37.9583 %
1360 18-01-2019 00:00:00 -0.2025 C 49.3250 %
1361 19-01-2019 00:00:00 -3.87667 C 48.1333 %
1362 20-01-2019 00:00:00 -6.33 C 47.2250 %
1363 21-01-2019 00:00:00 -7.505 C 46.8917 %
1364 22-01-2019 00:00:00 -5.97917 C 44.1750 %
1365 23-01-2019 00:00:00 -2.435 C 39.5667 %
1366 24-01-2019 00:00:00 -2.72417 C 26.7667 %
1367 25-01-2019 00:00:00 -0.50917 C 39.3333 %
1368 26-01-2019 00:00:00 3.62167 C 45.9417 %
1369 27-01-2019 00:00:00 4.94833 C 43.1917 %
1370 28-01-2019 00:00:00 2.2025 C 45.2417 %
1371 29-01-2019 00:00:00 0.865 C 44.1667 %
1372 30-01-2019 00:00:00 -0.46833 C 49.8250 %
1373 31-01-2019 00:00:00 -1.03333 C 52.2750 %
1374 01-02-2019 00:00:00 0.72167 C 56.8333 %
1375 02-02-2019 00:00:00 1.59587 C 62.5950 %
Sensor: Nr:Datum:Temp:Feuchte:
Aussen-T/F 1376 03-02-2019 00:00:00 1.86583 C 40.0750 %
1377 04-02-2019 00:00:00 0.99417 C 40.5833 %
1378 05-02-2019 00:00:00 3.66167 C 30.5917 %
1379 06-02-2019 00:00:00 0.09417 C 46.8417 %
1380 07-02-2019 00:00:00 4.26083 C 38.9917 %
1381 08-02-2019 00:00:00 6.77417 C 31.6250 %
1382 09-02-2019 00:00:00 8.02083 C 28.8667 %
1383 10-02-2019 00:00:00 7.15083 C 39.6167 %
1384 11-02-2019 00:00:00 4.03667 C 38.3917 %
1385 12-02-2019 00:00:00 3.01917 C 38.2083 %
1386 13-02-2019 00:00:00 0.96333 C 46.8167 %
1387 14-02-2019 00:00:00 -0.46667 C 51.0250 %
1388 15-02-2019 00:00:00 0.9925 C 45.0667 %
1389 16-02-2019 00:00:00 1.9325 C 47.3750 %
1390 17-02-2019 00:00:00 2.17333 C 49.1333 %
1391 18-02-2019 00:00:00 2.31167 C 43.0500 %
1392 19-02-2019 00:00:00 4.89 C 40.9750 %
1393 20-02-2019 00:00:00 3.7725 C 45.5000 %
1394 21-02-2019 00:00:00 5.655 C 46.3667 %
1395 22-02-2019 00:00:00 9.27167 C 39.5167 %
1396 23-02-2019 00:00:00 4.58167 C 33.2583 %
1397 24-02-2019 00:00:00 2.29833 C 32.9417 %
1398 25-02-2019 00:00:00 3.65667 C 31.8250 %
1399 26-02-2019 00:00:00 4.75583 C 37.6333 %
1400 27-02-2019 00:00:00 5.17417 C 38.9250 %
Sensor: Nr:Datum:Temp:Feuchte:
Aussen-T/F 1401 28-02-2019 00:00:00 8.185 C 29.8833 %
1402 01-03-2019 00:00:00 7.515 C 43.8250 %
1403 02-03-2019 00:00:00 8.29333 C 34.1417 %
1404 03-03-2019 00:00:00 10.72417 C 28.1417 %
1405 04-03-2019 00:00:00 9.1575 C 27.8167 %
1406 05-03-2019 00:00:00 6.32167 C 30.8917 %
1407 06-03-2019 00:00:00 9.5125 C 32.3667 %
1408 07-03-2019 00:00:00 9.61917 C 28.3833 %
1409 08-03-2019 00:00:00 7.73167 C 28.8250 %
1410 09-03-2019 00:00:00 10.01667 C 26.3333 %
1411 10-03-2019 00:00:00 9.11083 C 30.1417 %
1412 11-03-2019 00:00:00 4.19667 C 30.2417 %
1413 12-03-2019 00:00:00 6.18083 C 27.8583 %
1414 13-03-2019 00:00:00 5.6775 C 31.5250 %
1415 14-03-2019 00:00:00 6.3325 C 38.0083 %
1416 15-03-2019 00:00:00 9.61417 C 37.6917 %
1417 16-03-2019 00:00:00 9.76833 C 35.9667 %
1418 17-03-2019 00:00:00 8.19083 C 26.8333 %
1419 18-03-2019 00:00:00 4.3225 C 36.6583 %
1420 19-03-2019 00:00:00 3.115 C 40.3583 %
1421 20-03-2019 00:00:00 4.81417 C 37.4250 %
1422 21-03-2019 00:00:00 6.76333 C 35.7167 %
1423 22-03-2019 00:00:00 8.43083 C 34.0750 %
1424 23-03-2019 00:00:00 5.40167 C 40.0083 %
1425 24-03-2019 00:00:00 5.90583 C 38.2167 %
Sensor: Nr:Datum:Temp:Feuchte:
Aussen-T/F 1426 25-03-2019 00:00:00 4.41583 C 37.7583 %
1427 26-03-2019 00:00:00 6.33417 C 32.9583 %
1428 27-03-2019 00:00:00 6.36583 C 35.3083 %
1429 28-03-2019 00:00:00 6.955 C 36.2417 %
1430 29-03-2019 00:00:00 8.44167 C 38.7750 %
1431 30-03-2019 00:00:00 10.07583 C 34.1833 %
1432 31-03-2019 00:00:00 9.90957 C 33.8174 %
1433 01-04-2019 00:00:00 8.9475 C 32.5750 %
1434 02-04-2019 00:00:00 10.5425 C 29.3083 %
1435 03-04-2019 00:00:00 7.865 C 38.6750 %
1436 04-04-2019 00:00:00 5.56833 C 48.7000 %
1437 05-04-2019 00:00:00 5.95417 C 48.0167 %
1438 06-04-2019 00:00:00 9.88333 C 42.1917 %
1439 07-04-2019 00:00:00 11.50833 C 36.8000 %
1440 08-04-2019 00:00:00 12.34417 C 33.9167 %
1441 09-04-2019 00:00:00 12.00333 C 40.7333 %
1442 10-04-2019 00:00:00 10.585 C 23.8417 %
1443 11-04-2019 00:00:00 6.52917 C 25.0583 %
1444 12-04-2019 00:00:00 4.68167 C 20.0000 %
1445 13-04-2019 00:00:00 3.585 C 24.4167 %
1446 14-04-2019 00:00:00 5.23833 C 34.7917 %
1447 15-04-2019 00:00:00 10.29167 C 25.8000 %
1448 16-04-2019 00:00:00 10.91333 C 23.2000 %
1449 17-04-2019 00:00:00 12.4 C 35.6083 %
1450 18-04-2019 00:00:00 13.7675 C 28.5500 %
Sensor: Nr:Datum:Temp:Feuchte:
Aussen-T/F 1451 19-04-2019 00:00:00 14.94917 C 24.5083 %
1452 20-04-2019 00:00:00 14.60167 C 27.5833 %
1453 21-04-2019 00:00:00 15.24333 C 24.6417 %
1454 22-04-2019 00:00:00 14.7825 C 27.5667 %
1455 23-04-2019 00:00:00 15.12667 C 20.1083 %
1456 24-04-2019 00:00:00 15.10083 C 30.7083 %
1457 25-04-2019 00:00:00 13.2425 C 38.0667 %
1458 26-04-2019 00:00:00 11.8 C 32.0000 %
1459 27-04-2019 00:00:00 9.01583 C 40.3667 %
1460 28-04-2019 00:00:00 8.43333 C 30.9750 %
1461 29-04-2019 00:00:00 8.62417 C 38.4083 %
1462 30-04-2019 00:00:00 13.94583 C 26.0833 %
1463 01-05-2019 00:00:00 13.03833 C 29.5000 %
1464 02-05-2019 00:00:00 12.08333 C 31.3667 %
1465 03-05-2019 00:00:00 11.20833 C 25.1500 %
1466 04-05-2019 00:00:00 6.17583 C 33.4500 %
1467 05-05-2019 00:00:00 6.66333 C 32.0417 %
1468 06-05-2019 00:00:00 7.6075 C 30.6583 %
1469 07-05-2019 00:00:00 9.645 C 28.6167 %
1470 08-05-2019 00:00:00 9.105 C 38.9750 %
1471 09-05-2019 00:00:00 11.085 C 36.9583 %
1472 10-05-2019 00:00:00 12.44538 C 33.3866 %
1473 11-05-2019 00:00:00 9.52833 C 47.9417 %
1474 12-05-2019 00:00:00 9.4 C 31.3083 %
1475 13-05-2019 00:00:00 9.985 C 30.9083 %
Sensor: Nr:Datum:Temp:Feuchte:
Aussen-T/F 1476 14-05-2019 00:00:00 9.66333 C 26.4333 %
1477 15-05-2019 00:00:00 10.57083 C 24.3500 %
1478 16-05-2019 00:00:00 10.61167 C 23.0917 %
1479 17-05-2019 00:00:00 11.4775 C 39.7250 %
1480 18-05-2019 00:00:00 14.67167 C 39.3500 %
1481 19-05-2019 00:00:00 15.91083 C 38.3750 %
1482 20-05-2019 00:00:00 13.655 C 37.8667 %
1483 21-05-2019 00:00:00 11.88167 C 45.6167 %
1484 22-05-2019 00:00:00 13.2875 C 33.7833 %
1485 23-05-2019 00:00:00 15.22667 C 33.1417 %
1486 24-05-2019 00:00:00 17.24 C 28.7500 %
1487 25-05-2019 00:00:00 15.89917 C 22.8167 %
1488 26-05-2019 00:00:00 16.26667 C 29.2667 %
1489 27-05-2019 00:00:00 14.66667 C 40.5417 %
1490 28-05-2019 00:00:00 14.29917 C 38.6250 %
1491 29-05-2019 00:00:00 15.28667 C 25.9000 %
1492 30-05-2019 00:00:00 15.82833 C 28.8250 %
1493 31-05-2019 00:00:00 19.45583 C 30.4167 %
1494 01-06-2019 00:00:00 20.21917 C 30.3583 %
1495 02-06-2019 00:00:00 22.16417 C 30.0500 %
1496 03-06-2019 00:00:00 21.1475 C 27.1667 %
1497 04-06-2019 00:00:00 21.80333 C 28.3333 %
1498 05-06-2019 00:00:00 23.57917 C 22.7833 %
1499 06-06-2019 00:00:00 16.14167 C 28.3667 %
1500 07-06-2019 00:00:00 16.10083 C 29.5250 %
Sensor: Nr:Datum:Temp:Feuchte:
Aussen-T/F 1501 08-06-2019 00:00:00 16.40917 C 20.2667 %
1502 09-06-2019 00:00:00 16.72333 C 27.7667 %
1503 10-06-2019 00:00:00 19.705 C 23.4750 %
1504 11-06-2019 00:00:00 17.38 C 32.4667 %
1505 12-06-2019 00:00:00 16.405 C 33.2917 %
1506 13-06-2019 00:00:00 16.27917 C 34.4333 %
1507 14-06-2019 00:00:00 18.17 C 35.6583 %
1508 15-06-2019 00:00:00 19.72583 C 33.0250 %
1509 16-06-2019 00:00:00 19.94417 C 24.9167 %
1510 17-06-2019 00:00:00 19.5125 C 29.1250 %
1511 18-06-2019 00:00:00 22.02333 C 27.1333 %
1512 19-06-2019 00:00:00 22.62583 C 27.6917 %
1513 20-06-2019 00:00:00 20 C 28.0167 %
1514 21-06-2019 00:00:00 19.3425 C 27.3333 %
1515 22-06-2019 00:00:00 19.82667 C 26.6167 %
1516 23-06-2019 00:00:00 22.3125 C 27.3750 %
1517 24-06-2019 00:00:00 24.96167 C 26.2167 %
1518 25-06-2019 00:00:00 26.83333 C 24.5583 %
1519 26-06-2019 00:00:00 27.635 C 23.0833 %
1520 27-06-2019 00:00:00 25.18917 C 20.6083 %
1521 28-06-2019 00:00:00 22.44833 C 23.4333 %
1522 29-06-2019 00:00:00 24.38417 C 22.1750 %
1523 30-06-2019 00:00:00 26.0575 C 22.2333 %
1524 01-07-2019 00:00:00 23.3825 C 20.0000 %
1525 02-07-2019 00:00:00 19.63333 C 21.8667 %
Sensor: Nr:Datum:Temp:Feuchte:
Aussen-T/F 1526 03-07-2019 00:00:00 18.14583 C 22.9833 %
1527 04-07-2019 00:00:00 18.95917 C 21.7583 %
1528 05-07-2019 00:00:00 21.28 C 20.0000 %
1529 06-07-2019 00:00:00 21.86 C 21.2917 %
1530 07-07-2019 00:00:00 17.9975 C 24.5833 %
1531 08-07-2019 00:00:00 14.77583 C 24.3917 %
1532 09-07-2019 00:00:00 15.65583 C 24.6667 %
1533 10-07-2019 00:00:00 17.64083 C 24.2083 %
1534 11-07-2019 00:00:00 17.65083 C 31.2583 %
1535 12-07-2019 00:00:00 17.16583 C 43.6333 %
1536 13-07-2019 00:00:00 17.9575 C 34.1250 %
1537 14-07-2019 00:00:00 17.12917 C 26.6667 %
1538 15-07-2019 00:00:00 16.56667 C 21.0917 %
1539 16-07-2019 00:00:00 16.26 C 28.0333 %
1540 17-07-2019 00:00:00 17.56833 C 29.2083 %
1541 18-07-2019 00:00:00 19.38333 C 28.1917 %
1542 19-07-2019 00:00:00 20.12667 C 31.9750 %
1543 20-07-2019 00:00:00 21.81667 C 30.3083 %
1544 21-07-2019 00:00:00 22.37333 C 25.8833 %
1545 22-07-2019 00:00:00 22.7225 C 26.2833 %
1546 23-07-2019 00:00:00 25.34083 C 25.5333 %
1547 24-07-2019 00:00:00 27.1975 C 24.2750 %
1548 25-07-2019 00:00:00 28.90167 C 21.7333 %
1549 26-07-2019 00:00:00 27.54417 C 21.2500 %
1550 27-07-2019 00:00:00 23.4375 C 26.6833 %
Sensor: Nr:Datum:Temp:Feuchte:
Aussen-T/F 1551 28-07-2019 00:00:00 19.93083 C 38.1333 %
1552 29-07-2019 00:00:00 21.45583 C 29.3333 %
1553 30-07-2019 00:00:00 22.35833 C 26.7167 %
1554 31-07-2019 00:00:00 21.48417 C 20.5333 %
1555 01-08-2019 00:00:00 19.83417 C 22.9750 %
1556 02-08-2019 00:00:00 20.8775 C 22.8500 %
1557 03-08-2019 00:00:00 20.77167 C 24.6333 %
1558 04-08-2019 00:00:00 21.00667 C 28.3000 %
1559 05-08-2019 00:00:00 22.56833 C 24.9167 %
1560 06-08-2019 00:00:00 20.0075 C 30.3333 %
1561 07-08-2019 00:00:00 19.10167 C 41.3833 %
1562 08-08-2019 00:00:00 20.55667 C 30.6417 %
1563 09-08-2019 00:00:00 19.73833 C 39.4583 %
1564 10-08-2019 00:00:00 20.72917 C 37.6833 %
1565 11-08-2019 00:00:00 17.03333 C 35.9000 %
1566 12-08-2019 00:00:00 16.51583 C 38.9833 %
1567 13-08-2019 00:00:00 16.10833 C 35.2833 %
1568 14-08-2019 00:00:00 16.6875 C 34.0417 %
1569 15-08-2019 00:00:00 17.20583 C 40.0250 %
1570 16-08-2019 00:00:00 17.84 C 34.2250 %
1571 17-08-2019 00:00:00 17.89333 C 38.0750 %
1572 18-08-2019 00:00:00 19.71833 C 44.5000 %
1573 19-08-2019 00:00:00 18.45167 C 33.8417 %
1574 20-08-2019 00:00:00 15.91167 C 33.3250 %
1575 21-08-2019 00:00:00 16.52917 C 33.4750 %
Sensor: Nr:Datum:Temp:Feuchte:
Aussen-T/F 1576 22-08-2019 00:00:00 17.12333 C 32.3667 %
1577 23-08-2019 00:00:00 18.31667 C 31.5083 %
1578 24-08-2019 00:00:00 19.36333 C 30.9833 %
1579 25-08-2019 00:00:00 21.54583 C 29.8917 %
1580 26-08-2019 00:00:00 22.17 C 33.4833 %
1581 27-08-2019 00:00:00 22.70333 C 35.1667 %
1582 28-08-2019 00:00:00 23.4425 C 30.4583 %
1583 29-08-2019 00:00:00 22.20333 C 28.3583 %
1584 30-08-2019 00:00:00 21.07 C 29.2583 %
1585 31-08-2019 00:00:00 21.975 C 30.7583 %
1586 01-09-2019 00:00:00 18.8525 C 26.8333 %
1587 02-09-2019 00:00:00 15.49333 C 28.2000 %
1588 03-09-2019 00:00:00 15.72917 C 28.0833 %
1589 04-09-2019 00:00:00 16.9525 C 33.9667 %
1590 05-09-2019 00:00:00 15.59 C 26.2917 %
1591 06-09-2019 00:00:00 13.58917 C 31.1917 %
1592 07-09-2019 00:00:00 12.6975 C 39.5000 %
1593 08-09-2019 00:00:00 12.7439 C 48.5935 %
1594 09-09-2019 00:00:00 15.23733 C 38.6667 %
1595 10-09-2019 00:00:00 12.20486 C 22.8264 %
1596 11-09-2019 00:00:00 13.35556 C 20.8472 %
1597 12-09-2019 00:00:00 19.325 C 20.0000 %
1598 13-09-2019 00:00:00 17.86806 C 20.1111 %
1599 14-09-2019 00:00:00 15.93333 C 22.4375 %
1600 15-09-2019 00:00:00 15.65694 C 21.2778 %
Sensor: Nr:Datum:Temp:Feuchte:
Aussen-T/F 1601 16-09-2019 00:00:00 16.21389 C 20.0000 %
1602 17-09-2019 00:00:00 15.87708 C 20.0000 %
1603 18-09-2019 00:00:00 11.47361 C 20.7917 %
1604 19-09-2019 00:00:00 10.53333 C 21.8194 %
1605 20-09-2019 00:00:00 10.80486 C 20.8472 %
1606 21-09-2019 00:00:00 12.45278 C 20.6597 %
1607 22-09-2019 00:00:00 14.78542 C 20.7500 %
1608 23-09-2019 00:00:00 16.6875 C 22.1528 %
1609 24-09-2019 00:00:00 13.94306 C 26.6319 %
1610 25-09-2019 00:00:00 15.31806 C 25.0417 %
1611 26-09-2019 00:00:00 16.10903 C 26.0000 %
1612 27-09-2019 00:00:00 16.23333 C 23.7708 %
1613 28-09-2019 00:00:00 15.40208 C 22.5833 %
1614 29-09-2019 00:00:00 16.05972 C 21.6597 %
1615 30-09-2019 00:00:00 15.48194 C 21.1319 %
1616 01-10-2019 00:00:00 15.84375 C 23.4931 %
1617 02-10-2019 00:00:00 12.57569 C 23.6111 %
1618 03-10-2019 00:00:00 9.35625 C 27.6944 %
1619 04-10-2019 00:00:00 10.03681 C 31.8403 %
1620 05-10-2019 00:00:00 10.32986 C 26.5903 %
1621 06-10-2019 00:00:00 7.85764 C 34.1250 %
1622 07-10-2019 00:00:00 9.80764 C 31.8819 %
1623 08-10-2019 00:00:00 12.35833 C 31.0694 %
1624 09-10-2019 00:00:00 11.56667 C 27.7431 %
1625 10-10-2019 00:00:00 11.49097 C 26.2153 %
Sensor: Nr:Datum:Temp:Feuchte:
Aussen-T/F 1626 11-10-2019 00:00:00 12.41458 C 28.8194 %
1627 12-10-2019 00:00:00 13.21111 C 29.6875 %
1628 13-10-2019 00:00:00 16.35417 C 28.4722 %
1629 14-10-2019 00:00:00 15.8125 C 27.6528 %
1630 15-10-2019 00:00:00 13.94028 C 29.8611 %
1631 16-10-2019 00:00:00 12.42153 C 29.2917 %
1632 17-10-2019 00:00:00 14.32708 C 27.4167 %
1633 18-10-2019 00:00:00 12.3125 C 29.7292 %
1634 19-10-2019 00:00:00 12.78194 C 28.2083 %
1635 20-10-2019 00:00:00 13.0875 C 34.7778 %
1636 21-10-2019 00:00:00 13.30486 C 29.2014 %
1637 22-10-2019 00:00:00 11.45 C 27.8819 %
1638 23-10-2019 00:00:00 10.68403 C 31.1181 %
1639 24-10-2019 00:00:00 13.85208 C 27.9236 %
1640 25-10-2019 00:00:00 13.1625 C 24.9444 %
1641 26-10-2019 00:00:00 12.72639 C 27.5417 %
1642 27-10-2019 00:00:00 9.68467 C 30.8733 %
1643 28-10-2019 00:00:00 5.91597 C 35.2014 %
1644 29-10-2019 00:00:00 6.21181 C 29.3264 %
1645 30-10-2019 00:00:00 2.93333 C 34.5347 %
1646 31-10-2019 00:00:00 1.41875 C 34.8333 %
1647 01-11-2019 00:00:00 5.44792 C 36.7292 %
1648 02-11-2019 00:00:00 12.8125 C 27.6458 %
1649 03-11-2019 00:00:00 11.45069 C 29.7639 %
1650 04-11-2019 00:00:00 9.88542 C 30.2153 %
Sensor: Nr:Datum:Temp:Feuchte:
Aussen-T/F 1651 05-11-2019 00:00:00 9.25069 C 27.4306 %
1652 06-11-2019 00:00:00 8.33542 C 34.7014 %
1653 07-11-2019 00:00:00 7.30278 C 33.8333 %
1654 08-11-2019 00:00:00 4.29028 C 37.7153 %
1655 09-11-2019 00:00:00 4.26806 C 33.1111 %
1656 10-11-2019 00:00:00 2.51319 C 34.9861 %
1657 11-11-2019 00:00:00 4.2 C 27.4792 %
1658 12-11-2019 00:00:00 5.41667 C 25.4792 %
1659 13-11-2019 00:00:00 4.93472 C 22.9861 %
1660 14-11-2019 00:00:00 4.86042 C 26.9861 %
1661 15-11-2019 00:00:00 4.08472 C 26.3333 %
1662 16-11-2019 00:00:00 1.19444 C 38.8125 %
1663 17-11-2019 00:00:00 2.39861 C 40.2708 %
1664 18-11-2019 00:00:00 3.51667 C 36.2847 %
1665 19-11-2019 00:00:00 3.06736 C 36.5833 %
1666 20-11-2019 00:00:00 0.75972 C 37.8403 %
1667 21-11-2019 00:00:00 1.18951 C 39.3846 %
1668 22-11-2019 00:00:00 3.65972 C 35.6806 %
1669 23-11-2019 00:00:00 4.64653 C 33.3889 %
1670 24-11-2019 00:00:00 1.99861 C 41.4722 %
1671 25-11-2019 00:00:00 4.16319 C 39.3681 %
1672 26-11-2019 00:00:00 7.75903 C 34.8472 %
1673 27-11-2019 00:00:00 9.72083 C 30.6875 %
1674 28-11-2019 00:00:00 10.55833 C 22.1319 %
1675 29-11-2019 00:00:00 5.75486 C 30.7639 %
Sensor: Nr:Datum:Temp:Feuchte:
Aussen-T/F 1676 30-11-2019 00:00:00 0.48194 C 42.0972 %
1677 01-12-2019 00:00:00 1.14236 C 33.0139 %
1678 02-12-2019 00:00:00 1.20556 C 36.2986 %
1679 03-12-2019 00:00:00 3.97431 C 39.2292 %
1680 04-12-2019 00:00:00 0.41389 C 41.6111 %
1681 05-12-2019 00:00:00 -2.03194 C 42.0972 %
1682 06-12-2019 00:00:00 2.6125 C 34.4722 %
1683 07-12-2019 00:00:00 8.20694 C 27.7292 %
1684 08-12-2019 00:00:00 9.69931 C 24.2778 %
1685 09-12-2019 00:00:00 7.09444 C 23.9722 %
1686 10-12-2019 00:00:00 2.37361 C 34.0000 %
1687 11-12-2019 00:00:00 3.12569 C 39.3056 %
1688 12-12-2019 00:00:00 2.64931 C 37.2500 %
1689 13-12-2019 00:00:00 3.25278 C 34.0069 %
1690 14-12-2019 00:00:00 6.22222 C 28.0625 %
1691 15-12-2019 00:00:00 7.24792 C 30.8958 %
1692 16-12-2019 00:00:00 7.47361 C 39.2986 %
1693 17-12-2019 00:00:00 9.69514 C 31.9653 %
1694 18-12-2019 00:00:00 6.95069 C 37.4792 %
1695 19-12-2019 00:00:00 4.60972 C 40.5417 %
1696 20-12-2019 00:00:00 6.87778 C 35.7847 %
1697 21-12-2019 00:00:00 6.42778 C 32.4306 %
1698 22-12-2019 00:00:00 7.57917 C 31.0556 %
1699 23-12-2019 00:00:00 7.34861 C 28.6111 %
1700 24-12-2019 00:00:00 7.20278 C 29.9097 %
Sensor: Nr:Datum:Temp:Feuchte:
Aussen-T/F 1701 25-12-2019 00:00:00 6.91944 C 32.8333 %
1702 26-12-2019 00:00:00 4.25278 C 40.6250 %
1703 27-12-2019 00:00:00 4.41181 C 36.8819 %
1704 28-12-2019 00:00:00 -1.22431 C 42.5000 %
1705 29-12-2019 00:00:00 -2.07708 C 39.8819 %
1706 30-12-2019 00:00:00 -1.99931 C 39.1319 %
1707 31-12-2019 00:00:00 -0.41736 C 39.5556 %
1708 01-01-2020 00:00:00 -0.10764 C 41.3403 %
1709 02-01-2020 00:00:00 0.98958 C 39.7014 %
1710 03-01-2020 00:00:00 7.00972 C 33.4653 %
1711 04-01-2020 00:00:00 4.78264 C 32.5903 %
1712 05-01-2020 00:00:00 5.21806 C 35.8750 %
1713 06-01-2020 00:00:00 2.11667 C 38.1667 %
1714 07-01-2020 00:00:00 4.43611 C 34.6944 %
1715 08-01-2020 00:00:00 7.71389 C 34.4167 %
1716 09-01-2020 00:00:00 10.33542 C 35.2292 %
1717 10-01-2020 00:00:00 8.27917 C 30.8958 %
1718 11-01-2020 00:00:00 3.61806 C 33.7639 %
1719 12-01-2020 00:00:00 4.57083 C 30.3889 %
1720 13-01-2020 00:00:00 5.88472 C 35.0903 %
1721 14-01-2020 00:00:00 9.28264 C 24.1181 %
1722 15-01-2020 00:00:00 10.27083 C 23.7500 %
1723 16-01-2020 00:00:00 7.07569 C 40.1944 %
1724 17-01-2020 00:00:00 5.27986 C 39.1944 %
1725 18-01-2020 00:00:00 3.79028 C 32.6042 %
Sensor: Nr:Datum:Temp:Feuchte:
Aussen-T/F 1726 19-01-2020 00:00:00 3.01389 C 40.8194 %
1727 20-01-2020 00:00:00 1.64861 C 39.3889 %
1728 21-01-2020 00:00:00 -2.675 C 44.7986 %
1729 22-01-2020 00:00:00 -1.95347 C 44.7153 %
1730 23-01-2020 00:00:00 0.53819 C 43.6458 %
1731 24-01-2020 00:00:00 0.81319 C 35.7222 %
1732 25-01-2020 00:00:00 1.99236 C 39.2014 %
1733 26-01-2020 00:00:00 2.13056 C 41.5625 %
1734 27-01-2020 00:00:00 5.48542 C 39.8264 %
1735 28-01-2020 00:00:00 5.07708 C 30.3750 %
1736 29-01-2020 00:00:00 4.20764 C 29.8611 %
1737 30-01-2020 00:00:00 7.57569 C 29.5694 %
1738 31-01-2020 00:00:00 12.86181 C 27.9167 %
1739 01-02-2020 00:00:00 11.16597 C 32.0972 %
1740 02-02-2020 00:00:00 9.925 C 31.1319 %
1741 03-02-2020 00:00:00 10.19236 C 29.5139 %
1742 04-02-2020 00:00:00 4.29514 C 36.4097 %
1743 05-02-2020 00:00:00 3.05069 C 37.1458 %
1744 06-02-2020 00:00:00 0.04514 C 42.7500 %
1745 07-02-2020 00:00:00 -0.30764 C 42.8264 %
1746 08-02-2020 00:00:00 1.01389 C 43.0069 %
1747 09-02-2020 00:00:00 8.36458 C 32.5764 %
1748 10-02-2020 00:00:00 7.85 C 31.3611 %
1749 11-02-2020 00:00:00 5.29167 C 24.6597 %
1750 12-02-2020 00:00:00 4.32083 C 30.5972 %
Sensor: Nr:Datum:Temp:Feuchte:
Aussen-T/F 1751 13-02-2020 00:00:00 3.32917 C 42.1250 %
1752 14-02-2020 00:00:00 5.46458 C 39.2639 %
1753 15-02-2020 00:00:00 5.89931 C 38.0278 %
1754 16-02-2020 00:00:00 14.44931 C 23.2431 %
1755 17-02-2020 00:00:00 8.25903 C 32.4167 %
1756 18-02-2020 00:00:00 6.89097 C 31.0347 %
1757 19-02-2020 00:00:00 5.73889 C 30.1875 %
1758 20-02-2020 00:00:00 7.7125 C 32.9722 %
1759 21-02-2020 00:00:00 4.71042 C 33.5972 %
1760 22-02-2020 00:00:00 7.67986 C 30.0347 %
1761 23-02-2020 00:00:00 10.01389 C 35.3403 %
1762 24-02-2020 00:00:00 7.74653 C 36.3194 %
1763 25-02-2020 00:00:00 8.81597 C 32.2778 %
1764 26-02-2020 00:00:00 4.37431 C 33.6806 %
1765 27-02-2020 00:00:00 2.22153 C 41.6806 %
1766 28-02-2020 00:00:00 3.52431 C 38.4514 %
1767 29-02-2020 00:00:00 8.60556 C 34.8889 %
1768 01-03-2020 00:00:00 7.15694 C 36.0000 %
1769 02-03-2020 00:00:00 5.99375 C 40.1667 %
1770 03-03-2020 00:00:00 4.26806 C 39.6458 %
1771 04-03-2020 00:00:00 5.28958 C 37.5764 %
1772 05-03-2020 00:00:00 5.45764 C 43.0833 %
1773 06-03-2020 00:00:00 5.63958 C 40.4931 %
1774 07-03-2020 00:00:00 6.26458 C 33.7569 %
1775 08-03-2020 00:00:00 9.46458 C 32.2361 %
Sensor: Nr:Datum:Temp:Feuchte:
Aussen-T/F 1776 09-03-2020 00:00:00 7.81875 C 35.4514 %
1777 10-03-2020 00:00:00 9.06181 C 39.4514 %
1778 11-03-2020 00:00:00 14.0375 C 35.2639 %
1779 12-03-2020 00:00:00 11.01597 C 30.3681 %
1780 13-03-2020 00:00:00 6.99236 C 33.4236 %
1781 14-03-2020 00:00:00 5.89028 C 38.1667 %
1782 15-03-2020 00:00:00 9.14653 C 32.2153 %
1783 16-03-2020 00:00:00 9.43264 C 35.6667 %
1784 17-03-2020 00:00:00 12.02708 C 33.7847 %
1785 18-03-2020 00:00:00 9.92639 C 36.2153 %
1786 19-03-2020 00:00:00 12.58194 C 32.0417 %
1787 20-03-2020 00:00:00 10.52657 C 36.2308 %
1788 21-03-2020 00:00:00 5.89653 C 34.6597 %
1789 22-03-2020 00:00:00 4.30139 C 28.5278 %
1790 23-03-2020 00:00:00 3.12292 C 27.0764 %
1791 24-03-2020 00:00:00 2.82431 C 27.8403 %
1792 25-03-2020 00:00:00 3.67014 C 25.0486 %
1793 26-03-2020 00:00:00 5.25486 C 23.4931 %
1794 27-03-2020 00:00:00 8.10139 C 29.8819 %
1795 28-03-2020 00:00:00 9.69236 C 30.9306 %
1796 29-03-2020 00:00:00 5.0942 C 30.1377 %
1797 30-03-2020 00:00:00 2.89028 C 29.9167 %
1798 31-03-2020 00:00:00 5.79792 C 30.1528 %
1799 01-04-2020 00:00:00 4.16111 C 29.6944 %
1800 02-04-2020 00:00:00 5.26806 C 31.1944 %
Sensor: Nr:Datum:Temp:Feuchte:
Aussen-T/F 1801 03-04-2020 00:00:00 7.93542 C 28.5069 %
1802 04-04-2020 00:00:00 6.89375 C 31.8958 %
1803 05-04-2020 00:00:00 9.74514 C 32.0625 %
1804 06-04-2020 00:00:00 12.17708 C 29.7431 %
1805 07-04-2020 00:00:00 14.2875 C 28.9028 %
1806 08-04-2020 00:00:00 15.02153 C 31.1528 %
1807 09-04-2020 00:00:00 15.89514 C 27.6458 %
1808 10-04-2020 00:00:00 14.80972 C 29.8333 %
1809 11-04-2020 00:00:00 14.775 C 25.4861 %
1810 12-04-2020 00:00:00 15.71319 C 27.3056 %
1811 13-04-2020 00:00:00 9.43542 C 29.6944 %
1812 14-04-2020 00:00:00 6.54583 C 28.1042 %
1813 15-04-2020 00:00:00 9.17222 C 30.8750 %
1814 16-04-2020 00:00:00 13.09792 C 29.6667 %
1815 17-04-2020 00:00:00 15.68056 C 30.2500 %
1816 18-04-2020 00:00:00 14.81597 C 32.5000 %
1817 19-04-2020 00:00:00 13.35694 C 32.8889 %
1818 20-04-2020 00:00:00 12.80069 C 22.9861 %
1819 21-04-2020 00:00:00 13.68472 C 21.3889 %
1820 22-04-2020 00:00:00 14.69375 C 23.2153 %
1821 23-04-2020 00:00:00 14.90347 C 25.2917 %
1822 24-04-2020 00:00:00 14.72361 C 27.0278 %
1823 25-04-2020 00:00:00 13.03611 C 25.6597 %
1824 26-04-2020 00:00:00 12.22917 C 31.0069 %
1825 27-04-2020 00:00:00 13.17153 C 29.7431 %
Sensor: Nr:Datum:Temp:Feuchte:
Aussen-T/F 1826 28-04-2020 00:00:00 12.62153 C 36.5556 %
1827 29-04-2020 00:00:00 14.57569 C 31.0903 %
Sensor: Nr:Datum:Temp:Feuchte:
G-T/H 1 30-04-2015 00:00:00 12.04333 C 65.8333 %
2 01-05-2015 00:00:00 11.29333 C 65.6917 %
3 02-05-2015 00:00:00 11.58667 C 59.4000 %
4 03-05-2015 00:00:00 12.69833 C 65.7750 %
5 04-05-2015 00:00:00 13.4175 C 68.9250 %
6 05-05-2015 00:00:00 14.60308 C 69.0000 %
7 06-05-2015 00:00:00 14.5625 C 64.7667 %
8 07-05-2015 00:00:00 13.93583 C 63.4917 %
9 08-05-2015 00:00:00 13.885 C 63.8667 %
10 09-05-2015 00:00:00 14.42583 C 67.1250 %
11 10-05-2015 00:00:00 14.335 C 68.0333 %
12 11-05-2015 00:00:00 14.62917 C 68.3000 %
13 12-05-2015 00:00:00 15.545 C 69.8000 %
14 13-05-2015 00:00:00 14.80917 C 61.9917 %
15 14-05-2015 00:00:00 14.8 C 64.8583 %
16 15-05-2015 00:00:00 14.81083 C 67.7083 %
17 16-05-2015 00:00:00 14.17583 C 64.5750 %
18 17-05-2015 00:00:00 14.19833 C 66.5000 %
19 18-05-2015 00:00:00 14.45917 C 65.1583 %
20 19-05-2015 00:00:00 14.70336 C 62.5882 %
21 20-05-2015 00:00:00 14.285 C 61.3583 %
22 21-05-2015 00:00:00 13.67167 C 60.8917 %
23 22-05-2015 00:00:00 14.2 C 62.6500 %
24 23-05-2015 00:00:00 15.09417 C 64.1833 %
25 24-05-2015 00:00:00 15.51167 C 66.0667 %
Sensor: Nr:Datum:Temp:Feuchte:
G-T/H 26 25-05-2015 00:00:00 15.44167 C 67.6833 %
27 26-05-2015 00:00:00 14.56583 C 64.3667 %
28 27-05-2015 00:00:00 13.92167 C 61.9000 %
29 28-05-2015 00:00:00 14.09667 C 63.4417 %
30 29-05-2015 00:00:00 14.41083 C 66.2083 %
31 30-05-2015 00:00:00 14.2725 C 64.4167 %
32 31-05-2015 00:00:00 13.905 C 62.9500 %
33 01-06-2015 00:00:00 15 C 67.3083 %
34 02-06-2015 00:00:00 15.0325 C 66.7583 %
35 03-06-2015 00:00:00 15.72083 C 67.7250 %
36 04-06-2015 00:00:00 16.01917 C 67.6000 %
37 05-06-2015 00:00:00 17.0325 C 68.6917 %
38 06-06-2015 00:00:00 18.33167 C 69.6917 %
39 07-06-2015 00:00:00 17.33583 C 63.9667 %
40 08-06-2015 00:00:00 16.80667 C 62.2833 %
41 09-06-2015 00:00:00 16.3075 C 60.2500 %
42 10-06-2015 00:00:00 15.97333 C 63.2417 %
43 11-06-2015 00:00:00 17.04083 C 65.1750 %
44 12-06-2015 00:00:00 17.6475 C 66.8667 %
45 13-06-2015 00:00:00 17.74417 C 69.4250 %
46 14-06-2015 00:00:00 17.46333 C 68.0500 %
47 15-06-2015 00:00:00 17.66333 C 67.1417 %
48 16-06-2015 00:00:00 17.08667 C 62.2083 %
49 17-06-2015 00:00:00 16.53083 C 59.9583 %
50 18-06-2015 00:00:00 16.97917 C 64.2333 %
Sensor: Nr:Datum:Temp:Feuchte:
G-T/H 51 19-06-2015 00:00:00 16.2025 C 63.4083 %
52 20-06-2015 00:00:00 15.62667 C 66.2917 %
53 21-06-2015 00:00:00 15.70413 C 68.0579 %
54 22-06-2015 00:00:00 15.6825 C 68.9417 %
55 23-06-2015 00:00:00 14.70917 C 69.2083 %
56 24-06-2015 00:00:00 14.74417 C 70.1583 %
57 25-06-2015 00:00:00 15.75583 C 70.2250 %
58 26-06-2015 00:00:00 16.96 C 70.9417 %
59 27-06-2015 00:00:00 18.00603 C 70.2500 %
60 28-06-2015 00:00:00 17.55833 C 67.8250 %
61 29-06-2015 00:00:00 18.61083 C 67.1667 %
62 30-06-2015 00:00:00 18.97333 C 65.3917 %
63 01-07-2015 00:00:00 19.56417 C 65.4833 %
64 02-07-2015 00:00:00 20.71917 C 67.3083 %
65 03-07-2015 00:00:00 22.09333 C 67.5333 %
66 04-07-2015 00:00:00 23.02333 C 66.0667 %
67 05-07-2015 00:00:00 23.00667 C 66.4583 %
68 06-07-2015 00:00:00 21.73583 C 63.1500 %
69 07-07-2015 00:00:00 20.9225 C 64.1583 %
70 08-07-2015 00:00:00 20.17417 C 62.1917 %
71 09-07-2015 00:00:00 18.86667 C 60.0250 %
72 10-07-2015 00:00:00 18.11167 C 57.7167 %
73 11-07-2015 00:00:00 20.0325 C 52.9917 %
74 12-07-2015 00:00:00 19.95167 C 59.6083 %
75 13-07-2015 00:00:00 18.8825 C 64.7917 %
Sensor: Nr:Datum:Temp:Feuchte:
G-T/H 76 14-07-2015 00:00:00 18.82833 C 67.3417 %
77 15-07-2015 00:00:00 20.49667 C 63.8917 %
78 16-07-2015 00:00:00 20.81917 C 66.0000 %
79 17-07-2015 00:00:00 23.54583 C 55.9833 %
80 18-07-2015 00:00:00 22.705 C 60.1667 %
81 19-07-2015 00:00:00 21.30417 C 63.4167 %
82 20-07-2015 00:00:00 21.16667 C 70.0917 %
83 21-07-2015 00:00:00 22.84 C 66.7833 %
84 22-07-2015 00:00:00 23.2075 C 64.8667 %
85 23-07-2015 00:00:00 22.08917 C 55.4167 %
86 24-07-2015 00:00:00 21.55833 C 57.6333 %
87 25-07-2015 00:00:00 20.4825 C 59.9167 %
88 26-07-2015 00:00:00 18.76387 C 59.6723 %
89 27-07-2015 00:00:00 18.50833 C 64.7833 %
90 28-07-2015 00:00:00 18.6175 C 55.4750 %
91 29-07-2015 00:00:00 18.64917 C 50.9833 %
92 30-07-2015 00:00:00 17.90333 C 55.0083 %
93 31-07-2015 00:00:00 17.51667 C 56.3750 %
94 01-08-2015 00:00:00 17.9775 C 60.4250 %
95 02-08-2015 00:00:00 19.4225 C 58.7000 %
96 03-08-2015 00:00:00 20.1325 C 58.5833 %
97 04-08-2015 00:00:00 20.325 C 61.9083 %
98 05-08-2015 00:00:00 19.47833 C 64.3583 %
99 06-08-2015 00:00:00 20.25917 C 64.3583 %
100 07-08-2015 00:00:00 21.64083 C 65.0917 %
Sensor: Nr:Datum:Temp:Feuchte:
G-T/H 101 08-08-2015 00:00:00 22.08917 C 67.8167 %
102 09-08-2015 00:00:00 21.58083 C 67.9583 %
103 10-08-2015 00:00:00 21.44333 C 67.1417 %
104 11-08-2015 00:00:00 20.96333 C 67.0833 %
105 12-08-2015 00:00:00 21.32417 C 68.4000 %
106 13-08-2015 00:00:00 21.7175 C 68.6917 %
107 14-08-2015 00:00:00 22.36583 C 68.3750 %
108 15-08-2015 00:00:00 21.69333 C 66.6833 %
109 16-08-2015 00:00:00 20.2775 C 67.3583 %
110 17-08-2015 00:00:00 18.54417 C 68.6917 %
111 18-08-2015 00:00:00 18.02417 C 65.2417 %
112 19-08-2015 00:00:00 17.90417 C 60.9667 %
113 20-08-2015 00:00:00 19.13083 C 58.4750 %
114 21-08-2015 00:00:00 19.29417 C 60.4167 %
115 22-08-2015 00:00:00 18.915 C 60.9667 %
116 23-08-2015 00:00:00 18.9 C 61.1250 %
117 24-08-2015 00:00:00 19.19083 C 65.2833 %
118 25-08-2015 00:00:00 18.72667 C 64.5750 %
119 26-08-2015 00:00:00 18.58917 C 65.1833 %
120 27-08-2015 00:00:00 19.03083 C 67.3000 %
121 28-08-2015 00:00:00 18.38333 C 69.0250 %
122 29-08-2015 00:00:00 18.38417 C 70.4583 %
123 30-08-2015 00:00:00 19.39 C 72.3917 %
124 31-08-2015 00:00:00 20.6975 C 69.4083 %
125 01-09-2015 00:00:00 20.15 C 70.1583 %
Sensor: Nr:Datum:Temp:Feuchte:
G-T/H 126 02-09-2015 00:00:00 18.33167 C 68.7667 %
127 03-09-2015 00:00:00 17.54583 C 67.2417 %
128 04-09-2015 00:00:00 16.6275 C 64.0667 %
129 05-09-2015 00:00:00 14.8325 C 67.1583 %
130 06-09-2015 00:00:00 15.50833 C 66.5667 %
131 07-09-2015 00:00:00 15.67333 C 69.1250 %
132 08-09-2015 00:00:00 16.0075 C 71.3833 %
133 09-09-2015 00:00:00 16.68 C 65.9000 %
134 10-09-2015 00:00:00 15.92 C 64.2000 %
135 11-09-2015 00:00:00 15.59583 C 63.3917 %
136 12-09-2015 00:00:00 15.57 C 65.8583 %
137 13-09-2015 00:00:00 16.57667 C 71.0667 %
138 14-09-2015 00:00:00 16.69 C 71.9500 %
139 15-09-2015 00:00:00 15.7175 C 69.5500 %
140 16-09-2015 00:00:00 15.56417 C 72.2167 %
141 17-09-2015 00:00:00 15.93583 C 73.4417 %
142 18-09-2015 00:00:00 15.6125 C 73.4833 %
143 19-09-2015 00:00:00 15.85667 C 71.3750 %
144 20-09-2015 00:00:00 15.74917 C 72.2333 %
145 21-09-2015 00:00:00 15.62167 C 69.7583 %
146 22-09-2015 00:00:00 15.61417 C 71.9750 %
147 23-09-2015 00:00:00 14.74167 C 72.0667 %
148 24-09-2015 00:00:00 15.12083 C 72.9833 %
149 25-09-2015 00:00:00 15.3225 C 73.5083 %
150 26-09-2015 00:00:00 15.25667 C 72.2500 %
Sensor: Nr:Datum:Temp:Feuchte:
G-T/H 151 27-09-2015 00:00:00 14.47833 C 70.7250 %
152 28-09-2015 00:00:00 13.82083 C 63.8500 %
153 29-09-2015 00:00:00 13.9225 C 64.3833 %
154 30-09-2015 00:00:00 13.78667 C 63.5833 %
155 01-10-2015 00:00:00 12.79667 C 62.8583 %
156 02-10-2015 00:00:00 11.94833 C 64.4333 %
157 03-10-2015 00:00:00 12.395 C 70.0000 %
158 04-10-2015 00:00:00 13.28417 C 73.1000 %
159 05-10-2015 00:00:00 13.6925 C 73.3583 %
160 06-10-2015 00:00:00 14.75417 C 74.7000 %
161 07-10-2015 00:00:00 15.23833 C 74.9833 %
162 08-10-2015 00:00:00 15.18667 C 73.9750 %
163 09-10-2015 00:00:00 14.90167 C 74.2417 %
164 10-10-2015 00:00:00 14.54667 C 73.4250 %
165 11-10-2015 00:00:00 13.0525 C 61.8500 %
166 12-10-2015 00:00:00 11.29 C 60.7667 %
167 13-10-2015 00:00:00 10.26417 C 62.5750 %
168 14-10-2015 00:00:00 10.07 C 64.2000 %
169 15-10-2015 00:00:00 10.03 C 67.6500 %
170 16-10-2015 00:00:00 10.35583 C 70.7583 %
171 17-10-2015 00:00:00 10.84417 C 70.2250 %
172 18-10-2015 00:00:00 11.1475 C 71.3417 %
173 19-10-2015 00:00:00 11.18917 C 70.2667 %
174 20-10-2015 00:00:00 11.92083 C 73.4083 %
175 21-10-2015 00:00:00 12.1125 C 74.2667 %
Sensor: Nr:Datum:Temp:Feuchte:
G-T/H 176 22-10-2015 00:00:00 12.43083 C 74.8083 %
177 23-10-2015 00:00:00 12.8525 C 74.9750 %
178 24-10-2015 00:00:00 12.94083 C 73.2333 %
179 25-10-2015 00:00:00 12.9792 C 75.2880 %
180 26-10-2015 00:00:00 12.87083 C 74.4417 %
181 27-10-2015 00:00:00 11.90417 C 71.7000 %
182 28-10-2015 00:00:00 12.22417 C 74.5667 %
183 29-10-2015 00:00:00 12.4025 C 76.0083 %
184 30-10-2015 00:00:00 11.73667 C 72.8167 %
185 31-10-2015 00:00:00 11.19583 C 71.7583 %
186 01-11-2015 00:00:00 11.01 C 71.9750 %
187 02-11-2015 00:00:00 10.25583 C 69.3417 %
188 03-11-2015 00:00:00 9.9 C 70.3417 %
189 04-11-2015 00:00:00 10.06333 C 72.9667 %
190 05-11-2015 00:00:00 11.00667 C 76.0333 %
191 06-11-2015 00:00:00 12.04833 C 77.4500 %
192 07-11-2015 00:00:00 13.56417 C 78.3083 %
193 08-11-2015 00:00:00 13.79583 C 78.0000 %
194 09-11-2015 00:00:00 13.61583 C 78.0000 %
195 10-11-2015 00:00:00 13.80667 C 77.5667 %
196 11-11-2015 00:00:00 13.58 C 75.5167 %
197 12-11-2015 00:00:00 13.18583 C 76.2500 %
198 13-11-2015 00:00:00 12.58833 C 74.3167 %
199 14-11-2015 00:00:00 11.79167 C 70.2667 %
200 15-11-2015 00:00:00 12.18917 C 75.3083 %
Sensor: Nr:Datum:Temp:Feuchte:
G-T/H 201 16-11-2015 00:00:00 12.73 C 76.3750 %
202 17-11-2015 00:00:00 13.1775 C 77.0250 %
203 18-11-2015 00:00:00 13.73417 C 75.3917 %
204 19-11-2015 00:00:00 13.50583 C 75.1167 %
205 20-11-2015 00:00:00 12.18583 C 73.3667 %
206 21-11-2015 00:00:00 10.22417 C 66.4333 %
207 22-11-2015 00:00:00 8.77167 C 65.9583 %
208 23-11-2015 00:00:00 8.46833 C 67.1833 %
209 24-11-2015 00:00:00 8.06917 C 63.9917 %
210 25-11-2015 00:00:00 8.435 C 70.2917 %
211 26-11-2015 00:00:00 8.96833 C 72.8250 %
212 27-11-2015 00:00:00 8.3625 C 67.3417 %
213 28-11-2015 00:00:00 8.02333 C 67.4417 %
214 29-11-2015 00:00:00 8.965 C 72.4583 %
215 30-11-2015 00:00:00 10.345 C 74.4000 %
216 01-12-2015 00:00:00 11.16167 C 75.7250 %
217 02-12-2015 00:00:00 11.5875 C 75.8583 %
218 03-12-2015 00:00:00 11.085 C 72.3083 %
219 04-12-2015 00:00:00 10.09583 C 70.4250 %
220 05-12-2015 00:00:00 9.69167 C 72.4167 %
221 06-12-2015 00:00:00 9.48167 C 73.3917 %
222 07-12-2015 00:00:00 10.12083 C 75.0750 %
223 08-12-2015 00:00:00 9.17917 C 71.0417 %
224 09-12-2015 00:00:00 9.33333 C 74.2750 %
225 10-12-2015 00:00:00 8.84 C 70.2167 %
Sensor: Nr:Datum:Temp:Feuchte:
G-T/H 226 11-12-2015 00:00:00 8.05417 C 68.8833 %
227 12-12-2015 00:00:00 9.27583 C 74.2583 %
228 13-12-2015 00:00:00 10.04333 C 75.4167 %
229 14-12-2015 00:00:00 9.92917 C 75.1000 %
230 15-12-2015 00:00:00 8.91417 C 73.0167 %
231 16-12-2015 00:00:00 9.75667 C 76.1250 %
232 17-12-2015 00:00:00 11.36167 C 76.8583 %
233 18-12-2015 00:00:00 11.77417 C 77.0000 %
234 19-12-2015 00:00:00 12.04333 C 76.6167 %
235 20-12-2015 00:00:00 10.83917 C 74.4583 %
236 21-12-2015 00:00:00 10.93667 C 76.5083 %
237 22-12-2015 00:00:00 11.40833 C 76.6833 %
238 23-12-2015 00:00:00 11.51 C 76.4250 %
239 24-12-2015 00:00:00 10.82167 C 76.2250 %
240 25-12-2015 00:00:00 11.42167 C 77.0000 %
241 26-12-2015 00:00:00 11.68 C 77.0000 %
242 27-12-2015 00:00:00 10.6275 C 76.1250 %
243 28-12-2015 00:00:00 8.98083 C 70.9167 %
244 29-12-2015 00:00:00 7.58917 C 69.2083 %
245 30-12-2015 00:00:00 8.2025 C 73.7833 %
246 31-12-2015 00:00:00 8.56 C 74.3250 %
247 01-01-2016 00:00:00 8.00917 C 72.2667 %
248 02-01-2016 00:00:00 8.71833 C 74.2667 %
249 03-01-2016 00:00:00 8.725 C 75.2083 %
250 04-01-2016 00:00:00 8.69917 C 74.9333 %
Sensor: Nr:Datum:Temp:Feuchte:
G-T/H 251 05-01-2016 00:00:00 9.12417 C 76.0333 %
252 06-01-2016 00:00:00 9.33417 C 76.5000 %
253 07-01-2016 00:00:00 8.90667 C 74.1667 %
254 08-01-2016 00:00:00 7.98 C 70.4583 %
255 09-01-2016 00:00:00 6.60833 C 68.3250 %
256 10-01-2016 00:00:00 7.60084 C 74.0504 %
257 11-01-2016 00:00:00 8.1325 C 75.1500 %
258 12-01-2016 00:00:00 8.33667 C 75.0583 %
259 13-01-2016 00:00:00 8.1275 C 74.2917 %
260 14-01-2016 00:00:00 7.54667 C 70.0167 %
261 15-01-2016 00:00:00 7.395 C 71.2083 %
262 16-01-2016 00:00:00 6.98083 C 69.2833 %
263 17-01-2016 00:00:00 6.295 C 64.9750 %
264 18-01-2016 00:00:00 5.49917 C 64.8333 %
265 19-01-2016 00:00:00 4.78917 C 65.5000 %
266 20-01-2016 00:00:00 4.82833 C 66.9000 %
267 21-01-2016 00:00:00 5.51167 C 69.6167 %
268 22-01-2016 00:00:00 5.29667 C 68.5750 %
269 23-01-2016 00:00:00 5.67667 C 71.7167 %
270 24-01-2016 00:00:00 6.94167 C 74.3250 %
271 25-01-2016 00:00:00 8.14667 C 75.6833 %
272 26-01-2016 00:00:00 8.69 C 76.0750 %
273 27-01-2016 00:00:00 9.62167 C 75.4667 %
274 28-01-2016 00:00:00 9.90917 C 71.6667 %
275 29-01-2016 00:00:00 8.14667 C 68.8333 %
Sensor: Nr:Datum:Temp:Feuchte:
G-T/H 276 30-01-2016 00:00:00 9.08833 C 72.6167 %
277 31-01-2016 00:00:00 8.2675 C 70.5417 %
278 01-02-2016 00:00:00 9.75167 C 74.1417 %
279 02-02-2016 00:00:00 10.6475 C 74.2833 %
280 03-02-2016 00:00:00 9.35 C 67.8167 %
281 04-02-2016 00:00:00 8.42333 C 69.5417 %
282 05-02-2016 00:00:00 8.7975 C 72.7417 %
283 06-02-2016 00:00:00 9.6175 C 74.0000 %
284 07-02-2016 00:00:00 9.48833 C 73.2917 %
285 08-02-2016 00:00:00 9.44917 C 72.5417 %
286 09-02-2016 00:00:00 9.0575 C 70.2250 %
287 10-02-2016 00:00:00 8.62667 C 70.6833 %
288 11-02-2016 00:00:00 8.3975 C 71.5583 %
289 12-02-2016 00:00:00 7.87 C 67.5667 %
290 13-02-2016 00:00:00 7.18917 C 68.7583 %
291 14-02-2016 00:00:00 7.68417 C 72.7250 %
292 15-02-2016 00:00:00 7.525 C 70.2000 %
293 16-02-2016 00:00:00 6.49167 C 61.4583 %
294 17-02-2016 00:00:00 5.91083 C 64.0333 %
295 18-02-2016 00:00:00 6.93833 C 65.5917 %
296 19-02-2016 00:00:00 6.6725 C 64.0250 %
297 20-02-2016 00:00:00 6.87083 C 67.9667 %
298 21-02-2016 00:00:00 9.16417 C 72.3250 %
299 22-02-2016 00:00:00 10.13333 C 71.9167 %
300 23-02-2016 00:00:00 8.49917 C 67.6583 %
Sensor: Nr:Datum:Temp:Feuchte:
G-T/H 301 24-02-2016 00:00:00 7.5 C 68.0167 %
302 25-02-2016 00:00:00 6.74417 C 63.8250 %
303 26-02-2016 00:00:00 7.16167 C 63.9917 %
304 27-02-2016 00:00:00 7.0225 C 62.2167 %
305 28-02-2016 00:00:00 6.65833 C 63.3667 %
306 29-02-2016 00:00:00 7.045 C 60.9750 %
307 01-03-2016 00:00:00 6.78 C 60.8000 %
308 02-03-2016 00:00:00 7.31917 C 67.4500 %
309 03-03-2016 00:00:00 7.86333 C 68.0000 %
310 04-03-2016 00:00:00 7.1075 C 67.2583 %
311 05-03-2016 00:00:00 7.6825 C 73.4167 %
312 06-03-2016 00:00:00 7.565 C 70.6083 %
313 07-03-2016 00:00:00 7.475 C 71.4583 %
314 08-03-2016 00:00:00 6.84833 C 68.9583 %
315 09-03-2016 00:00:00 6.70833 C 65.5750 %
316 10-03-2016 00:00:00 6.68667 C 63.9583 %
317 11-03-2016 00:00:00 7.33667 C 67.2750 %
318 12-03-2016 00:00:00 7.66833 C 66.7333 %
319 13-03-2016 00:00:00 7.70417 C 66.4583 %
320 14-03-2016 00:00:00 7.42583 C 60.7917 %
321 15-03-2016 00:00:00 7.42583 C 63.4250 %
322 16-03-2016 00:00:00 7.295 C 63.0833 %
323 17-03-2016 00:00:00 6.89417 C 62.0000 %
324 18-03-2016 00:00:00 6.8975 C 63.3667 %
325 19-03-2016 00:00:00 7.8175 C 67.6500 %
Sensor: Nr:Datum:Temp:Feuchte:
G-T/H 326 20-03-2016 00:00:00 8.15083 C 68.6333 %
327 21-03-2016 00:00:00 8.68667 C 70.5417 %
328 22-03-2016 00:00:00 9.1375 C 70.2917 %
329 23-03-2016 00:00:00 9.6 C 70.4500 %
330 24-03-2016 00:00:00 9.6925 C 70.1333 %
331 25-03-2016 00:00:00 9.5625 C 71.4250 %
332 26-03-2016 00:00:00 9.97667 C 69.9250 %
333 27-03-2016 00:00:00 10.11913 C 70.8522 %
334 28-03-2016 00:00:00 9.8125 C 71.8083 %
335 29-03-2016 00:00:00 9.8175 C 71.2500 %
336 30-03-2016 00:00:00 10.3175 C 71.9583 %
337 31-03-2016 00:00:00 10.36417 C 72.2333 %
338 01-04-2016 00:00:00 9.36833 C 70.1750 %
339 02-04-2016 00:00:00 9.53083 C 70.8583 %
340 03-04-2016 00:00:00 11.37 C 71.6750 %
341 04-04-2016 00:00:00 12.26583 C 72.9083 %
342 05-04-2016 00:00:00 12.2875 C 73.0000 %
343 06-04-2016 00:00:00 11.68833 C 72.7250 %
344 07-04-2016 00:00:00 11.33 C 66.9500 %
345 08-04-2016 00:00:00 9.98417 C 63.2583 %
346 09-04-2016 00:00:00 10.4475 C 56.7917 %
347 10-04-2016 00:00:00 11.64167 C 62.6500 %
348 11-04-2016 00:00:00 12.65833 C 59.8833 %
349 12-04-2016 00:00:00 12.55833 C 64.0000 %
350 13-04-2016 00:00:00 11.98167 C 66.8667 %
Sensor: Nr:Datum:Temp:Feuchte:
G-T/H 351 14-04-2016 00:00:00 11.6325 C 68.1250 %
352 15-04-2016 00:00:00 12.27917 C 68.8667 %
353 16-04-2016 00:00:00 12.6725 C 69.5750 %
354 17-04-2016 00:00:00 12.02583 C 64.1750 %
355 18-04-2016 00:00:00 10.66333 C 60.4083 %
356 19-04-2016 00:00:00 10.79083 C 61.0333 %
357 20-04-2016 00:00:00 10.72417 C 60.2417 %
358 21-04-2016 00:00:00 11.09917 C 62.1167 %
359 22-04-2016 00:00:00 12.2725 C 64.0500 %
360 23-04-2016 00:00:00 12.21833 C 62.2583 %
361 24-04-2016 00:00:00 10.46833 C 58.8250 %
362 25-04-2016 00:00:00 9.705 C 62.8083 %
363 26-04-2016 00:00:00 9.39833 C 63.1083 %
364 27-04-2016 00:00:00 9.11583 C 62.9500 %
365 28-04-2016 00:00:00 9.37917 C 62.3333 %
366 29-04-2016 00:00:00 10.05167 C 61.3083 %
367 30-04-2016 00:00:00 10.66583 C 63.3250 %
368 01-05-2016 00:00:00 10.81833 C 66.3917 %
369 02-05-2016 00:00:00 11.39917 C 66.7083 %
370 03-05-2016 00:00:00 12.1925 C 66.1750 %
371 04-05-2016 00:00:00 11.66667 C 60.8083 %
372 05-05-2016 00:00:00 12.47917 C 58.2167 %
373 06-05-2016 00:00:00 13.25583 C 62.6333 %
374 07-05-2016 00:00:00 15.64667 C 58.6167 %
375 08-05-2016 00:00:00 16.73667 C 55.0000 %
Sensor: Nr:Datum:Temp:Feuchte:
G-T/H 376 09-05-2016 00:00:00 17.65083 C 55.0000 %
377 10-05-2016 00:00:00 16.9875 C 60.4583 %
378 11-05-2016 00:00:00 17.78917 C 59.5583 %
379 12-05-2016 00:00:00 18.00333 C 57.3333 %
380 13-05-2016 00:00:00 16.81833 C 62.8500 %
381 14-05-2016 00:00:00 15.055 C 60.3667 %
382 15-05-2016 00:00:00 13.6825 C 58.5667 %
383 16-05-2016 00:00:00 13.37833 C 57.1917 %
384 17-05-2016 00:00:00 14.11583 C 54.8500 %
385 18-05-2016 00:00:00 15.44083 C 56.8667 %
386 19-05-2016 00:00:00 15.42417 C 61.6833 %
387 20-05-2016 00:00:00 15.11917 C 63.5583 %
388 21-05-2016 00:00:00 17.11417 C 61.2417 %
389 22-05-2016 00:00:00 17.1375 C 63.3083 %
390 23-05-2016 00:00:00 16.6675 C 65.4333 %
391 24-05-2016 00:00:00 15.11083 C 66.7500 %
392 25-05-2016 00:00:00 14.5625 C 67.5333 %
393 26-05-2016 00:00:00 15.84083 C 64.6833 %
394 27-05-2016 00:00:00 16.43417 C 67.0667 %
395 28-05-2016 00:00:00 16.33333 C 69.2250 %
396 29-05-2016 00:00:00 16.47 C 70.2000 %
397 30-05-2016 00:00:00 16.7675 C 71.2917 %
398 31-05-2016 00:00:00 17.39032 C 69.3145 %
399 01-06-2016 00:00:00 16.90764 C 69.8090 %
400 02-06-2016 00:00:00 16.60486 C 71.1215 %
Sensor: Nr:Datum:Temp:Feuchte:
G-T/H 401 03-06-2016 00:00:00 16.82674 C 71.6979 %
402 04-06-2016 00:00:00 17.00764 C 72.5278 %
403 05-06-2016 00:00:00 17.47083 C 72.4375 %
404 06-06-2016 00:00:00 19.17188 C 71.5417 %
405 07-06-2016 00:00:00 19.49514 C 71.1979 %
406 08-06-2016 00:00:00 19.99896 C 67.3368 %
407 09-06-2016 00:00:00 19.07396 C 58.3681 %
408 10-06-2016 00:00:00 18.28403 C 60.7847 %
409 11-06-2016 00:00:00 18.9066 C 59.1458 %
410 12-06-2016 00:00:00 18.61424 C 63.5208 %
411 13-06-2016 00:00:00 17.83333 C 67.1563 %
412 14-06-2016 00:00:00 17.39931 C 68.4757 %
413 15-06-2016 00:00:00 17.24583 C 68.5903 %
414 16-06-2016 00:00:00 16.24236 C 71.1944 %
415 17-06-2016 00:00:00 16.34861 C 71.3090 %
416 18-06-2016 00:00:00 16.23056 C 71.5174 %
417 19-06-2016 00:00:00 16.85556 C 67.8368 %
418 20-06-2016 00:00:00 16.76798 C 58.9298 %
419 21-06-2016 00:00:00 18.16552 C 65.3017 %
420 22-06-2016 00:00:00 18.4725 C 69.0917 %
421 23-06-2016 00:00:00 19.365 C 71.3250 %
422 24-06-2016 00:00:00 20.41417 C 72.4667 %
423 25-06-2016 00:00:00 19.32667 C 72.2667 %
424 26-06-2016 00:00:00 17.69417 C 71.1667 %
425 27-06-2016 00:00:00 17.605 C 66.4750 %
Sensor: Nr:Datum:Temp:Feuchte:
G-T/H 426 28-06-2016 00:00:00 19.10167 C 64.6917 %
427 29-06-2016 00:00:00 19.85417 C 57.5417 %
428 30-06-2016 00:00:00 19.8875 C 60.6333 %
429 01-07-2016 00:00:00 20.32 C 62.7500 %
430 02-07-2016 00:00:00 19.3525 C 63.5667 %
431 03-07-2016 00:00:00 17.94167 C 64.7167 %
432 04-07-2016 00:00:00 18.07917 C 66.9333 %
433 05-07-2016 00:00:00 19.50833 C 65.1500 %
434 06-07-2016 00:00:00 18.59333 C 64.1000 %
435 07-07-2016 00:00:00 18.89 C 58.9500 %
436 08-07-2016 00:00:00 20.49583 C 59.9917 %
437 09-07-2016 00:00:00 20.265 C 63.4500 %
438 10-07-2016 00:00:00 20.23583 C 66.0667 %
439 11-07-2016 00:00:00 21.90583 C 60.9500 %
440 12-07-2016 00:00:00 21.28583 C 56.5333 %
441 13-07-2016 00:00:00 19.58583 C 61.2667 %
442 14-07-2016 00:00:00 18.12833 C 63.5000 %
443 15-07-2016 00:00:00 17.85833 C 64.4333 %
444 16-07-2016 00:00:00 17.93083 C 65.6917 %
445 17-07-2016 00:00:00 20.08 C 64.7667 %
446 18-07-2016 00:00:00 21.79667 C 59.9333 %
447 19-07-2016 00:00:00 22.34917 C 60.7583 %
448 20-07-2016 00:00:00 21.63333 C 64.3000 %
449 21-07-2016 00:00:00 21.57583 C 66.2500 %
450 22-07-2016 00:00:00 20.68417 C 68.0833 %
Sensor: Nr:Datum:Temp:Feuchte:
G-T/H 451 23-07-2016 00:00:00 20.68833 C 68.8750 %
452 24-07-2016 00:00:00 20.48333 C 69.4167 %
453 25-07-2016 00:00:00 20.91333 C 69.4000 %
454 26-07-2016 00:00:00 20.91083 C 69.4500 %
455 27-07-2016 00:00:00 20.35 C 69.0333 %
456 28-07-2016 00:00:00 20.44667 C 69.0333 %
457 29-07-2016 00:00:00 20.34167 C 68.9833 %
458 30-07-2016 00:00:00 20.43833 C 68.3250 %
459 31-07-2016 00:00:00 20.0325 C 68.5917 %
460 01-08-2016 00:00:00 19.39333 C 58.7417 %
461 02-08-2016 00:00:00 19.16833 C 63.6417 %
462 03-08-2016 00:00:00 18.67333 C 68.2083 %
463 04-08-2016 00:00:00 18.74667 C 70.3583 %
464 05-08-2016 00:00:00 18.29667 C 70.3333 %
465 06-08-2016 00:00:00 19.07417 C 69.3750 %
466 07-08-2016 00:00:00 19.03 C 69.0833 %
467 08-08-2016 00:00:00 20.345 C 62.8750 %
468 09-08-2016 00:00:00 19.3975 C 57.0333 %
469 10-08-2016 00:00:00 18.12167 C 59.1917 %
470 11-08-2016 00:00:00 16.77899 C 61.9748 %
471 12-08-2016 00:00:00 17.08917 C 67.0000 %
472 13-08-2016 00:00:00 18.70167 C 66.4667 %
473 14-08-2016 00:00:00 19.23583 C 66.2917 %
474 15-08-2016 00:00:00 19.80833 C 63.8583 %
475 16-08-2016 00:00:00 20.05583 C 57.9917 %
Sensor: Nr:Datum:Temp:Feuchte:
G-T/H 476 17-08-2016 00:00:00 19.5975 C 59.9500 %
477 18-08-2016 00:00:00 19.10667 C 62.0250 %
478 19-08-2016 00:00:00 19.285 C 65.6833 %
479 20-08-2016 00:00:00 19.33917 C 67.0167 %
480 21-08-2016 00:00:00 18.56083 C 67.8500 %
481 22-08-2016 00:00:00 18.2 C 68.1000 %
482 23-08-2016 00:00:00 18.51083 C 68.4750 %
483 24-08-2016 00:00:00 20.7375 C 63.8417 %
484 25-08-2016 00:00:00 21.7675 C 61.5667 %
485 26-08-2016 00:00:00 21.88833 C 64.2083 %
486 27-08-2016 00:00:00 21.44167 C 67.6000 %
487 28-08-2016 00:00:00 21.2675 C 68.1333 %
488 29-08-2016 00:00:00 20.725 C 67.0750 %
489 30-08-2016 00:00:00 19.75833 C 63.6083 %
490 31-08-2016 00:00:00 19.81833 C 59.3500 %
491 01-09-2016 00:00:00 20.415 C 61.3167 %
492 02-09-2016 00:00:00 20.5325 C 60.0417 %
493 03-09-2016 00:00:00 21.2775 C 58.3833 %
494 04-09-2016 00:00:00 20.23417 C 62.0333 %
495 05-09-2016 00:00:00 19.63 C 61.6750 %
496 06-09-2016 00:00:00 19.45667 C 59.8000 %
497 07-09-2016 00:00:00 17.9625 C 62.8833 %
498 08-09-2016 00:00:00 20.22417 C 62.2667 %
499 09-09-2016 00:00:00 20.395 C 59.8500 %
500 10-09-2016 00:00:00 19.37583 C 63.5083 %
Sensor: Nr:Datum:Temp:Feuchte:
G-T/H 501 11-09-2016 00:00:00 19.84167 C 61.8500 %
502 12-09-2016 00:00:00 19.2425 C 63.9750 %
503 13-09-2016 00:00:00 19.18917 C 67.2250 %
504 14-09-2016 00:00:00 19.21167 C 67.7167 %
505 15-09-2016 00:00:00 20.69 C 62.9250 %
506 16-09-2016 00:00:00 19.985 C 62.3917 %
507 17-09-2016 00:00:00 18.71583 C 62.1417 %
508 18-09-2016 00:00:00 18.4775 C 65.9583 %
509 19-09-2016 00:00:00 18.15833 C 63.7833 %
510 20-09-2016 00:00:00 17.68667 C 65.4583 %
511 21-09-2016 00:00:00 16.9825 C 64.3250 %
512 22-09-2016 00:00:00 16.06167 C 59.4417 %
513 23-09-2016 00:00:00 15.82583 C 65.3667 %
514 24-09-2016 00:00:00 15.64417 C 67.9583 %
515 25-09-2016 00:00:00 15.26917 C 68.1167 %
516 26-09-2016 00:00:00 16.33 C 68.2917 %
517 27-09-2016 00:00:00 15.98083 C 69.3167 %
518 28-09-2016 00:00:00 16.32 C 68.9750 %
519 29-09-2016 00:00:00 16.83 C 70.3417 %
520 30-09-2016 00:00:00 17.00583 C 70.6167 %
521 01-10-2016 00:00:00 16.32667 C 71.0000 %
522 02-10-2016 00:00:00 15.67333 C 71.6083 %
523 03-10-2016 00:00:00 15.18 C 72.4000 %
524 04-10-2016 00:00:00 14.88 C 72.3167 %
525 05-10-2016 00:00:00 12.96083 C 60.0750 %
Sensor: Nr:Datum:Temp:Feuchte:
G-T/H 526 06-10-2016 00:00:00 12.69583 C 64.3417 %
527 07-10-2016 00:00:00 13.35833 C 70.4250 %
528 08-10-2016 00:00:00 13.4975 C 71.5583 %
529 09-10-2016 00:00:00 13.15583 C 69.0833 %
530 10-10-2016 00:00:00 12.26667 C 65.6583 %
531 11-10-2016 00:00:00 12.15083 C 68.7417 %
532 12-10-2016 00:00:00 12.37167 C 69.5583 %
533 13-10-2016 00:00:00 11.78 C 63.9417 %
534 14-10-2016 00:00:00 12.04583 C 65.1000 %
535 15-10-2016 00:00:00 12.9775 C 69.8500 %
536 16-10-2016 00:00:00 12.80667 C 68.1833 %
537 17-10-2016 00:00:00 12.835 C 72.4250 %
538 18-10-2016 00:00:00 13.08 C 73.2750 %
539 19-10-2016 00:00:00 12.90917 C 72.6917 %
540 20-10-2016 00:00:00 12.49167 C 72.9250 %
541 21-10-2016 00:00:00 12.16917 C 72.9667 %
542 22-10-2016 00:00:00 11.97167 C 73.1167 %
543 23-10-2016 00:00:00 11.56167 C 71.1250 %
544 24-10-2016 00:00:00 11.85333 C 73.8167 %
545 25-10-2016 00:00:00 12.67417 C 75.2000 %
546 26-10-2016 00:00:00 12.92083 C 72.7667 %
547 27-10-2016 00:00:00 11.9975 C 70.7667 %
548 28-10-2016 00:00:00 12.79417 C 71.9083 %
549 29-10-2016 00:00:00 13.4925 C 73.2500 %
550 30-10-2016 00:00:00 12.6816 C 71.9200 %
Sensor: Nr:Datum:Temp:Feuchte:
G-T/H 551 31-10-2016 00:00:00 11.75083 C 70.0667 %
552 01-11-2016 00:00:00 11.04417 C 69.4750 %
553 02-11-2016 00:00:00 11.27917 C 71.5500 %
554 03-11-2016 00:00:00 10.86 C 69.9917 %
555 04-11-2016 00:00:00 10.0325 C 67.5750 %
556 05-11-2016 00:00:00 10.58917 C 71.7750 %
557 06-11-2016 00:00:00 10.1525 C 69.2083 %
558 07-11-2016 00:00:00 9.85 C 68.7833 %
559 08-11-2016 00:00:00 9.42417 C 66.2417 %
560 09-11-2016 00:00:00 8.82583 C 66.7333 %
561 10-11-2016 00:00:00 9.30167 C 70.3000 %
562 11-11-2016 00:00:00 9.65417 C 71.9000 %
563 12-11-2016 00:00:00 8.685 C 64.9333 %
564 13-11-2016 00:00:00 8.31083 C 64.6083 %
565 14-11-2016 00:00:00 7.62917 C 61.3083 %
566 15-11-2016 00:00:00 8.05833 C 68.3083 %
567 16-11-2016 00:00:00 9.605 C 73.2917 %
568 17-11-2016 00:00:00 10.72917 C 74.0000 %
569 18-11-2016 00:00:00 11.2175 C 72.3333 %
570 19-11-2016 00:00:00 9.86333 C 67.3833 %
571 20-11-2016 00:00:00 9.69583 C 70.2250 %
572 21-11-2016 00:00:00 10.8675 C 72.8417 %
573 22-11-2016 00:00:00 11.305 C 73.8750 %
574 23-11-2016 00:00:00 11.27583 C 74.1333 %
575 24-11-2016 00:00:00 11.035 C 74.8083 %
Sensor: Nr:Datum:Temp:Feuchte:
G-T/H 576 25-11-2016 00:00:00 10.7 C 72.8750 %
577 26-11-2016 00:00:00 10.5825 C 71.8333 %
578 27-11-2016 00:00:00 10.20167 C 70.9917 %
579 28-11-2016 00:00:00 8.60417 C 61.3417 %
580 29-11-2016 00:00:00 7.215 C 58.6917 %
581 30-11-2016 00:00:00 5.98167 C 59.2667 %
582 01-12-2016 00:00:00 3.9525 C 66.1500 %
583 02-12-2016 00:00:00 8.02083 C 70.3667 %
584 03-12-2016 00:00:00 7.42417 C 63.9833 %
585 04-12-2016 00:00:00 6.275 C 61.7083 %
586 05-12-2016 00:00:00 5.36667 C 64.7667 %
587 06-12-2016 00:00:00 4.82967 C 64.3626 %
588 07-12-2016 00:00:00 5.38252 C 68.3883 %
589 08-12-2016 00:00:00 5.9125 C 69.6000 %
590 09-12-2016 00:00:00 6.99833 C 71.6333 %
591 10-12-2016 00:00:00 7.755 C 72.6417 %
592 11-12-2016 00:00:00 8.39667 C 74.1583 %
593 12-12-2016 00:00:00 9.10083 C 74.1333 %
594 13-12-2016 00:00:00 8.56083 C 71.4833 %
595 14-12-2016 00:00:00 8.81583 C 74.0417 %
596 15-12-2016 00:00:00 9.39 C 74.3000 %
597 16-12-2016 00:00:00 9.12417 C 69.5333 %
598 17-12-2016 00:00:00 7.19138 C 66.8793 %
599 18-12-2016 00:00:00 6.47667 C 73.8167 %
600 19-12-2016 00:00:00 6.53917 C 69.9833 %
Sensor: Nr:Datum:Temp:Feuchte:
G-T/H 601 20-12-2016 00:00:00 7.37 C 63.5167 %
602 21-12-2016 00:00:00 6.99 C 64.7917 %
603 22-12-2016 00:00:00 7.68917 C 69.0917 %
604 23-12-2016 00:00:00 7.73917 C 71.5917 %
605 24-12-2016 00:00:00 8.2975 C 72.4083 %
606 25-12-2016 00:00:00 8.90417 C 73.3417 %
607 26-12-2016 00:00:00 9.52917 C 72.0250 %
608 27-12-2016 00:00:00 8.22333 C 68.1667 %
609 28-12-2016 00:00:00 8.0975 C 69.3167 %
610 29-12-2016 00:00:00 6.70583 C 61.8833 %
611 30-12-2016 00:00:00 5.99833 C 63.3083 %
612 31-12-2016 00:00:00 5.83083 C 62.2667 %
613 01-01-2017 00:00:00 5.44917 C 64.1833 %
614 02-01-2017 00:00:00 5.875 C 67.6500 %
615 03-01-2017 00:00:00 6.26833 C 69.1333 %
616 04-01-2017 00:00:00 6.87333 C 70.5333 %
617 05-01-2017 00:00:00 6.42167 C 64.7417 %
618 06-01-2017 00:00:00 5.2175 C 62.1250 %
619 07-01-2017 00:00:00 5.225 C 61.2333 %
620 08-01-2017 00:00:00 5.37083 C 67.6667 %
621 09-01-2017 00:00:00 5.805 C 70.2583 %
622 10-01-2017 00:00:00 6.215 C 69.9833 %
623 11-01-2017 00:00:00 6.85417 C 73.1167 %
624 12-01-2017 00:00:00 7.36667 C 72.3333 %
625 13-01-2017 00:00:00 7.38917 C 68.9917 %
Sensor: Nr:Datum:Temp:Feuchte:
G-T/H 626 14-01-2017 00:00:00 6.96667 C 66.6000 %
627 15-01-2017 00:00:00 6.63083 C 66.1917 %
628 16-01-2017 00:00:00 5.80917 C 64.9167 %
629 17-01-2017 00:00:00 5.4625 C 65.3000 %
630 18-01-2017 00:00:00 5.16083 C 63.5417 %
631 19-01-2017 00:00:00 4.74667 C 62.7667 %
632 20-01-2017 00:00:00 4.44583 C 61.4250 %
633 21-01-2017 00:00:00 4.46917 C 61.4667 %
634 22-01-2017 00:00:00 6.90667 C 56.2500 %
635 23-01-2017 00:00:00 4.80167 C 59.9750 %
636 24-01-2017 00:00:00 4.74333 C 66.7000 %
637 25-01-2017 00:00:00 5.13697 C 66.5546 %
638 26-01-2017 00:00:00 4.95 C 66.4333 %
639 27-01-2017 00:00:00 4.87667 C 64.0167 %
640 28-01-2017 00:00:00 4.965 C 64.2417 %
641 29-01-2017 00:00:00 5.46167 C 67.2750 %
642 30-01-2017 00:00:00 6.3575 C 70.0750 %
643 31-01-2017 00:00:00 7.135 C 70.9417 %
644 01-02-2017 00:00:00 7.0975 C 69.4500 %
645 02-02-2017 00:00:00 7.63083 C 71.6000 %
646 03-02-2017 00:00:00 7.80583 C 71.7917 %
647 04-02-2017 00:00:00 7.86667 C 73.2833 %
648 05-02-2017 00:00:00 7.52167 C 72.1917 %
649 06-02-2017 00:00:00 7.44667 C 71.3500 %
650 07-02-2017 00:00:00 7.65917 C 69.1583 %
Sensor: Nr:Datum:Temp:Feuchte:
G-T/H 651 08-02-2017 00:00:00 7.745 C 67.0667 %
652 09-02-2017 00:00:00 6.61083 C 60.3750 %
653 10-02-2017 00:00:00 6.26583 C 62.6250 %
654 11-02-2017 00:00:00 6.50167 C 66.3417 %
655 12-02-2017 00:00:00 6.90333 C 69.8583 %
656 13-02-2017 00:00:00 6.77417 C 66.2250 %
657 14-02-2017 00:00:00 6.34667 C 63.3750 %
658 15-02-2017 00:00:00 6.06333 C 64.3167 %
659 16-02-2017 00:00:00 6.4425 C 67.4583 %
660 17-02-2017 00:00:00 7.16417 C 70.9167 %
661 18-02-2017 00:00:00 7.8825 C 71.6500 %
662 19-02-2017 00:00:00 6.91667 C 66.6917 %
663 20-02-2017 00:00:00 7.93417 C 71.2667 %
664 21-02-2017 00:00:00 9.10333 C 73.0000 %
665 22-02-2017 00:00:00 9.84667 C 73.5750 %
666 23-02-2017 00:00:00 10.02917 C 72.3500 %
667 24-02-2017 00:00:00 9.025 C 66.0583 %
668 25-02-2017 00:00:00 7.8125 C 64.1750 %
669 26-02-2017 00:00:00 8.2975 C 69.2667 %
670 27-02-2017 00:00:00 9.63917 C 70.5750 %
671 28-02-2017 00:00:00 9.33 C 66.9583 %
672 01-03-2017 00:00:00 8.60583 C 69.5417 %
673 02-03-2017 00:00:00 8.9175 C 65.6500 %
674 03-03-2017 00:00:00 8.58667 C 65.2583 %
675 04-03-2017 00:00:00 9.72083 C 67.1417 %
Sensor: Nr:Datum:Temp:Feuchte:
G-T/H 676 05-03-2017 00:00:00 9.9025 C 68.5167 %
677 06-03-2017 00:00:00 9.1775 C 69.4333 %
678 07-03-2017 00:00:00 8.97833 C 70.7333 %
679 08-03-2017 00:00:00 8.28333 C 70.1333 %
680 09-03-2017 00:00:00 9.54333 C 71.3083 %
681 10-03-2017 00:00:00 9.94 C 66.3417 %
682 11-03-2017 00:00:00 9.4 C 61.6667 %
683 12-03-2017 00:00:00 9.37083 C 56.6667 %
684 13-03-2017 00:00:00 9.06083 C 61.4333 %
685 14-03-2017 00:00:00 9.58917 C 65.5667 %
686 15-03-2017 00:00:00 10.38083 C 67.1833 %
687 16-03-2017 00:00:00 9.89833 C 64.6750 %
688 17-03-2017 00:00:00 9.92917 C 66.9833 %
689 18-03-2017 00:00:00 10.04833 C 66.3167 %
690 19-03-2017 00:00:00 10.80333 C 69.8417 %
691 20-03-2017 00:00:00 11.3975 C 70.0000 %
692 21-03-2017 00:00:00 11.28667 C 69.3000 %
693 22-03-2017 00:00:00 9.84 C 63.8000 %
694 23-03-2017 00:00:00 10.27083 C 66.0750 %
695 24-03-2017 00:00:00 10.7825 C 62.7500 %
696 25-03-2017 00:00:00 10.76167 C 57.7333 %
697 26-03-2017 00:00:00 10.54783 C 58.5826 %
698 27-03-2017 00:00:00 10.2775 C 50.5417 %
699 28-03-2017 00:00:00 11.49667 C 53.5167 %
700 29-03-2017 00:00:00 12.4025 C 60.0000 %
Sensor: Nr:Datum:Temp:Feuchte:
G-T/H 701 30-03-2017 00:00:00 13.8 C 58.8333 %
702 31-03-2017 00:00:00 13.9 C 55.5083 %
703 01-04-2017 00:00:00 13.5225 C 61.1333 %
704 02-04-2017 00:00:00 13.045 C 62.0500 %
705 03-04-2017 00:00:00 12.37917 C 61.7583 %
706 04-04-2017 00:00:00 11.70917 C 61.7250 %
707 05-04-2017 00:00:00 11.2225 C 60.3000 %
708 06-04-2017 00:00:00 11.25083 C 61.8833 %
709 07-04-2017 00:00:00 11.30833 C 61.5667 %
710 08-04-2017 00:00:00 12.10917 C 64.3167 %
711 09-04-2017 00:00:00 11.93083 C 63.3250 %
712 10-04-2017 00:00:00 12.2625 C 64.3417 %
713 11-04-2017 00:00:00 11.93333 C 61.3750 %
714 12-04-2017 00:00:00 11.73417 C 62.1250 %
715 13-04-2017 00:00:00 12.4775 C 62.8750 %
716 14-04-2017 00:00:00 12.10583 C 60.6583 %
717 15-04-2017 00:00:00 11.93917 C 62.9917 %
718 16-04-2017 00:00:00 11.1475 C 62.5750 %
719 17-04-2017 00:00:00 10.5075 C 62.2583 %
720 18-04-2017 00:00:00 9.84833 C 61.1750 %
721 19-04-2017 00:00:00 9.13917 C 59.2667 %
722 20-04-2017 00:00:00 8.37167 C 53.2417 %
723 21-04-2017 00:00:00 9.44167 C 57.5750 %
724 22-04-2017 00:00:00 10.7925 C 61.3833 %
725 23-04-2017 00:00:00 10.56417 C 59.6333 %
Sensor: Nr:Datum:Temp:Feuchte:
G-T/H 726 24-04-2017 00:00:00 10.66583 C 57.9750 %
727 25-04-2017 00:00:00 11.07395 C 57.7143 %
728 26-04-2017 00:00:00 10.9975 C 52.8000 %
729 27-04-2017 00:00:00 10.80167 C 55.5250 %
730 28-04-2017 00:00:00 9.695 C 54.5000 %
731 29-04-2017 00:00:00 10.51083 C 59.0833 %
732 30-04-2017 00:00:00 11.60583 C 55.6167 %
733 01-05-2017 00:00:00 12.7 C 56.0000 %
734 02-05-2017 00:00:00 11.525 C 63.9432 %
735 03-05-2017 00:00:00 11.48417 C 65.4750 %
736 04-05-2017 00:00:00 12.02333 C 66.8667 %
737 05-05-2017 00:00:00 12.46583 C 66.8917 %
738 06-05-2017 00:00:00 12.505 C 65.2333 %
739 07-05-2017 00:00:00 13.83043 C 67.2696 %
740 08-05-2017 00:00:00 12.83417 C 66.4333 %
741 09-05-2017 00:00:00 12.20583 C 62.3250 %
742 10-05-2017 00:00:00 12.52917 C 54.6833 %
743 11-05-2017 00:00:00 13.12917 C 60.2667 %
744 12-05-2017 00:00:00 14.3375 C 64.2333 %
745 13-05-2017 00:00:00 14.86667 C 65.6583 %
746 14-05-2017 00:00:00 15.34083 C 65.8667 %
747 15-05-2017 00:00:00 16.35667 C 54.4250 %
748 16-05-2017 00:00:00 18.42417 C 50.3083 %
749 17-05-2017 00:00:00 19.76083 C 51.8500 %
750 18-05-2017 00:00:00 18.36833 C 59.9083 %
Sensor: Nr:Datum:Temp:Feuchte:
G-T/H 751 19-05-2017 00:00:00 16.6075 C 64.9333 %
752 20-05-2017 00:00:00 14.935 C 64.1833 %
753 21-05-2017 00:00:00 15.3875 C 58.0667 %
754 22-05-2017 00:00:00 16.8975 C 56.7000 %
755 23-05-2017 00:00:00 17.30167 C 60.5667 %
756 24-05-2017 00:00:00 17.77333 C 59.5750 %
757 25-05-2017 00:00:00 17.38 C 63.0583 %
758 26-05-2017 00:00:00 18.09583 C 61.1583 %
759 27-05-2017 00:00:00 17.95583 C 63.3917 %
760 28-05-2017 00:00:00 18.6625 C 65.0333 %
761 29-05-2017 00:00:00 22.53667 C 59.7333 %
762 30-05-2017 00:00:00 22.135 C 60.5250 %
763 31-05-2017 00:00:00 19.19583 C 54.8917 %
764 01-06-2017 00:00:00 19.02333 C 60.4250 %
765 02-06-2017 00:00:00 19.42667 C 64.1667 %
766 03-06-2017 00:00:00 18.96167 C 68.0500 %
767 04-06-2017 00:00:00 18.245 C 68.2333 %
768 05-06-2017 00:00:00 17.78167 C 63.8583 %
769 06-06-2017 00:00:00 17.53167 C 62.7417 %
770 07-06-2017 00:00:00 16.31 C 63.1083 %
771 08-06-2017 00:00:00 17.10583 C 63.0167 %
772 09-06-2017 00:00:00 17.65833 C 65.4167 %
773 10-06-2017 00:00:00 17.03667 C 64.8083 %
774 11-06-2017 00:00:00 17.98917 C 66.8667 %
775 12-06-2017 00:00:00 20.2225 C 51.9750 %
Sensor: Nr:Datum:Temp:Feuchte:
G-T/H 776 13-06-2017 00:00:00 19.605 C 52.3167 %
777 14-06-2017 00:00:00 20.2375 C 52.8333 %
778 15-06-2017 00:00:00 22.41083 C 52.1917 %
779 16-06-2017 00:00:00 21.05417 C 50.7750 %
780 17-06-2017 00:00:00 19.55083 C 56.9583 %
781 18-06-2017 00:00:00 19.47917 C 61.1333 %
782 19-06-2017 00:00:00 21.37083 C 53.8417 %
783 20-06-2017 00:00:00 23.81417 C 48.4333 %
784 21-06-2017 00:00:00 23.19167 C 55.3333 %
785 22-06-2017 00:00:00 24.54167 C 57.7417 %
786 23-06-2017 00:00:00 23.06 C 57.7583 %
787 24-06-2017 00:00:00 22.64 C 51.3500 %
788 25-06-2017 00:00:00 21.49083 C 54.8583 %
789 26-06-2017 00:00:00 21.5775 C 55.2833 %
790 27-06-2017 00:00:00 20.69417 C 59.6083 %
791 28-06-2017 00:00:00 19.86 C 64.0167 %
792 29-06-2017 00:00:00 19.49417 C 65.1083 %
793 30-06-2017 00:00:00 19.17167 C 60.7667 %
794 01-07-2017 00:00:00 18.81833 C 64.2833 %
795 02-07-2017 00:00:00 18.1925 C 66.6917 %
796 03-07-2017 00:00:00 19.315 C 56.5417 %
797 04-07-2017 00:00:00 20.50083 C 54.7667 %
798 05-07-2017 00:00:00 21.10917 C 57.5583 %
799 06-07-2017 00:00:00 21.4425 C 61.7000 %
800 07-07-2017 00:00:00 21.30333 C 64.3833 %
Sensor: Nr:Datum:Temp:Feuchte:
G-T/H 801 08-07-2017 00:00:00 22.9425 C 56.5250 %
802 09-07-2017 00:00:00 22.685 C 59.5417 %
803 10-07-2017 00:00:00 21.98167 C 63.7417 %
804 11-07-2017 00:00:00 21.20417 C 60.4000 %
805 12-07-2017 00:00:00 20.39167 C 63.4250 %
806 13-07-2017 00:00:00 18.97917 C 57.3833 %
807 14-07-2017 00:00:00 18.96417 C 57.4250 %
808 15-07-2017 00:00:00 18.67083 C 60.6333 %
809 16-07-2017 00:00:00 19.535 C 63.6583 %
810 17-07-2017 00:00:00 19.89917 C 65.6333 %
811 18-07-2017 00:00:00 21.48667 C 62.7583 %
812 19-07-2017 00:00:00 23.825 C 58.2333 %
813 20-07-2017 00:00:00 22.49083 C 62.1083 %
814 21-07-2017 00:00:00 21.79917 C 56.1083 %
815 22-07-2017 00:00:00 22.77167 C 60.8833 %
816 23-07-2017 00:00:00 20.45167 C 59.6000 %
817 24-07-2017 00:00:00 19.83667 C 60.9500 %
818 25-07-2017 00:00:00 18.2725 C 64.9333 %
819 26-07-2017 00:00:00 17.95417 C 67.3667 %
820 27-07-2017 00:00:00 18.53667 C 68.7167 %
821 28-07-2017 00:00:00 18.61833 C 68.6833 %
822 29-07-2017 00:00:00 19.14917 C 68.9333 %
823 30-07-2017 00:00:00 20.87667 C 66.4833 %
824 31-07-2017 00:00:00 21.91167 C 61.1500 %
825 01-08-2017 00:00:00 20.985 C 66.8500 %
Sensor: Nr:Datum:Temp:Feuchte:
G-T/H 826 02-08-2017 00:00:00 21.5925 C 67.6250 %
827 03-08-2017 00:00:00 22.08 C 67.0000 %
828 04-08-2017 00:00:00 21.2975 C 66.9500 %
829 05-08-2017 00:00:00 21.27333 C 64.2583 %
830 06-08-2017 00:00:00 20.1425 C 61.5500 %
831 07-08-2017 00:00:00 19.51083 C 54.8250 %
832 08-08-2017 00:00:00 19.4725 C 62.0000 %
833 09-08-2017 00:00:00 19.2825 C 61.9750 %
834 10-08-2017 00:00:00 18.88083 C 65.6083 %
835 11-08-2017 00:00:00 17.85167 C 68.4083 %
836 12-08-2017 00:00:00 17.38667 C 69.6917 %
837 13-08-2017 00:00:00 17.925 C 70.8917 %
838 14-08-2017 00:00:00 19.18583 C 69.3417 %
839 15-08-2017 00:00:00 19.95167 C 75.4000 %
840 16-08-2017 00:00:00 20.395 C 70.4750 %
841 17-08-2017 00:00:00 20.77833 C 67.9583 %
842 18-08-2017 00:00:00 20.07417 C 69.9500 %
843 19-08-2017 00:00:00 18.63167 C 65.2583 %
844 20-08-2017 00:00:00 18.18833 C 65.5833 %
845 21-08-2017 00:00:00 18.33833 C 61.8250 %
846 22-08-2017 00:00:00 18.3375 C 62.2833 %
847 23-08-2017 00:00:00 19.39 C 63.6250 %
848 24-08-2017 00:00:00 19.39667 C 66.6750 %
849 25-08-2017 00:00:00 19.01417 C 68.4583 %
850 26-08-2017 00:00:00 19.33833 C 70.7917 %
Sensor: Nr:Datum:Temp:Feuchte:
G-T/H 851 27-08-2017 00:00:00 19.525 C 71.7250 %
852 28-08-2017 00:00:00 20.30583 C 68.8833 %
853 29-08-2017 00:00:00 21.09333 C 67.8833 %
854 30-08-2017 00:00:00 20.41167 C 70.1917 %
855 31-08-2017 00:00:00 19.86975 C 70.1176 %
856 01-09-2017 00:00:00 18.04083 C 64.9250 %
857 02-09-2017 00:00:00 17.755 C 68.6500 %
858 03-09-2017 00:00:00 16.90667 C 68.1250 %
859 04-09-2017 00:00:00 16.00917 C 69.3750 %
860 05-09-2017 00:00:00 18.28917 C 72.6000 %
861 06-09-2017 00:00:00 18.70833 C 64.8917 %
862 07-09-2017 00:00:00 17.72833 C 62.5167 %
863 08-09-2017 00:00:00 17.6225 C 64.3417 %
864 09-09-2017 00:00:00 17.3775 C 67.9250 %
865 10-09-2017 00:00:00 16.50417 C 66.3083 %
866 11-09-2017 00:00:00 16.29333 C 68.5500 %
867 12-09-2017 00:00:00 16.13083 C 70.5250 %
868 13-09-2017 00:00:00 15.99917 C 71.1667 %
869 14-09-2017 00:00:00 15.7775 C 71.3250 %
870 15-09-2017 00:00:00 15.14 C 71.7083 %
871 16-09-2017 00:00:00 14.15 C 67.6833 %
872 17-09-2017 00:00:00 14.06833 C 69.8750 %
873 18-09-2017 00:00:00 13.68417 C 70.3917 %
874 19-09-2017 00:00:00 14.2875 C 73.3667 %
875 20-09-2017 00:00:00 14.18167 C 72.9250 %
Sensor: Nr:Datum:Temp:Feuchte:
G-T/H 876 21-09-2017 00:00:00 14.33333 C 68.9000 %
877 22-09-2017 00:00:00 14.20083 C 71.1333 %
878 23-09-2017 00:00:00 14.86583 C 71.6917 %
879 24-09-2017 00:00:00 13.5 C 74.4750 %
880 25-09-2017 00:00:00 14.49667 C 74.4000 %
881 26-09-2017 00:00:00 14.90833 C 74.1417 %
882 27-09-2017 00:00:00 15.24333 C 75.2000 %
883 28-09-2017 00:00:00 15.29833 C 75.7917 %
884 29-09-2017 00:00:00 16.4625 C 76.9750 %
885 30-09-2017 00:00:00 16.51167 C 76.8667 %
886 01-10-2017 00:00:00 15.07167 C 73.4917 %
887 02-10-2017 00:00:00 14.96167 C 75.8333 %
888 03-10-2017 00:00:00 15.05583 C 75.3167 %
889 04-10-2017 00:00:00 14.14417 C 72.4833 %
890 05-10-2017 00:00:00 14.39917 C 74.4417 %
891 06-10-2017 00:00:00 13.515 C 72.0000 %
892 07-10-2017 00:00:00 13.36583 C 74.1000 %
893 08-10-2017 00:00:00 13.59833 C 76.1167 %
894 09-10-2017 00:00:00 13.71417 C 76.4750 %
895 10-10-2017 00:00:00 14.10667 C 77.2250 %
896 11-10-2017 00:00:00 14.48833 C 77.7500 %
897 12-10-2017 00:00:00 14.45833 C 77.2083 %
898 13-10-2017 00:00:00 14.39417 C 77.1167 %
899 14-10-2017 00:00:00 14.55667 C 77.2000 %
900 15-10-2017 00:00:00 14.22167 C 77.1917 %
Sensor: Nr:Datum:Temp:Feuchte:
G-T/H 901 16-10-2017 00:00:00 14.72417 C 80.6250 %
902 17-10-2017 00:00:00 14.50583 C 80.0333 %
903 18-10-2017 00:00:00 14.23 C 79.1833 %
904 19-10-2017 00:00:00 13.8025 C 76.9750 %
905 20-10-2017 00:00:00 14.11261 C 77.8235 %
906 21-10-2017 00:00:00 13.58417 C 75.6250 %
907 22-10-2017 00:00:00 13.64333 C 74.5083 %
908 23-10-2017 00:00:00 13.15167 C 73.8667 %
909 24-10-2017 00:00:00 13.7125 C 77.3167 %
910 25-10-2017 00:00:00 14.60167 C 78.0000 %
911 26-10-2017 00:00:00 14.7325 C 78.0000 %
912 27-10-2017 00:00:00 14.395 C 76.2583 %
913 28-10-2017 00:00:00 13.38917 C 71.6000 %
914 29-10-2017 00:00:00 13.2736 C 70.4000 %
915 30-10-2017 00:00:00 11.94167 C 67.1167 %
916 31-10-2017 00:00:00 11.315 C 67.7083 %
917 01-11-2017 00:00:00 11.75833 C 71.3750 %
918 02-11-2017 00:00:00 11.43667 C 71.0500 %
919 03-11-2017 00:00:00 11.36333 C 71.6167 %
920 04-11-2017 00:00:00 11.05083 C 71.6417 %
921 05-11-2017 00:00:00 11.7925 C 73.8417 %
922 06-11-2017 00:00:00 10.80417 C 68.9083 %
923 07-11-2017 00:00:00 10.16167 C 68.1500 %
924 08-11-2017 00:00:00 10.51583 C 72.8417 %
925 09-11-2017 00:00:00 10.89833 C 74.4833 %
Sensor: Nr:Datum:Temp:Feuchte:
G-T/H 926 10-11-2017 00:00:00 10.70833 C 72.4333 %
927 11-11-2017 00:00:00 10.25917 C 71.3500 %
928 12-11-2017 00:00:00 9.99417 C 71.9333 %
929 13-11-2017 00:00:00 9.82667 C 72.4833 %
930 14-11-2017 00:00:00 9.44833 C 71.5833 %
931 15-11-2017 00:00:00 9.78417 C 73.4833 %
932 16-11-2017 00:00:00 9.8675 C 71.0000 %
933 17-11-2017 00:00:00 10.21917 C 72.6917 %
934 18-11-2017 00:00:00 8.93333 C 68.2833 %
935 19-11-2017 00:00:00 9.44917 C 70.7667 %
936 20-11-2017 00:00:00 9.4175 C 70.1500 %
937 21-11-2017 00:00:00 10.07833 C 73.5833 %
938 22-11-2017 00:00:00 10.72 C 73.9917 %
939 23-11-2017 00:00:00 10.0175 C 71.3000 %
940 24-11-2017 00:00:00 11.32583 C 75.4750 %
941 25-11-2017 00:00:00 10.815 C 70.9083 %
942 26-11-2017 00:00:00 9.25 C 65.7167 %
943 27-11-2017 00:00:00 9.09917 C 68.4083 %
944 28-11-2017 00:00:00 9.38167 C 70.0917 %
945 29-11-2017 00:00:00 8.70583 C 68.4167 %
946 30-11-2017 00:00:00 8.38083 C 67.8167 %
947 01-12-2017 00:00:00 7.8275 C 66.9750 %
948 02-12-2017 00:00:00 6.8025 C 64.3667 %
949 03-12-2017 00:00:00 7.2 C 63.1583 %
950 04-12-2017 00:00:00 7.5275 C 69.7417 %
Sensor: Nr:Datum:Temp:Feuchte:
G-T/H 951 05-12-2017 00:00:00 8.31833 C 73.2750 %
952 06-12-2017 00:00:00 8.98333 C 73.6833 %
953 07-12-2017 00:00:00 8.76667 C 67.2083 %
954 08-12-2017 00:00:00 8.66917 C 66.2417 %
955 09-12-2017 00:00:00 7.4925 C 59.9167 %
956 10-12-2017 00:00:00 7.18333 C 64.1750 %
957 11-12-2017 00:00:00 7.94417 C 72.5667 %
958 12-12-2017 00:00:00 8.19083 C 68.4083 %
959 13-12-2017 00:00:00 7.93917 C 67.1333 %
960 14-12-2017 00:00:00 7.92667 C 69.1000 %
961 15-12-2017 00:00:00 7.94167 C 70.5000 %
962 16-12-2017 00:00:00 7.925 C 71.0833 %
963 17-12-2017 00:00:00 7.8375 C 69.7667 %
964 18-12-2017 00:00:00 7.10333 C 67.6500 %
965 19-12-2017 00:00:00 7.60417 C 70.4667 %
966 20-12-2017 00:00:00 8.29083 C 73.0000 %
967 21-12-2017 00:00:00 9.43333 C 74.8833 %
968 22-12-2017 00:00:00 10.32333 C 75.8833 %
969 23-12-2017 00:00:00 10.45667 C 76.0750 %
970 24-12-2017 00:00:00 10.61417 C 75.9000 %
971 25-12-2017 00:00:00 10.30833 C 71.7667 %
972 26-12-2017 00:00:00 9.0975 C 68.1083 %
973 27-12-2017 00:00:00 8.905 C 71.4083 %
974 28-12-2017 00:00:00 8.96167 C 70.6417 %
975 29-12-2017 00:00:00 14.36852 C 70.8611 %
Sensor: Nr:Datum:Temp:Feuchte:
G-T/H 976 30-12-2017 00:00:00 8.1925 C 73.4750 %
977 31-12-2017 00:00:00 10.73 C 74.9167 %
978 01-01-2018 00:00:00 10.91333 C 70.9167 %
979 02-01-2018 00:00:00 9.93833 C 71.7000 %
980 03-01-2018 00:00:00 9.98417 C 71.9333 %
981 04-01-2018 00:00:00 9.81167 C 73.7667 %
982 05-01-2018 00:00:00 10.06833 C 72.5333 %
983 06-01-2018 00:00:00 9.95417 C 74.1667 %
984 07-01-2018 00:00:00 9.5275 C 72.0083 %
985 08-01-2018 00:00:00 8.9575 C 69.3000 %
986 09-01-2018 00:00:00 8.81583 C 71.4583 %
987 10-01-2018 00:00:00 9.03917 C 73.1917 %
988 11-01-2018 00:00:00 9.4725 C 74.4333 %
989 12-01-2018 00:00:00 9.7375 C 75.0000 %
990 13-01-2018 00:00:00 9.48 C 71.6333 %
991 14-01-2018 00:00:00 8.7325 C 64.1833 %
992 15-01-2018 00:00:00 8.00083 C 65.2500 %
993 16-01-2018 00:00:00 8.6025 C 70.4000 %
994 17-01-2018 00:00:00 8.19 C 66.7833 %
995 18-01-2018 00:00:00 8.2875 C 68.1000 %
996 19-01-2018 00:00:00 8.47333 C 67.2417 %
997 20-01-2018 00:00:00 7.515 C 67.7833 %
998 21-01-2018 00:00:00 7.5275 C 70.9250 %
999 22-01-2018 00:00:00 7.75 C 71.9417 %
1000 23-01-2018 00:00:00 8.69492 C 73.4661 %
Sensor: Nr:Datum:Temp:Feuchte:
G-T/H 1001 24-01-2018 00:00:00 9.75556 C 74.8120 %
1002 25-01-2018 00:00:00 10.6075 C 75.1917 %
1003 26-01-2018 00:00:00 10.3125 C 74.1917 %
1004 27-01-2018 00:00:00 9.54 C 72.2583 %
1005 28-01-2018 00:00:00 9.4625 C 73.1917 %
1006 29-01-2018 00:00:00 10.13833 C 74.2667 %
1007 30-01-2018 00:00:00 9.76167 C 71.3917 %
1008 31-01-2018 00:00:00 9.43 C 72.7083 %
1009 01-02-2018 00:00:00 8.55 C 67.8083 %
1010 02-02-2018 00:00:00 7.83917 C 68.3833 %
1011 03-02-2018 00:00:00 7.98992 C 68.2521 %
1012 04-02-2018 00:00:00 7.4 C 63.4333 %
1013 05-02-2018 00:00:00 6.47 C 60.2917 %
1014 06-02-2018 00:00:00 6.30833 C 61.8333 %
1015 07-02-2018 00:00:00 6.2075 C 63.0250 %
1016 08-02-2018 00:00:00 5.975 C 61.9833 %
1017 09-02-2018 00:00:00 5.43333 C 63.6917 %
1018 10-02-2018 00:00:00 6.105 C 66.3083 %
1019 11-02-2018 00:00:00 6.99167 C 66.3833 %
1020 12-02-2018 00:00:00 7.07833 C 64.5250 %
1021 13-02-2018 00:00:00 6.335 C 60.4167 %
1022 14-02-2018 00:00:00 5.87917 C 61.6500 %
1023 15-02-2018 00:00:00 5.88583 C 66.8833 %
1024 16-02-2018 00:00:00 6.29667 C 70.6750 %
1025 17-02-2018 00:00:00 6.07083 C 67.1000 %
Sensor: Nr:Datum:Temp:Feuchte:
G-T/H 1026 18-02-2018 00:00:00 5.89667 C 66.5500 %
1027 19-02-2018 00:00:00 5.89083 C 68.3167 %
1028 20-02-2018 00:00:00 6.01 C 66.1333 %
1029 21-02-2018 00:00:00 5.89083 C 63.8500 %
1030 22-02-2018 00:00:00 5.73333 C 61.2667 %
1031 23-02-2018 00:00:00 5.48583 C 60.5583 %
1032 24-02-2018 00:00:00 5.12583 C 59.3667 %
1033 25-02-2018 00:00:00 4.93667 C 56.8667 %
1034 26-02-2018 00:00:00 4.61167 C 55.2417 %
1035 27-02-2018 00:00:00 4.5275 C 52.9667 %
1036 28-02-2018 00:00:00 4.28667 C 51.9750 %
1037 01-03-2018 00:00:00 4.305 C 53.0333 %
1038 02-03-2018 00:00:00 4.77417 C 54.7917 %
1039 03-03-2018 00:00:00 5.21917 C 60.2833 %
1040 04-03-2018 00:00:00 6.01083 C 65.3000 %
1041 05-03-2018 00:00:00 7.26 C 67.7083 %
1042 06-03-2018 00:00:00 7.275 C 64.2583 %
1043 07-03-2018 00:00:00 8.05833 C 67.2083 %
1044 08-03-2018 00:00:00 8.30667 C 69.2500 %
1045 09-03-2018 00:00:00 8.13 C 70.0750 %
1046 10-03-2018 00:00:00 8.92167 C 72.5500 %
1047 11-03-2018 00:00:00 10.33 C 74.6417 %
1048 12-03-2018 00:00:00 10.33667 C 74.2417 %
1049 13-03-2018 00:00:00 10.06083 C 73.3417 %
1050 14-03-2018 00:00:00 9.31667 C 70.8667 %
Sensor: Nr:Datum:Temp:Feuchte:
G-T/H 1051 15-03-2018 00:00:00 8.67083 C 68.2833 %
1052 16-03-2018 00:00:00 9.4175 C 72.0250 %
1053 17-03-2018 00:00:00 8.13333 C 61.2417 %
1054 18-03-2018 00:00:00 6.64 C 57.5417 %
1055 19-03-2018 00:00:00 6.395 C 58.4417 %
1056 20-03-2018 00:00:00 6.19167 C 59.8333 %
1057 21-03-2018 00:00:00 6.24 C 61.0167 %
1058 22-03-2018 00:00:00 6.45333 C 62.8500 %
1059 23-03-2018 00:00:00 7.555 C 68.1250 %
1060 24-03-2018 00:00:00 7.95833 C 66.2333 %
1061 25-03-2018 00:00:00 7.42522 C 63.5130 %
1062 26-03-2018 00:00:00 8.47583 C 65.8417 %
1063 27-03-2018 00:00:00 8.32583 C 65.0083 %
1064 28-03-2018 00:00:00 9.05 C 70.1833 %
1065 29-03-2018 00:00:00 9.1875 C 67.9333 %
1066 30-03-2018 00:00:00 8.73083 C 65.5333 %
1067 31-03-2018 00:00:00 9.3075 C 68.4417 %
1068 01-04-2018 00:00:00 9.65917 C 69.4500 %
1069 02-04-2018 00:00:00 9.52333 C 68.1000 %
1070 03-04-2018 00:00:00 10.725 C 69.7000 %
1071 04-04-2018 00:00:00 11.48583 C 70.6333 %
1072 05-04-2018 00:00:00 10.94833 C 68.8000 %
1073 06-04-2018 00:00:00 9.26167 C 62.4833 %
1074 07-04-2018 00:00:00 10.58667 C 62.3917 %
1075 08-04-2018 00:00:00 13.47 C 59.0417 %
Sensor: Nr:Datum:Temp:Feuchte:
G-T/H 1076 09-04-2018 00:00:00 14.53917 C 57.1667 %
1077 10-04-2018 00:00:00 13.77667 C 63.5000 %
1078 11-04-2018 00:00:00 13.00917 C 66.6083 %
1079 12-04-2018 00:00:00 12.9425 C 66.9917 %
1080 13-04-2018 00:00:00 12.73333 C 67.2917 %
1081 14-04-2018 00:00:00 13.63417 C 61.7667 %
1082 15-04-2018 00:00:00 13.92167 C 65.0333 %
1083 16-04-2018 00:00:00 14.52167 C 62.0000 %
1084 17-04-2018 00:00:00 14.20333 C 61.1500 %
1085 18-04-2018 00:00:00 14.54417 C 62.2333 %
1086 19-04-2018 00:00:00 14.79583 C 62.5583 %
1087 20-04-2018 00:00:00 15.73333 C 61.3833 %
1088 21-04-2018 00:00:00 15.80333 C 63.5083 %
1089 22-04-2018 00:00:00 15.78333 C 66.2917 %
1090 23-04-2018 00:00:00 17.01667 C 62.7833 %
1091 24-04-2018 00:00:00 16.23833 C 56.5917 %
1092 25-04-2018 00:00:00 15.21833 C 62.0333 %
1093 26-04-2018 00:00:00 13.76 C 51.5583 %
1094 27-04-2018 00:00:00 13.61917 C 56.6250 %
1095 28-04-2018 00:00:00 13.9325 C 61.2917 %
1096 29-04-2018 00:00:00 14.02083 C 64.6000 %
1097 30-04-2018 00:00:00 14.6725 C 64.2917 %
1098 01-05-2018 00:00:00 13.36417 C 58.0083 %
1099 02-05-2018 00:00:00 13.24833 C 56.1500 %
1100 03-05-2018 00:00:00 13.77 C 57.8750 %
Sensor: Nr:Datum:Temp:Feuchte:
G-T/H 1101 04-05-2018 00:00:00 13.83917 C 58.3750 %
1102 05-05-2018 00:00:00 15.43167 C 55.9333 %
1103 06-05-2018 00:00:00 15.6825 C 57.6750 %
1104 07-05-2018 00:00:00 17.61 C 52.7917 %
1105 08-05-2018 00:00:00 18.74917 C 49.1583 %
1106 09-05-2018 00:00:00 17.61417 C 55.5167 %
1107 10-05-2018 00:00:00 16.74583 C 61.1667 %
1108 11-05-2018 00:00:00 15.555 C 63.3500 %
1109 12-05-2018 00:00:00 15.79083 C 63.9333 %
1110 13-05-2018 00:00:00 16.08833 C 66.4583 %
1111 14-05-2018 00:00:00 15.57667 C 68.2083 %
1112 15-05-2018 00:00:00 16.8825 C 59.6083 %
1113 16-05-2018 00:00:00 16.71333 C 63.0083 %
1114 17-05-2018 00:00:00 15.91 C 63.1083 %
1115 18-05-2018 00:00:00 15.1975 C 60.7083 %
1116 19-05-2018 00:00:00 15.0375 C 63.1750 %
1117 20-05-2018 00:00:00 15.13333 C 64.4667 %
1118 21-05-2018 00:00:00 16.85667 C 64.3167 %
1119 22-05-2018 00:00:00 17.2475 C 65.6333 %
1120 23-05-2018 00:00:00 16.85417 C 68.0583 %
1121 24-05-2018 00:00:00 16.56417 C 69.4500 %
1122 25-05-2018 00:00:00 17.3275 C 69.1583 %
1123 26-05-2018 00:00:00 18.92583 C 67.1167 %
1124 27-05-2018 00:00:00 18.99167 C 68.2750 %
1125 28-05-2018 00:00:00 18.94167 C 69.8667 %
Sensor: Nr:Datum:Temp:Feuchte:
G-T/H 1126 29-05-2018 00:00:00 19.4375 C 69.9667 %
1127 30-05-2018 00:00:00 19.22417 C 70.2750 %
1128 31-05-2018 00:00:00 19.74667 C 69.8500 %
1129 01-06-2018 00:00:00 19.70417 C 70.5583 %
1130 02-06-2018 00:00:00 19.1175 C 70.5000 %
1131 03-06-2018 00:00:00 19.86917 C 66.6000 %
1132 04-06-2018 00:00:00 21.16 C 62.4500 %
1133 05-06-2018 00:00:00 21.1225 C 62.2500 %
1134 06-06-2018 00:00:00 20.28167 C 64.7000 %
1135 07-06-2018 00:00:00 20.33167 C 66.7250 %
1136 08-06-2018 00:00:00 20.14167 C 68.3250 %
1137 09-06-2018 00:00:00 21.14508 C 68.4918 %
1138 10-06-2018 00:00:00 20.73583 C 69.4833 %
1139 11-06-2018 00:00:00 20.2075 C 70.2833 %
1140 12-06-2018 00:00:00 18.93333 C 70.9417 %
1141 13-06-2018 00:00:00 17.78333 C 67.8500 %
1142 14-06-2018 00:00:00 17.08167 C 65.6167 %
1143 15-06-2018 00:00:00 17.87667 C 69.7333 %
1144 16-06-2018 00:00:00 19.23167 C 66.0250 %
1145 17-06-2018 00:00:00 19.20917 C 66.1250 %
1146 18-06-2018 00:00:00 18.5725 C 66.5167 %
1147 19-06-2018 00:00:00 19.3025 C 68.1667 %
1148 20-06-2018 00:00:00 21.34417 C 62.6417 %
1149 21-06-2018 00:00:00 20.40083 C 61.7667 %
1150 22-06-2018 00:00:00 18.12583 C 59.1417 %
Sensor: Nr:Datum:Temp:Feuchte:
G-T/H 1151 23-06-2018 00:00:00 16.91917 C 60.9000 %
1152 24-06-2018 00:00:00 17.08583 C 64.6833 %
1153 25-06-2018 00:00:00 17.72833 C 66.0250 %
1154 26-06-2018 00:00:00 18.48917 C 62.1583 %
1155 27-06-2018 00:00:00 19.815 C 57.9000 %
1156 28-06-2018 00:00:00 20.73667 C 53.0667 %
1157 29-06-2018 00:00:00 22.01 C 53.8250 %
1158 30-06-2018 00:00:00 22.90917 C 48.2667 %
1159 01-07-2018 00:00:00 21.50833 C 49.2500 %
1160 02-07-2018 00:00:00 21.34083 C 43.1083 %
1161 03-07-2018 00:00:00 20.70167 C 49.9250 %
1162 04-07-2018 00:00:00 21.1075 C 60.3667 %
1163 05-07-2018 00:00:00 21.2225 C 66.7750 %
1164 06-07-2018 00:00:00 20.8225 C 63.6917 %
1165 07-07-2018 00:00:00 20.45126 C 62.5294 %
1166 08-07-2018 00:00:00 20.11833 C 59.9000 %
1167 09-07-2018 00:00:00 20.74917 C 55.1417 %
1168 10-07-2018 00:00:00 20.3825 C 58.3167 %
1169 11-07-2018 00:00:00 18.89583 C 62.6083 %
1170 12-07-2018 00:00:00 18.92167 C 65.2500 %
1171 13-07-2018 00:00:00 20.39417 C 62.1167 %
1172 14-07-2018 00:00:00 20.52583 C 63.2833 %
1173 15-07-2018 00:00:00 20.67417 C 63.4333 %
1174 16-07-2018 00:00:00 20.8475 C 63.2583 %
1175 17-07-2018 00:00:00 20.97167 C 63.0667 %
Sensor: Nr:Datum:Temp:Feuchte:
G-T/H 1176 18-07-2018 00:00:00 20.9325 C 59.6167 %
1177 19-07-2018 00:00:00 21.11667 C 54.9500 %
1178 20-07-2018 00:00:00 21.86917 C 52.9083 %
1179 21-07-2018 00:00:00 21.57333 C 58.8500 %
1180 22-07-2018 00:00:00 20.75417 C 62.4750 %
1181 23-07-2018 00:00:00 22.1575 C 57.9833 %
1182 24-07-2018 00:00:00 23.88 C 52.9250 %
1183 25-07-2018 00:00:00 24.83333 C 49.4917 %
1184 26-07-2018 00:00:00 25.99417 C 48.0750 %
1185 27-07-2018 00:00:00 25.445 C 46.9000 %
1186 28-07-2018 00:00:00 24.04917 C 55.1667 %
1187 29-07-2018 00:00:00 22.61667 C 58.5167 %
1188 30-07-2018 00:00:00 24.22583 C 54.8000 %
1189 31-07-2018 00:00:00 25.41833 C 51.8250 %
1190 01-08-2018 00:00:00 23.80667 C 61.0833 %
1191 02-08-2018 00:00:00 23.36417 C 62.3583 %
1192 03-08-2018 00:00:00 24.53167 C 58.5333 %
1193 04-08-2018 00:00:00 25.9125 C 50.5583 %
1194 05-08-2018 00:00:00 24.74417 C 53.5917 %
1195 06-08-2018 00:00:00 24.53333 C 49.9583 %
1196 07-08-2018 00:00:00 24.12667 C 54.2583 %
1197 08-08-2018 00:00:00 24.27667 C 57.4917 %
1198 09-08-2018 00:00:00 23.23333 C 60.5250 %
1199 10-08-2018 00:00:00 21.49417 C 54.0000 %
1200 11-08-2018 00:00:00 20.81667 C 56.0583 %
Sensor: Nr:Datum:Temp:Feuchte:
G-T/H 1201 12-08-2018 00:00:00 20.13 C 56.1333 %
1202 13-08-2018 00:00:00 20.07083 C 60.5667 %
1203 14-08-2018 00:00:00 19.80333 C 63.5000 %
1204 15-08-2018 00:00:00 19.82917 C 65.0667 %
1205 16-08-2018 00:00:00 19.9875 C 64.3500 %
1206 17-08-2018 00:00:00 20.46083 C 64.9583 %
1207 18-08-2018 00:00:00 19.96167 C 62.2667 %
1208 19-08-2018 00:00:00 19.83667 C 62.1667 %
1209 20-08-2018 00:00:00 21.2525 C 62.2667 %
1210 21-08-2018 00:00:00 21.17667 C 63.9333 %
1211 22-08-2018 00:00:00 21.1725 C 64.1750 %
1212 23-08-2018 00:00:00 21.47667 C 64.7000 %
1213 24-08-2018 00:00:00 21.1275 C 62.0417 %
1214 25-08-2018 00:00:00 19.5075 C 59.1667 %
1215 26-08-2018 00:00:00 18.22417 C 55.7083 %
1216 27-08-2018 00:00:00 18.48167 C 60.4500 %
1217 28-08-2018 00:00:00 18.53833 C 61.2250 %
1218 29-08-2018 00:00:00 18.56917 C 62.2417 %
1219 30-08-2018 00:00:00 18.82333 C 63.4833 %
1220 31-08-2018 00:00:00 18.3025 C 59.8750 %
1221 01-09-2018 00:00:00 17.4825 C 59.8917 %
1222 02-09-2018 00:00:00 16.9325 C 62.1583 %
1223 03-09-2018 00:00:00 18.13333 C 66.0000 %
1224 04-09-2018 00:00:00 19.61083 C 66.7083 %
1225 05-09-2018 00:00:00 19.59583 C 67.1750 %
Sensor: Nr:Datum:Temp:Feuchte:
G-T/H 1226 06-09-2018 00:00:00 19.38917 C 68.3667 %
1227 07-09-2018 00:00:00 18.6775 C 67.7917 %
1228 08-09-2018 00:00:00 17.10833 C 59.8333 %
1229 09-09-2018 00:00:00 17.1975 C 64.7667 %
1230 10-09-2018 00:00:00 18.47583 C 60.5250 %
1231 11-09-2018 00:00:00 19.45417 C 58.4917 %
1232 12-09-2018 00:00:00 18.84083 C 60.8833 %
1233 13-09-2018 00:00:00 18.58083 C 66.2167 %
1234 14-09-2018 00:00:00 18.04833 C 65.0000 %
1235 15-09-2018 00:00:00 17.66667 C 59.8833 %
1236 16-09-2018 00:00:00 16.83 C 61.8000 %
1237 17-09-2018 00:00:00 17.8475 C 57.0583 %
1238 18-09-2018 00:00:00 19.79417 C 56.2333 %
1239 19-09-2018 00:00:00 21.03083 C 58.0583 %
1240 20-09-2018 00:00:00 20.82 C 55.5500 %
1241 21-09-2018 00:00:00 19.29417 C 59.4833 %
1242 22-09-2018 00:00:00 17.24917 C 60.5250 %
1243 23-09-2018 00:00:00 16.50167 C 65.7500 %
1244 24-09-2018 00:00:00 15.14583 C 63.3167 %
1245 25-09-2018 00:00:00 13.7275 C 62.7333 %
1246 26-09-2018 00:00:00 13.02583 C 63.2917 %
1247 27-09-2018 00:00:00 13.0625 C 65.7333 %
1248 28-09-2018 00:00:00 13.53583 C 69.5083 %
1249 29-09-2018 00:00:00 12.62 C 64.5750 %
1250 30-09-2018 00:00:00 11.83417 C 63.4000 %
Sensor: Nr:Datum:Temp:Feuchte:
G-T/H 1251 01-10-2018 00:00:00 12.43167 C 68.0167 %
1252 02-10-2018 00:00:00 12.47917 C 67.0333 %
1253 03-10-2018 00:00:00 13.125 C 70.8750 %
1254 04-10-2018 00:00:00 12.85083 C 66.8417 %
1255 05-10-2018 00:00:00 13.175 C 68.1250 %
1256 06-10-2018 00:00:00 12.79833 C 73.9167 %
1257 07-10-2018 00:00:00 14.22167 C 74.0833 %
1258 08-10-2018 00:00:00 13.52083 C 69.3917 %
1259 09-10-2018 00:00:00 13.39083 C 72.8583 %
1260 10-10-2018 00:00:00 13.75333 C 75.3000 %
1261 11-10-2018 00:00:00 13.985 C 75.0167 %
1262 12-10-2018 00:00:00 14.54333 C 75.8417 %
1263 13-10-2018 00:00:00 15.69 C 72.6083 %
1264 14-10-2018 00:00:00 15.11667 C 72.1917 %
1265 15-10-2018 00:00:00 14.6725 C 73.1583 %
1266 16-10-2018 00:00:00 14.08333 C 72.8917 %
1267 17-10-2018 00:00:00 13.86667 C 73.4083 %
1268 18-10-2018 00:00:00 14.26083 C 74.7500 %
1269 19-10-2018 00:00:00 14.28333 C 73.2417 %
1270 20-10-2018 00:00:00 14.01833 C 72.8250 %
1271 21-10-2018 00:00:00 12.52583 C 67.5917 %
1272 22-10-2018 00:00:00 11.7575 C 67.8750 %
1273 23-10-2018 00:00:00 11.71417 C 69.2333 %
1274 24-10-2018 00:00:00 13.1175 C 73.3417 %
1275 25-10-2018 00:00:00 13.88083 C 73.4083 %
Sensor: Nr:Datum:Temp:Feuchte:
G-T/H 1276 26-10-2018 00:00:00 13.5375 C 68.0250 %
1277 27-10-2018 00:00:00 12.19667 C 65.8417 %
1278 28-10-2018 00:00:00 10.9176 C 62.4880 %
1279 29-10-2018 00:00:00 10.95583 C 65.6250 %
1280 30-10-2018 00:00:00 10.86333 C 67.5167 %
1281 31-10-2018 00:00:00 10.8775 C 68.4750 %
1282 01-11-2018 00:00:00 10.72083 C 69.2750 %
1283 02-11-2018 00:00:00 11.285 C 72.4667 %
1284 03-11-2018 00:00:00 10.44 C 67.0750 %
1285 04-11-2018 00:00:00 10.265 C 68.6167 %
1286 05-11-2018 00:00:00 11.60167 C 72.5750 %
1287 06-11-2018 00:00:00 11.5475 C 72.0167 %
1288 07-11-2018 00:00:00 11.24083 C 72.4083 %
1289 08-11-2018 00:00:00 11.87833 C 74.0333 %
1290 09-11-2018 00:00:00 11.62333 C 73.2750 %
1291 10-11-2018 00:00:00 12.22833 C 74.7000 %
1292 11-11-2018 00:00:00 12.73917 C 75.7833 %
1293 12-11-2018 00:00:00 13.255 C 75.6083 %
1294 13-11-2018 00:00:00 13.2975 C 75.3417 %
1295 14-11-2018 00:00:00 11.54667 C 70.8583 %
1296 15-11-2018 00:00:00 11.19417 C 71.8333 %
1297 16-11-2018 00:00:00 10.76833 C 68.8833 %
1298 17-11-2018 00:00:00 9.25167 C 68.0000 %
1299 18-11-2018 00:00:00 8.3775 C 68.4167 %
1300 19-11-2018 00:00:00 8.15 C 69.1333 %
Sensor: Nr:Datum:Temp:Feuchte:
G-T/H 1301 20-11-2018 00:00:00 8.56667 C 68.8833 %
1302 21-11-2018 00:00:00 8.45333 C 69.6833 %
1303 22-11-2018 00:00:00 8.65333 C 70.9083 %
1304 23-11-2018 00:00:00 7.69667 C 69.4917 %
1305 24-11-2018 00:00:00 8.0325 C 72.4750 %
1306 25-11-2018 00:00:00 9.05667 C 73.9333 %
1307 26-11-2018 00:00:00 9.6625 C 74.3250 %
1308 27-11-2018 00:00:00 9.61333 C 72.8000 %
1309 28-11-2018 00:00:00 8.91917 C 71.9583 %
1310 29-11-2018 00:00:00 9.26083 C 73.8000 %
1311 30-11-2018 00:00:00 9.63 C 74.7833 %
1312 01-12-2018 00:00:00 9.92417 C 74.6250 %
1313 02-12-2018 00:00:00 10.7275 C 75.6167 %
1314 03-12-2018 00:00:00 11.87333 C 76.5417 %
1315 04-12-2018 00:00:00 11.3275 C 72.0250 %
1316 05-12-2018 00:00:00 9.61933 C 69.0504 %
1317 06-12-2018 00:00:00 10.40583 C 72.9583 %
1318 07-12-2018 00:00:00 11.82917 C 74.0583 %
1319 08-12-2018 00:00:00 11.04667 C 70.6667 %
1320 09-12-2018 00:00:00 10.81167 C 72.8000 %
1321 10-12-2018 00:00:00 10.01083 C 71.3083 %
1322 11-12-2018 00:00:00 9.19083 C 71.8583 %
1323 12-12-2018 00:00:00 8.70667 C 72.1583 %
1324 13-12-2018 00:00:00 8.07083 C 70.1167 %
1325 14-12-2018 00:00:00 7.78 C 68.6583 %
Sensor: Nr:Datum:Temp:Feuchte:
G-T/H 1326 15-12-2018 00:00:00 7.575 C 68.1083 %
1327 16-12-2018 00:00:00 7.33667 C 67.4333 %
1328 17-12-2018 00:00:00 7.74583 C 71.2333 %
1329 18-12-2018 00:00:00 8.3475 C 72.4667 %
1330 19-12-2018 00:00:00 8.60083 C 72.9417 %
1331 20-12-2018 00:00:00 9.3175 C 74.0000 %
1332 21-12-2018 00:00:00 10.0375 C 74.8333 %
1333 22-12-2018 00:00:00 10.99417 C 74.3000 %
1334 23-12-2018 00:00:00 10.525 C 74.6917 %
1335 24-12-2018 00:00:00 10.26583 C 72.2917 %
1336 25-12-2018 00:00:00 8.6825 C 71.1167 %
1337 26-12-2018 00:00:00 7.58083 C 70.1333 %
1338 27-12-2018 00:00:00 6.98167 C 70.2333 %
1339 28-12-2018 00:00:00 6.8575 C 71.5833 %
1340 29-12-2018 00:00:00 7.085 C 72.4583 %
1341 30-12-2018 00:00:00 8.24 C 74.4417 %
1342 31-12-2018 00:00:00 9.18833 C 75.6083 %
1343 01-01-2019 00:00:00 9.65583 C 75.8167 %
1344 02-01-2019 00:00:00 8.91333 C 73.4000 %
1345 03-01-2019 00:00:00 7.65417 C 72.7000 %
1346 04-01-2019 00:00:00 7.72667 C 73.7750 %
1347 05-01-2019 00:00:00 8.26833 C 74.6083 %
1348 06-01-2019 00:00:00 8.8 C 75.9250 %
1349 07-01-2019 00:00:00 8.94 C 75.0167 %
1350 08-01-2019 00:00:00 9.01833 C 74.5417 %
Sensor: Nr:Datum:Temp:Feuchte:
G-T/H 1351 09-01-2019 00:00:00 8.46417 C 73.0417 %
1352 10-01-2019 00:00:00 7.90083 C 71.3750 %
1353 11-01-2019 00:00:00 7.57167 C 72.1167 %
1354 12-01-2019 00:00:00 8.24417 C 74.2500 %
1355 13-01-2019 00:00:00 8.91667 C 75.6333 %
1356 14-01-2019 00:00:00 9.11083 C 74.7417 %
1357 15-01-2019 00:00:00 8.33333 C 74.3833 %
1358 16-01-2019 00:00:00 8.5125 C 74.7083 %
1359 17-01-2019 00:00:00 8.4975 C 74.5500 %
1360 18-01-2019 00:00:00 7.79333 C 72.6583 %
1361 19-01-2019 00:00:00 6.99833 C 69.2000 %
1362 20-01-2019 00:00:00 6.61083 C 64.8583 %
1363 21-01-2019 00:00:00 6.18667 C 61.1750 %
1364 22-01-2019 00:00:00 6.04833 C 60.2083 %
1365 23-01-2019 00:00:00 6.2575 C 63.4917 %
1366 24-01-2019 00:00:00 6.30833 C 65.6583 %
1367 25-01-2019 00:00:00 6.2425 C 67.2833 %
1368 26-01-2019 00:00:00 6.51833 C 71.7083 %
1369 27-01-2019 00:00:00 7.75333 C 73.9667 %
1370 28-01-2019 00:00:00 7.77417 C 74.2417 %
1371 29-01-2019 00:00:00 7.46167 C 73.9917 %
1372 30-01-2019 00:00:00 6.65667 C 69.5667 %
1373 31-01-2019 00:00:00 6.54333 C 72.1667 %
1374 01-02-2019 00:00:00 6.475 C 73.4167 %
1375 02-02-2019 00:00:00 6.70083 C 74.6612 %
Sensor: Nr:Datum:Temp:Feuchte:
G-T/H 1376 03-02-2019 00:00:00 6.98667 C 74.3417 %
1377 04-02-2019 00:00:00 6.68333 C 73.8083 %
1378 05-02-2019 00:00:00 7.12 C 74.5083 %
1379 06-02-2019 00:00:00 6.9875 C 73.4333 %
1380 07-02-2019 00:00:00 7.0025 C 74.8750 %
1381 08-02-2019 00:00:00 7.93833 C 76.1083 %
1382 09-02-2019 00:00:00 8.85917 C 76.1583 %
1383 10-02-2019 00:00:00 9.2225 C 75.9667 %
1384 11-02-2019 00:00:00 8.8125 C 75.1083 %
1385 12-02-2019 00:00:00 8.09167 C 74.2167 %
1386 13-02-2019 00:00:00 7.47583 C 73.5000 %
1387 14-02-2019 00:00:00 6.95583 C 72.5083 %
1388 15-02-2019 00:00:00 6.6825 C 71.6250 %
1389 16-02-2019 00:00:00 6.53917 C 73.3083 %
1390 17-02-2019 00:00:00 6.63667 C 74.1417 %
1391 18-02-2019 00:00:00 6.65583 C 74.3000 %
1392 19-02-2019 00:00:00 7.19417 C 75.8083 %
1393 20-02-2019 00:00:00 7.495 C 75.5500 %
1394 21-02-2019 00:00:00 7.76167 C 75.7333 %
1395 22-02-2019 00:00:00 9.21417 C 77.2250 %
1396 23-02-2019 00:00:00 9.20583 C 74.8917 %
1397 24-02-2019 00:00:00 8.01917 C 72.1333 %
1398 25-02-2019 00:00:00 7.5975 C 71.6250 %
1399 26-02-2019 00:00:00 7.74083 C 71.5500 %
1400 27-02-2019 00:00:00 6.63667 C 68.6917 %
Sensor: Nr:Datum:Temp:Feuchte:
G-T/H 1401 28-02-2019 00:00:00 8.11917 C 73.1500 %
1402 01-03-2019 00:00:00 9.37083 C 74.7583 %
1403 02-03-2019 00:00:00 9.69333 C 72.8750 %
1404 03-03-2019 00:00:00 10.36917 C 73.5083 %
1405 04-03-2019 00:00:00 10.60917 C 73.1083 %
1406 05-03-2019 00:00:00 9.71 C 71.6083 %
1407 06-03-2019 00:00:00 9.71 C 73.4333 %
1408 07-03-2019 00:00:00 10.48417 C 73.6500 %
1409 08-03-2019 00:00:00 10.0575 C 72.7250 %
1410 09-03-2019 00:00:00 10.17167 C 73.4333 %
1411 10-03-2019 00:00:00 10.60917 C 71.4667 %
1412 11-03-2019 00:00:00 9.44833 C 67.3667 %
1413 12-03-2019 00:00:00 8.92417 C 70.4667 %
1414 13-03-2019 00:00:00 9.345 C 71.3250 %
1415 14-03-2019 00:00:00 9.13333 C 72.3750 %
1416 15-03-2019 00:00:00 10.055 C 74.0583 %
1417 16-03-2019 00:00:00 10.57417 C 72.1333 %
1418 17-03-2019 00:00:00 9.70583 C 61.2083 %
1419 18-03-2019 00:00:00 6.8675 C 62.4667 %
1420 19-03-2019 00:00:00 6.02333 C 59.7583 %
1421 20-03-2019 00:00:00 7.52333 C 64.5167 %
1422 21-03-2019 00:00:00 9.29167 C 60.4917 %
1423 22-03-2019 00:00:00 10.14833 C 61.3250 %
1424 23-03-2019 00:00:00 10.15917 C 64.7250 %
1425 24-03-2019 00:00:00 9.54833 C 67.2167 %
Sensor: Nr:Datum:Temp:Feuchte:
G-T/H 1426 25-03-2019 00:00:00 9.15583 C 67.9000 %
1427 26-03-2019 00:00:00 9.0525 C 69.7250 %
1428 27-03-2019 00:00:00 9.47917 C 69.9333 %
1429 28-03-2019 00:00:00 9.49583 C 69.9417 %
1430 29-03-2019 00:00:00 10.2825 C 66.2583 %
1431 30-03-2019 00:00:00 9.79667 C 60.6083 %
1432 31-03-2019 00:00:00 11.2313 C 64.9130 %
1433 01-04-2019 00:00:00 11.50333 C 60.3833 %
1434 02-04-2019 00:00:00 11.2875 C 63.6333 %
1435 03-04-2019 00:00:00 11.49833 C 67.0000 %
1436 04-04-2019 00:00:00 10.56333 C 67.8833 %
1437 05-04-2019 00:00:00 9.87333 C 68.5417 %
1438 06-04-2019 00:00:00 10.76333 C 69.0417 %
1439 07-04-2019 00:00:00 11.4925 C 68.0667 %
1440 08-04-2019 00:00:00 12.30917 C 70.6833 %
1441 09-04-2019 00:00:00 12.2875 C 74.7333 %
1442 10-04-2019 00:00:00 12.35917 C 56.9917 %
1443 11-04-2019 00:00:00 10.73083 C 48.4917 %
1444 12-04-2019 00:00:00 9.57417 C 46.6333 %
1445 13-04-2019 00:00:00 9.48583 C 55.2583 %
1446 14-04-2019 00:00:00 9.175 C 58.5167 %
1447 15-04-2019 00:00:00 10.07667 C 62.0833 %
1448 16-04-2019 00:00:00 11.07083 C 62.2083 %
1449 17-04-2019 00:00:00 12.33417 C 65.8333 %
1450 18-04-2019 00:00:00 13.09417 C 62.0833 %
Sensor: Nr:Datum:Temp:Feuchte:
G-T/H 1451 19-04-2019 00:00:00 14.9125 C 51.5500 %
1452 20-04-2019 00:00:00 15.6775 C 48.0417 %
1453 21-04-2019 00:00:00 16.29 C 47.3167 %
1454 22-04-2019 00:00:00 15.22333 C 52.2417 %
1455 23-04-2019 00:00:00 15.61417 C 53.2333 %
1456 24-04-2019 00:00:00 15.37833 C 59.4167 %
1457 25-04-2019 00:00:00 14.5575 C 61.5833 %
1458 26-04-2019 00:00:00 14.28667 C 64.1250 %
1459 27-04-2019 00:00:00 13.445 C 64.1833 %
1460 28-04-2019 00:00:00 12.45 C 64.1833 %
1461 29-04-2019 00:00:00 11.95083 C 63.4083 %
1462 30-04-2019 00:00:00 13.89833 C 57.8083 %
1463 01-05-2019 00:00:00 14.135 C 60.2833 %
1464 02-05-2019 00:00:00 13.82333 C 62.1750 %
1465 03-05-2019 00:00:00 13.86417 C 59.4750 %
1466 04-05-2019 00:00:00 12.72083 C 59.0083 %
1467 05-05-2019 00:00:00 11.31667 C 59.7917 %
1468 06-05-2019 00:00:00 11.38833 C 61.2833 %
1469 07-05-2019 00:00:00 11.88083 C 62.6250 %
1470 08-05-2019 00:00:00 11.97 C 62.9333 %
1471 09-05-2019 00:00:00 12.35167 C 66.7333 %
1472 10-05-2019 00:00:00 12.92101 C 67.6218 %
1473 11-05-2019 00:00:00 13.15833 C 68.0833 %
1474 12-05-2019 00:00:00 12.12833 C 64.0833 %
1475 13-05-2019 00:00:00 12.045 C 60.0000 %
Sensor: Nr:Datum:Temp:Feuchte:
G-T/H 1476 14-05-2019 00:00:00 12.31083 C 59.7417 %
1477 15-05-2019 00:00:00 12.7725 C 52.9833 %
1478 16-05-2019 00:00:00 13.015 C 56.6333 %
1479 17-05-2019 00:00:00 13.21917 C 63.1000 %
1480 18-05-2019 00:00:00 14.04667 C 66.4250 %
1481 19-05-2019 00:00:00 14.825 C 68.0750 %
1482 20-05-2019 00:00:00 14.84583 C 68.8000 %
1483 21-05-2019 00:00:00 14.15167 C 70.0167 %
1484 22-05-2019 00:00:00 13.71167 C 69.7583 %
1485 23-05-2019 00:00:00 15.29917 C 61.3750 %
1486 24-05-2019 00:00:00 17.54 C 55.6333 %
1487 25-05-2019 00:00:00 17.29083 C 56.6250 %
1488 26-05-2019 00:00:00 16.44583 C 60.8167 %
1489 27-05-2019 00:00:00 16.3925 C 64.3917 %
1490 28-05-2019 00:00:00 15.71583 C 66.5333 %
1491 29-05-2019 00:00:00 16.0475 C 54.4250 %
1492 30-05-2019 00:00:00 15.75417 C 61.4167 %
1493 31-05-2019 00:00:00 17.74167 C 65.2667 %
1494 01-06-2019 00:00:00 18.025 C 65.0750 %
1495 02-06-2019 00:00:00 18.60667 C 66.0917 %
1496 03-06-2019 00:00:00 19.92333 C 65.8667 %
1497 04-06-2019 00:00:00 19.69667 C 66.1500 %
1498 05-06-2019 00:00:00 20.025 C 66.6917 %
1499 06-06-2019 00:00:00 19.2775 C 64.1917 %
1500 07-06-2019 00:00:00 17.86583 C 60.1250 %
Sensor: Nr:Datum:Temp:Feuchte:
G-T/H 1501 08-06-2019 00:00:00 17.565 C 60.2333 %
1502 09-06-2019 00:00:00 16.99667 C 61.5667 %
1503 10-06-2019 00:00:00 17.96333 C 64.8583 %
1504 11-06-2019 00:00:00 18.18333 C 66.3917 %
1505 12-06-2019 00:00:00 17.70333 C 67.3917 %
1506 13-06-2019 00:00:00 17.89167 C 58.1667 %
1507 14-06-2019 00:00:00 19.59083 C 60.6083 %
1508 15-06-2019 00:00:00 19.6625 C 64.9917 %
1509 16-06-2019 00:00:00 19.56917 C 62.4417 %
1510 17-06-2019 00:00:00 19.01167 C 62.8417 %
1511 18-06-2019 00:00:00 21.23667 C 58.9250 %
1512 19-06-2019 00:00:00 21.53167 C 61.1000 %
1513 20-06-2019 00:00:00 20.7375 C 63.5667 %
1514 21-06-2019 00:00:00 20.53083 C 52.5000 %
1515 22-06-2019 00:00:00 20.16917 C 54.8083 %
1516 23-06-2019 00:00:00 21.31917 C 57.1667 %
1517 24-06-2019 00:00:00 23.94167 C 55.3000 %
1518 25-06-2019 00:00:00 23.93083 C 58.5083 %
1519 26-06-2019 00:00:00 24.37417 C 62.9417 %
1520 27-06-2019 00:00:00 23.60667 C 60.8333 %
1521 28-06-2019 00:00:00 22.21417 C 58.6667 %
1522 29-06-2019 00:00:00 24.105 C 45.4667 %
1523 30-06-2019 00:00:00 23.46833 C 52.6667 %
1524 01-07-2019 00:00:00 23.14417 C 56.9333 %
1525 02-07-2019 00:00:00 21.5975 C 49.7667 %
Sensor: Nr:Datum:Temp:Feuchte:
G-T/H 1526 03-07-2019 00:00:00 20.46667 C 46.5000 %
1527 04-07-2019 00:00:00 20.24 C 44.2750 %
1528 05-07-2019 00:00:00 20.99583 C 47.4667 %
1529 06-07-2019 00:00:00 21.055 C 53.0250 %
1530 07-07-2019 00:00:00 20.39667 C 54.9083 %
1531 08-07-2019 00:00:00 18.37167 C 51.1250 %
1532 09-07-2019 00:00:00 18.10583 C 49.1417 %
1533 10-07-2019 00:00:00 18.91917 C 42.0333 %
1534 11-07-2019 00:00:00 18.91167 C 59.7083 %
1535 12-07-2019 00:00:00 18.3025 C 73.7917 %
1536 13-07-2019 00:00:00 18.47333 C 67.7417 %
1537 14-07-2019 00:00:00 18.46917 C 65.0917 %
1538 15-07-2019 00:00:00 18.2725 C 59.6250 %
1539 16-07-2019 00:00:00 17.95917 C 58.3667 %
1540 17-07-2019 00:00:00 18.23667 C 61.2917 %
1541 18-07-2019 00:00:00 19.79417 C 58.3083 %
1542 19-07-2019 00:00:00 19.79417 C 61.5917 %
1543 20-07-2019 00:00:00 19.78583 C 63.8500 %
1544 21-07-2019 00:00:00 20.41333 C 63.8583 %
1545 22-07-2019 00:00:00 22.33167 C 54.5167 %
1546 23-07-2019 00:00:00 22.5225 C 56.8667 %
1547 24-07-2019 00:00:00 23.21833 C 58.3417 %
1548 25-07-2019 00:00:00 24.345 C 57.0083 %
1549 26-07-2019 00:00:00 24.17667 C 57.8500 %
1550 27-07-2019 00:00:00 23.54 C 61.3083 %
Sensor: Nr:Datum:Temp:Feuchte:
G-T/H 1551 28-07-2019 00:00:00 22.08333 C 64.8167 %
1552 29-07-2019 00:00:00 21.58833 C 59.7917 %
1553 30-07-2019 00:00:00 21.785 C 58.7750 %
1554 31-07-2019 00:00:00 22.4025 C 50.4333 %
1555 01-08-2019 00:00:00 21.77083 C 49.7000 %
1556 02-08-2019 00:00:00 21.34583 C 55.7750 %
1557 03-08-2019 00:00:00 20.90667 C 59.1167 %
1558 04-08-2019 00:00:00 20.4525 C 59.4750 %
1559 05-08-2019 00:00:00 22.07 C 57.0167 %
1560 06-08-2019 00:00:00 21.48083 C 59.7417 %
1561 07-08-2019 00:00:00 21.08 C 63.1500 %
1562 08-08-2019 00:00:00 20.60333 C 62.6167 %
1563 09-08-2019 00:00:00 20.50167 C 64.6000 %
1564 10-08-2019 00:00:00 20.38917 C 65.0917 %
1565 11-08-2019 00:00:00 19.8725 C 64.3750 %
1566 12-08-2019 00:00:00 19.0475 C 65.6000 %
1567 13-08-2019 00:00:00 18.645 C 58.8417 %
1568 14-08-2019 00:00:00 18.54583 C 57.0833 %
1569 15-08-2019 00:00:00 18.91583 C 62.6250 %
1570 16-08-2019 00:00:00 18.59917 C 65.5583 %
1571 17-08-2019 00:00:00 18.78167 C 67.1583 %
1572 18-08-2019 00:00:00 19.07417 C 68.7167 %
1573 19-08-2019 00:00:00 19.70167 C 61.8833 %
1574 20-08-2019 00:00:00 18.7775 C 58.6500 %
1575 21-08-2019 00:00:00 18.37 C 62.6500 %
Sensor: Nr:Datum:Temp:Feuchte:
G-T/H 1576 22-08-2019 00:00:00 18.7725 C 58.7167 %
1577 23-08-2019 00:00:00 19.34333 C 56.0250 %
1578 24-08-2019 00:00:00 19.1825 C 58.5917 %
1579 25-08-2019 00:00:00 19.53 C 63.3500 %
1580 26-08-2019 00:00:00 21.84417 C 64.5833 %
1581 27-08-2019 00:00:00 21.31417 C 66.1667 %
1582 28-08-2019 00:00:00 21.07 C 66.6583 %
1583 29-08-2019 00:00:00 21.03417 C 66.8417 %
1584 30-08-2019 00:00:00 20.6775 C 66.8917 %
1585 31-08-2019 00:00:00 20.2775 C 66.5917 %
1586 01-09-2019 00:00:00 20.59167 C 65.4167 %
1587 02-09-2019 00:00:00 18.59583 C 51.3417 %
1588 03-09-2019 00:00:00 16.5475 C 53.5583 %
1589 04-09-2019 00:00:00 18.68667 C 56.9667 %
1590 05-09-2019 00:00:00 18.34667 C 60.0000 %
1591 06-09-2019 00:00:00 17.44333 C 56.1750 %
1592 07-09-2019 00:00:00 17.36583 C 60.4417 %
1593 08-09-2019 00:00:00 16.54309 C 65.9350 %
1594 09-09-2019 00:00:00 16.06067 C 66.7333 %
1595 10-09-2019 00:00:00 15.23333 C 63.6597 %
1596 11-09-2019 00:00:00 15.74097 C 61.0833 %
1597 12-09-2019 00:00:00 17.93194 C 67.6319 %
1598 13-09-2019 00:00:00 18.68472 C 70.9653 %
1599 14-09-2019 00:00:00 18.01181 C 65.5903 %
1600 15-09-2019 00:00:00 17.60347 C 61.9722 %
Sensor: Nr:Datum:Temp:Feuchte:
G-T/H 1601 16-09-2019 00:00:00 17.78264 C 60.7361 %
1602 17-09-2019 00:00:00 17.67431 C 62.7083 %
1603 18-09-2019 00:00:00 15.39444 C 57.2778 %
1604 19-09-2019 00:00:00 14.12361 C 57.3125 %
1605 20-09-2019 00:00:00 13.22639 C 59.3056 %
1606 21-09-2019 00:00:00 15.10833 C 52.5278 %
1607 22-09-2019 00:00:00 15.13194 C 59.2083 %
1608 23-09-2019 00:00:00 16.27153 C 64.4028 %
1609 24-09-2019 00:00:00 16.11528 C 66.2778 %
1610 25-09-2019 00:00:00 16.20556 C 67.8681 %
1611 26-09-2019 00:00:00 16.33542 C 69.4097 %
1612 27-09-2019 00:00:00 16.76458 C 69.3611 %
1613 28-09-2019 00:00:00 16.47083 C 68.9792 %
1614 29-09-2019 00:00:00 16.41458 C 69.6528 %
1615 30-09-2019 00:00:00 16.64236 C 66.7917 %
1616 01-10-2019 00:00:00 16.54167 C 68.3542 %
1617 02-10-2019 00:00:00 16.15694 C 67.3056 %
1618 03-10-2019 00:00:00 14.67222 C 66.7361 %
1619 04-10-2019 00:00:00 14.15556 C 70.1319 %
1620 05-10-2019 00:00:00 14.31875 C 71.1667 %
1621 06-10-2019 00:00:00 13.69306 C 70.7847 %
1622 07-10-2019 00:00:00 13.58056 C 72.7153 %
1623 08-10-2019 00:00:00 14.14097 C 74.1597 %
1624 09-10-2019 00:00:00 14.23472 C 74.0486 %
1625 10-10-2019 00:00:00 14.00139 C 74.0278 %
Sensor: Nr:Datum:Temp:Feuchte:
G-T/H 1626 11-10-2019 00:00:00 13.98819 C 74.3333 %
1627 12-10-2019 00:00:00 14.71181 C 71.7639 %
1628 13-10-2019 00:00:00 15.13472 C 74.9097 %
1629 14-10-2019 00:00:00 16.34722 C 74.3958 %
1630 15-10-2019 00:00:00 15.98125 C 73.6597 %
1631 16-10-2019 00:00:00 15.42708 C 73.2986 %
1632 17-10-2019 00:00:00 15.28056 C 74.7292 %
1633 18-10-2019 00:00:00 15.18681 C 74.6042 %
1634 19-10-2019 00:00:00 14.72222 C 74.1944 %
1635 20-10-2019 00:00:00 14.40278 C 81.1597 %
1636 21-10-2019 00:00:00 14.60625 C 80.9028 %
1637 22-10-2019 00:00:00 14.62153 C 77.5000 %
1638 23-10-2019 00:00:00 14.00764 C 76.3542 %
1639 24-10-2019 00:00:00 14.52986 C 78.0139 %
1640 25-10-2019 00:00:00 15.10694 C 74.8681 %
1641 26-10-2019 00:00:00 14.99028 C 74.2153 %
1642 27-10-2019 00:00:00 14.43933 C 74.9333 %
1643 28-10-2019 00:00:00 12.81389 C 71.1806 %
1644 29-10-2019 00:00:00 12.35556 C 71.6389 %
1645 30-10-2019 00:00:00 10.98611 C 65.8194 %
1646 31-10-2019 00:00:00 9.49097 C 64.1736 %
1647 01-11-2019 00:00:00 9.67014 C 69.2569 %
1648 02-11-2019 00:00:00 12.01181 C 74.2222 %
1649 03-11-2019 00:00:00 12.91806 C 75.4861 %
1650 04-11-2019 00:00:00 12.97569 C 75.6250 %
Sensor: Nr:Datum:Temp:Feuchte:
G-T/H 1651 05-11-2019 00:00:00 12.58194 C 75.9444 %
1652 06-11-2019 00:00:00 12.33194 C 75.6528 %
1653 07-11-2019 00:00:00 12.18403 C 75.3403 %
1654 08-11-2019 00:00:00 11.13611 C 70.1181 %
1655 09-11-2019 00:00:00 11.02014 C 69.0972 %
1656 10-11-2019 00:00:00 9.95556 C 68.3056 %
1657 11-11-2019 00:00:00 9.96458 C 71.2708 %
1658 12-11-2019 00:00:00 10.11458 C 72.0972 %
1659 13-11-2019 00:00:00 10.0125 C 72.4097 %
1660 14-11-2019 00:00:00 9.73403 C 68.3958 %
1661 15-11-2019 00:00:00 9.68819 C 69.4028 %
1662 16-11-2019 00:00:00 9.6125 C 68.7083 %
1663 17-11-2019 00:00:00 9.03819 C 69.9306 %
1664 18-11-2019 00:00:00 9.47361 C 72.2500 %
1665 19-11-2019 00:00:00 9.40903 C 72.0833 %
1666 20-11-2019 00:00:00 8.93333 C 71.1181 %
1667 21-11-2019 00:00:00 8.40559 C 70.8182 %
1668 22-11-2019 00:00:00 8.70556 C 72.6736 %
1669 23-11-2019 00:00:00 9.32569 C 73.0972 %
1670 24-11-2019 00:00:00 9.08333 C 72.0764 %
1671 25-11-2019 00:00:00 9.04375 C 73.5069 %
1672 26-11-2019 00:00:00 9.85139 C 74.9375 %
1673 27-11-2019 00:00:00 10.87847 C 75.9236 %
1674 28-11-2019 00:00:00 11.51597 C 75.5069 %
1675 29-11-2019 00:00:00 11.25208 C 72.3542 %
Sensor: Nr:Datum:Temp:Feuchte:
G-T/H 1676 30-11-2019 00:00:00 9.66736 C 68.9097 %
1677 01-12-2019 00:00:00 8.81806 C 70.1806 %
1678 02-12-2019 00:00:00 8.35278 C 70.5417 %
1679 03-12-2019 00:00:00 8.74514 C 73.3472 %
1680 04-12-2019 00:00:00 8.79375 C 71.8403 %
1681 05-12-2019 00:00:00 7.92014 C 69.1458 %
1682 06-12-2019 00:00:00 7.57292 C 70.7014 %
1683 07-12-2019 00:00:00 8.97014 C 74.4514 %
1684 08-12-2019 00:00:00 10.25694 C 75.1667 %
1685 09-12-2019 00:00:00 10.48403 C 74.1111 %
1686 10-12-2019 00:00:00 9.34028 C 71.5903 %
1687 11-12-2019 00:00:00 8.75694 C 73.1250 %
1688 12-12-2019 00:00:00 8.81042 C 73.2500 %
1689 13-12-2019 00:00:00 8.51944 C 72.1458 %
1690 14-12-2019 00:00:00 8.92153 C 73.0764 %
1691 15-12-2019 00:00:00 9.56736 C 74.6667 %
1692 16-12-2019 00:00:00 9.90486 C 75.1389 %
1693 17-12-2019 00:00:00 10.43333 C 75.4583 %
1694 18-12-2019 00:00:00 10.925 C 75.4861 %
1695 19-12-2019 00:00:00 9.76667 C 73.6667 %
1696 20-12-2019 00:00:00 9.69375 C 75.0208 %
1697 21-12-2019 00:00:00 10.06458 C 74.5833 %
1698 22-12-2019 00:00:00 10.1375 C 75.1528 %
1699 23-12-2019 00:00:00 10.30417 C 75.3681 %
1700 24-12-2019 00:00:00 10.12639 C 74.9375 %
Sensor: Nr:Datum:Temp:Feuchte:
G-T/H 1701 25-12-2019 00:00:00 10.24444 C 75.9653 %
1702 26-12-2019 00:00:00 9.92708 C 75.2569 %
1703 27-12-2019 00:00:00 9.69444 C 75.5833 %
1704 28-12-2019 00:00:00 8.37639 C 70.3194 %
1705 29-12-2019 00:00:00 7.21528 C 69.6875 %
1706 30-12-2019 00:00:00 7.16944 C 69.0486 %
1707 31-12-2019 00:00:00 6.93194 C 69.9722 %
1708 01-01-2020 00:00:00 7.23125 C 70.8403 %
1709 02-01-2020 00:00:00 7.28958 C 70.5417 %
1710 03-01-2020 00:00:00 8.41389 C 73.4792 %
1711 04-01-2020 00:00:00 9.12431 C 73.5833 %
1712 05-01-2020 00:00:00 9.42917 C 73.5694 %
1713 06-01-2020 00:00:00 9.33958 C 72.1181 %
1714 07-01-2020 00:00:00 8.74583 C 72.1111 %
1715 08-01-2020 00:00:00 9.18611 C 74.0347 %
1716 09-01-2020 00:00:00 10.3875 C 76.5556 %
1717 10-01-2020 00:00:00 11.02153 C 75.1389 %
1718 11-01-2020 00:00:00 10.04097 C 73.2014 %
1719 12-01-2020 00:00:00 9.14861 C 72.8958 %
1720 13-01-2020 00:00:00 9.30833 C 74.5139 %
1721 14-01-2020 00:00:00 9.78958 C 75.6597 %
1722 15-01-2020 00:00:00 10.59028 C 75.5972 %
1723 16-01-2020 00:00:00 10.82222 C 75.8264 %
1724 17-01-2020 00:00:00 9.87847 C 74.9583 %
1725 18-01-2020 00:00:00 9.38125 C 74.1597 %
Sensor: Nr:Datum:Temp:Feuchte:
G-T/H 1726 19-01-2020 00:00:00 8.86667 C 74.2569 %
1727 20-01-2020 00:00:00 8.75 C 73.1111 %
1728 21-01-2020 00:00:00 7.77014 C 69.7847 %
1729 22-01-2020 00:00:00 7.17083 C 69.5903 %
1730 23-01-2020 00:00:00 7.63472 C 70.8611 %
1731 24-01-2020 00:00:00 7.71319 C 70.9097 %
1732 25-01-2020 00:00:00 7.96806 C 71.5139 %
1733 26-01-2020 00:00:00 7.98611 C 72.6597 %
1734 27-01-2020 00:00:00 8.21875 C 74.7500 %
1735 28-01-2020 00:00:00 8.85833 C 75.1458 %
1736 29-01-2020 00:00:00 8.44306 C 74.0000 %
1737 30-01-2020 00:00:00 8.61389 C 74.8750 %
1738 31-01-2020 00:00:00 10.32431 C 76.3958 %
1739 01-02-2020 00:00:00 11.40556 C 76.3681 %
1740 02-02-2020 00:00:00 11.15903 C 73.6736 %
1741 03-02-2020 00:00:00 11.4875 C 75.0000 %
1742 04-02-2020 00:00:00 10.54722 C 71.2847 %
1743 05-02-2020 00:00:00 9.47153 C 71.9236 %
1744 06-02-2020 00:00:00 8.34306 C 70.5208 %
1745 07-02-2020 00:00:00 7.79097 C 69.9167 %
1746 08-02-2020 00:00:00 7.33681 C 70.6528 %
1747 09-02-2020 00:00:00 8.3 C 73.5694 %
1748 10-02-2020 00:00:00 9.82708 C 73.9167 %
1749 11-02-2020 00:00:00 9.18194 C 72.2431 %
1750 12-02-2020 00:00:00 8.72083 C 72.8750 %
Sensor: Nr:Datum:Temp:Feuchte:
G-T/H 1751 13-02-2020 00:00:00 8.20208 C 72.5208 %
1752 14-02-2020 00:00:00 8.84653 C 74.7500 %
1753 15-02-2020 00:00:00 8.93958 C 73.5903 %
1754 16-02-2020 00:00:00 11.3125 C 68.1111 %
1755 17-02-2020 00:00:00 11.77708 C 69.2778 %
1756 18-02-2020 00:00:00 10.43056 C 67.4028 %
1757 19-02-2020 00:00:00 9.94514 C 69.4583 %
1758 20-02-2020 00:00:00 9.73472 C 71.6875 %
1759 21-02-2020 00:00:00 9.56875 C 71.4931 %
1760 22-02-2020 00:00:00 9.25625 C 72.0625 %
1761 23-02-2020 00:00:00 10.38403 C 73.7708 %
1762 24-02-2020 00:00:00 10.40903 C 71.9792 %
1763 25-02-2020 00:00:00 10.88819 C 73.0278 %
1764 26-02-2020 00:00:00 10.02917 C 68.9306 %
1765 27-02-2020 00:00:00 9.17986 C 71.0208 %
1766 28-02-2020 00:00:00 8.31042 C 73.7708 %
1767 29-02-2020 00:00:00 9.28125 C 75.1597 %
1768 01-03-2020 00:00:00 9.80486 C 74.3403 %
1769 02-03-2020 00:00:00 9.67847 C 73.5833 %
1770 03-03-2020 00:00:00 9.53681 C 73.3194 %
1771 04-03-2020 00:00:00 8.95833 C 73.5139 %
1772 05-03-2020 00:00:00 9.15833 C 73.9861 %
1773 06-03-2020 00:00:00 9.48958 C 74.9514 %
1774 07-03-2020 00:00:00 9.38611 C 74.0556 %
1775 08-03-2020 00:00:00 9.99583 C 74.7292 %
Sensor: Nr:Datum:Temp:Feuchte:
G-T/H 1776 09-03-2020 00:00:00 10.54861 C 73.8819 %
1777 10-03-2020 00:00:00 10.28056 C 73.3819 %
1778 11-03-2020 00:00:00 11.72083 C 75.8889 %
1779 12-03-2020 00:00:00 12.29653 C 71.3333 %
1780 13-03-2020 00:00:00 11.08333 C 68.2014 %
1781 14-03-2020 00:00:00 10.32361 C 70.1250 %
1782 15-03-2020 00:00:00 10.87153 C 65.1667 %
1783 16-03-2020 00:00:00 10.71667 C 66.3819 %
1784 17-03-2020 00:00:00 11.47153 C 70.7292 %
1785 18-03-2020 00:00:00 11.42569 C 70.3472 %
1786 19-03-2020 00:00:00 12.36736 C 67.4583 %
1787 20-03-2020 00:00:00 12.53217 C 67.5944 %
1788 21-03-2020 00:00:00 11.55903 C 63.9097 %
1789 22-03-2020 00:00:00 9.66111 C 61.2292 %
1790 23-03-2020 00:00:00 8.67431 C 62.8819 %
1791 24-03-2020 00:00:00 8.04028 C 63.8611 %
1792 25-03-2020 00:00:00 7.80833 C 63.4722 %
1793 26-03-2020 00:00:00 8.04028 C 64.0208 %
1794 27-03-2020 00:00:00 9.19722 C 61.4583 %
1795 28-03-2020 00:00:00 10.48264 C 59.6944 %
1796 29-03-2020 00:00:00 10.14855 C 60.5362 %
1797 30-03-2020 00:00:00 8.62708 C 59.5417 %
1798 31-03-2020 00:00:00 8.58472 C 62.8194 %
1799 01-04-2020 00:00:00 8.20764 C 62.6181 %
1800 02-04-2020 00:00:00 8.18194 C 64.4097 %
Sensor: Nr:Datum:Temp:Feuchte:
G-T/H 1801 03-04-2020 00:00:00 9.17708 C 61.3125 %
1802 04-04-2020 00:00:00 7.05486 C 55.4306 %
1803 05-04-2020 00:00:00 9.21944 C 61.8056 %
1804 06-04-2020 00:00:00 10.2125 C 63.7569 %
1805 07-04-2020 00:00:00 13.11319 C 59.7083 %
1806 08-04-2020 00:00:00 13.17153 C 61.2847 %
1807 09-04-2020 00:00:00 13.65556 C 60.0069 %
1808 10-04-2020 00:00:00 13.73681 C 60.7847 %
1809 11-04-2020 00:00:00 13.3125 C 61.3611 %
1810 12-04-2020 00:00:00 13.45 C 63.2500 %
1811 13-04-2020 00:00:00 13.15556 C 59.7986 %
1812 14-04-2020 00:00:00 11.44375 C 58.7847 %
1813 15-04-2020 00:00:00 11.16875 C 56.8333 %
1814 16-04-2020 00:00:00 11.42917 C 52.3542 %
1815 17-04-2020 00:00:00 14.90625 C 55.3958 %
1816 18-04-2020 00:00:00 14.63333 C 62.5347 %
1817 19-04-2020 00:00:00 14.45833 C 64.6250 %
1818 20-04-2020 00:00:00 13.53681 C 59.6042 %
1819 21-04-2020 00:00:00 13.28819 C 58.7986 %
1820 22-04-2020 00:00:00 13.43958 C 59.4167 %
1821 23-04-2020 00:00:00 13.68125 C 59.6181 %
1822 24-04-2020 00:00:00 14.95139 C 52.1875 %
1823 25-04-2020 00:00:00 14.65694 C 48.8681 %
1824 26-04-2020 00:00:00 11.22569 C 54.7014 %
1825 27-04-2020 00:00:00 13.14028 C 57.4375 %
Sensor: Nr:Datum:Temp:Feuchte:
G-T/H 1826 28-04-2020 00:00:00 13.66528 C 62.0139 %
1827 29-04-2020 00:00:00 13.85625 C 64.5486 %

Maximal/Minimal-Werte vom 30.04.2015 - 29.04.2020

Sensor Min Max Avg
Temp
(Aussen-T/F)
-18.7 °C
20-06-2016  11:38:17
46.2 °C
19-06-2017  18:30:17
11.16 °C
Feuchte
(Aussen-T/F)
20 %
07-05-2015  17:23:16
95 %
01-05-2015  02:34:17
38.3 %
Temp
(G-T/H)
-6 °C
01-12-2016  10:32:18
29.7 °C
26-07-2018  16:25:17
13.48 °C
Feuchte
(G-T/H)
25 %
29-06-2019  18:04:17
85 %
16-10-2017  15:03:17
66.83 %

Die Daten stammen von einer Davis Vantage Pro 2 Wetter-Station und werden unter Linux mit der Software wview2wettercgi und aufbereitet. Alle Angaben erfolgen ohne Gewähr für ihre Vollständigkeit oder Richtigkeit.
Kontakt: Rainer Krienke krienke@uni-koblenz.de . Meine Webseiten an der Uni Koblenz oder privat.
Version: $Revision: 0.78 $